[[{"header":{"parameterUnit":"m.s-1","parameterCategory":1,"la1":30.6,"la2":29.2853,"lo1":-89.7004,"lo2":-87.6739,"dy":0.0162,"dx":0.0183,"nx":112,"ny":82,"refTime":"2023-03-13T12:00:00:Z","depth":0,"parameterNumber":2,"parameterNumberName":"U-component_of_WINDS"},"data":[0.0,0.0,0.0,0.0,0.0,0.0,0.0,0.0,0.0,0.0,0.0,0.0,0.0,0.0,0.0,0.0,0.0,0.0,0.0,0.0,0.0,0.0,0.0,0.0,0.0,0.0,0.0,0.0,0.0,0.0,0.0,0.0,0.0,0.0,0.0,0.0,0.0,0.0,0.0,0.0,0.0,0.0,0.0,0.0,0.0,0.0,0.0,0.0,0.0,0.0,0.0,0.0,0.0,0.0,0.0,0.0,0.0,0.0,0.0,0.0,0.0,0.0,0.0,0.0,0.0,0.0,0.0,0.0,0.0,0.0,0.0,0.0,0.0,0.0,0.0,0.0,0.0,0.0,0.0,0.0,0.0,0.0,0.0,0.0,0.0,0.0,0.0,0.0,0.0,0.0,0.0,4.5897,4.9582,5.2083,5.2404,5.288,5.1279,4.6948,0.0,0.0,0.0,0.0,0.0,0.0,0.0,0.0,0.0,0.0,0.0,0.0,0.0,0.0,0.0,0.0,0.0,0.0,0.0,0.0,0.0,0.0,0.0,0.0,0.0,0.0,0.0,0.0,0.0,0.0,0.0,0.0,0.0,0.0,0.0,0.0,0.0,0.0,0.0,0.0,0.0,0.0,0.0,0.0,0.0,0.0,0.0,0.0,0.0,0.0,0.0,0.0,0.0,0.0,0.0,0.0,0.0,0.0,0.0,0.0,0.0,0.0,0.0,0.0,0.0,0.0,0.0,0.0,0.0,0.0,0.0,0.0,0.0,0.0,0.0,0.0,0.0,0.0,0.0,0.0,0.0,0.0,0.0,0.0,0.0,0.0,0.0,0.0,0.0,0.0,0.0,0.0,0.0,0.0,0.0,0.0,0.0,0.0,0.0,0.0,0.0,0.0,0.0,0.0,3.8682,4.7068,4.988,5.1691,5.303,5.279,5.1186,4.7964,0.0,0.0,0.0,0.0,0.0,0.0,0.0,0.0,0.0,0.0,0.0,0.0,0.0,0.0,0.0,0.0,0.0,0.0,0.0,0.0,0.0,0.0,0.0,0.0,0.0,0.0,0.0,0.0,0.0,0.0,0.0,0.0,0.0,0.0,0.0,0.0,0.0,0.0,0.0,0.0,0.0,0.0,0.0,0.0,0.0,0.0,0.0,0.0,0.0,0.0,0.0,0.0,0.0,0.0,0.0,0.0,0.0,0.0,0.0,0.0,0.0,0.0,0.0,0.0,0.0,0.0,0.0,0.0,0.0,0.0,0.0,0.0,0.0,0.0,0.0,0.0,0.0,0.0,0.0,0.0,0.0,0.0,0.0,0.0,0.0,0.0,0.0,0.0,0.0,0.0,0.0,0.0,0.0,0.0,0.0,0.0,0.0,0.0,0.0,0.0,0.0,0.0,0.0,3.4634,3.7959,4.6123,4.8914,5.0959,5.2917,5.2539,5.1087,4.8493,4.7819,0.0,0.0,0.0,0.0,0.0,0.0,0.0,0.0,0.0,0.0,0.0,0.0,0.0,0.0,0.0,0.0,0.0,0.0,0.0,0.0,0.0,0.0,0.0,0.0,0.0,0.0,0.0,0.0,0.0,0.0,0.0,0.0,0.0,0.0,0.0,0.0,0.0,0.0,0.0,0.0,0.0,0.0,0.0,0.0,0.0,0.0,0.0,0.0,0.0,0.0,0.0,0.0,0.0,0.0,0.0,0.0,0.0,0.0,0.0,0.0,0.0,0.0,0.0,0.0,0.0,0.0,0.0,0.0,0.0,0.0,0.0,0.0,0.0,0.0,0.0,0.0,0.0,0.0,0.0,0.0,0.0,0.0,0.0,0.0,0.0,0.0,0.0,0.0,0.0,0.0,0.0,0.0,0.0,0.0,0.0,0.0,0.0,0.0,0.0,0.0,0.0,0.0,3.6812,3.9845,4.5955,4.841,5.0636,5.31,5.221,5.0856,4.9234,4.7625,0.0,0.0,0.0,0.0,0.0,0.0,0.0,0.0,0.0,0.0,0.0,0.0,0.0,0.0,0.0,0.0,0.0,0.0,0.0,0.0,0.0,0.0,0.0,0.0,0.0,0.0,0.0,0.0,0.0,0.0,0.0,0.0,0.0,0.0,0.0,0.0,0.0,0.0,0.0,0.0,0.0,0.0,0.0,0.0,0.0,0.0,0.0,0.0,0.0,0.0,0.0,0.0,0.0,0.0,0.0,0.0,0.0,0.0,0.0,0.0,0.0,0.0,0.0,0.0,0.0,0.0,0.0,0.0,0.0,0.0,0.0,0.0,0.0,0.0,0.0,0.0,0.0,0.0,0.0,0.0,0.0,0.0,0.0,0.0,0.0,0.0,0.0,0.0,0.0,0.0,0.0,0.0,0.0,0.0,0.0,0.0,0.0,0.0,0.0,0.0,0.0,0.0,3.9309,4.3963,4.8488,4.9625,5.1307,5.4343,5.1862,5.033,5.0717,4.7683,0.0,0.0,0.0,0.0,0.0,0.0,0.0,0.0,0.0,0.0,0.0,0.0,0.0,0.0,0.0,0.0,0.0,0.0,0.0,0.0,0.0,0.0,0.0,0.0,0.0,0.0,0.0,0.0,0.0,0.0,0.0,0.0,0.0,0.0,0.0,0.0,0.0,0.0,0.0,0.0,0.0,0.0,0.0,0.0,0.0,0.0,0.0,0.0,0.0,0.0,0.0,0.0,0.0,0.0,0.0,0.0,0.0,0.0,0.0,0.0,0.0,0.0,0.0,0.0,0.0,0.0,0.0,0.0,0.0,0.0,0.0,0.0,0.0,0.0,0.0,0.0,0.0,0.0,0.0,0.0,0.0,0.0,0.0,0.0,0.0,0.0,0.0,0.0,0.0,0.0,0.0,0.0,0.0,0.0,0.0,0.0,0.0,0.0,0.0,0.0,0.0,0.0,4.0992,4.5418,0.0,5.1547,5.3451,5.6497,5.4677,5.2961,5.2006,0.0,0.0,0.0,0.0,0.0,0.0,0.0,0.0,0.0,0.0,0.0,0.0,0.0,0.0,0.0,0.0,0.0,0.0,0.0,0.0,0.0,0.0,0.0,0.0,0.0,0.0,0.0,0.0,0.0,0.0,0.0,0.0,0.0,0.0,0.0,0.0,0.0,0.0,0.0,0.0,0.0,0.0,0.0,0.0,0.0,0.0,0.0,0.0,0.0,0.0,0.0,0.0,0.0,0.0,0.0,0.0,0.0,0.0,0.0,0.0,0.0,0.0,0.0,0.0,0.0,0.0,0.0,0.0,0.0,0.0,0.0,0.0,0.0,0.0,0.0,0.0,0.0,0.0,0.0,0.0,0.0,0.0,0.0,0.0,0.0,0.0,0.0,0.0,0.0,0.0,0.0,0.0,0.0,0.0,0.0,0.0,0.0,0.0,0.0,0.0,0.0,0.0,4.0667,4.4721,4.8726,0.0,5.3618,5.5107,5.7604,5.5698,5.3792,5.2389,0.0,0.0,0.0,0.0,0.0,0.0,0.0,0.0,0.0,0.0,0.0,0.0,0.0,0.0,0.0,0.0,0.0,0.0,0.0,0.0,0.0,0.0,0.0,0.0,0.0,0.0,0.0,0.0,0.0,0.0,0.0,0.0,0.0,0.0,0.0,0.0,0.0,0.0,0.0,0.0,0.0,0.0,0.0,0.0,0.0,0.0,0.0,0.0,0.0,0.0,0.0,0.0,0.0,0.0,0.0,0.0,0.0,0.0,0.0,0.0,0.0,0.0,0.0,0.0,0.0,0.0,0.0,0.0,0.0,0.0,0.0,0.0,0.0,0.0,0.0,0.0,0.0,0.0,0.0,0.0,0.0,0.0,0.0,0.0,0.0,0.0,0.0,0.0,0.0,0.0,0.0,0.0,0.0,0.0,0.0,0.0,0.0,0.0,0.0,0.0,0.0,0.0,4.6215,5.096,5.4607,5.6019,5.5781,5.607,5.7323,5.4243,5.2107,0.0,0.0,0.0,0.0,0.0,0.0,0.0,0.0,0.0,0.0,0.0,0.0,0.0,0.0,0.0,0.0,0.0,0.0,0.0,0.0,0.0,0.0,0.0,0.0,0.0,0.0,0.0,0.0,0.0,0.0,0.0,0.0,0.0,0.0,0.0,0.0,0.0,0.0,0.0,0.0,0.0,0.0,0.0,0.0,0.0,0.0,0.0,0.0,0.0,0.0,0.0,0.0,0.0,0.0,0.0,0.0,0.0,0.0,0.0,0.0,0.0,0.0,0.0,0.0,0.0,0.0,0.0,0.0,0.0,0.0,0.0,0.0,0.0,0.0,0.0,0.0,0.0,0.0,0.0,0.0,0.0,0.0,0.0,0.0,0.0,0.0,0.0,0.0,0.0,0.0,0.0,0.0,0.0,0.0,0.0,0.0,0.0,0.0,0.0,0.0,0.0,0.0,0.0,4.9861,5.4898,5.8631,5.9479,5.9246,5.9474,6.0617,5.8032,5.5304,5.2877,0.0,0.0,0.0,0.0,0.0,0.0,0.0,0.0,0.0,0.0,0.0,0.0,0.0,0.0,0.0,0.0,0.0,0.0,0.0,0.0,0.0,0.0,0.0,0.0,0.0,0.0,0.0,0.0,0.0,0.0,0.0,0.0,0.0,0.0,0.0,0.0,0.0,0.0,0.0,0.0,0.0,0.0,0.0,0.0,0.0,0.0,0.0,0.0,0.0,0.0,0.0,0.0,0.0,0.0,0.0,0.0,0.0,0.0,0.0,0.0,0.0,0.0,0.0,0.0,0.0,0.0,0.0,0.0,0.0,0.0,0.0,0.0,0.0,0.0,0.0,0.0,0.0,0.0,0.0,0.0,0.0,0.0,0.0,0.0,0.0,0.0,0.0,0.0,0.0,0.0,0.0,0.0,0.0,0.0,0.0,0.0,0.0,0.0,0.0,0.0,0.0,0.0,5.3118,5.8205,6.1773,6.2012,6.1393,6.1117,6.1485,5.9356,5.6431,5.2803,0.0,0.0,0.0,0.0,0.0,0.0,0.0,0.0,0.0,0.0,0.0,0.0,0.0,0.0,0.0,0.0,0.0,0.0,0.0,0.0,0.0,0.0,0.0,0.0,0.0,0.0,0.0,0.0,0.0,0.0,0.0,0.0,0.0,0.0,0.0,0.0,0.0,0.0,0.0,0.0,0.0,0.0,0.0,0.0,0.0,0.0,0.0,0.0,0.0,0.0,0.0,0.0,0.0,0.0,0.0,0.0,0.0,0.0,0.0,0.0,0.0,0.0,0.0,0.0,0.0,0.0,0.0,0.0,0.0,0.0,0.0,0.0,0.0,0.0,0.0,0.0,0.0,0.0,0.0,0.0,0.0,0.0,0.0,0.0,0.0,0.0,0.0,0.0,0.0,0.0,0.0,0.0,0.0,0.0,0.0,0.0,0.0,0.0,0.0,0.0,0.0,0.0,5.6071,6.1111,6.4329,6.4006,6.2786,6.1749,6.1143,5.9233,5.6273,5.1985,0.0,0.0,0.0,0.0,0.0,0.0,0.0,0.0,0.0,0.0,0.0,0.0,0.0,0.0,0.0,0.0,0.0,0.0,0.0,0.0,0.0,0.0,0.0,0.0,0.0,0.0,0.0,0.0,0.0,0.0,0.0,0.0,0.0,0.0,0.0,0.0,0.0,0.0,0.0,0.0,0.0,0.0,0.0,0.0,0.0,0.0,0.0,0.0,0.0,0.0,0.0,0.0,0.0,0.0,0.0,0.0,0.0,0.0,0.0,0.0,5.8594,0.0,0.0,0.0,0.0,0.0,0.0,0.0,0.0,0.0,0.0,0.0,0.0,0.0,0.0,0.0,0.0,0.0,0.0,0.0,0.0,0.0,0.0,0.0,0.0,0.0,0.0,0.0,0.0,0.0,0.0,0.0,0.0,0.0,0.0,0.0,0.0,0.0,0.0,0.0,0.0,0.0,5.9121,6.4078,6.7276,6.6859,6.5722,6.4702,6.4018,6.1092,5.7406,5.2987,4.9072,0.0,0.0,0.0,0.0,0.0,0.0,0.0,0.0,0.0,0.0,0.0,0.0,0.0,0.0,0.0,0.0,0.0,0.0,0.0,0.0,0.0,0.0,0.0,0.0,0.0,0.0,0.0,0.0,0.0,0.0,0.0,0.0,0.0,0.0,0.0,0.0,0.0,0.0,0.0,0.0,0.0,0.0,0.0,0.0,0.0,0.0,0.0,0.0,0.0,0.0,0.0,0.0,0.0,0.0,0.0,0.0,0.0,0.0,0.0,0.0,5.7387,0.0,0.0,0.0,0.0,0.0,0.0,0.0,0.0,0.0,0.0,0.0,0.0,0.0,0.0,0.0,0.0,0.0,0.0,0.0,0.0,0.0,0.0,0.0,0.0,0.0,0.0,0.0,0.0,0.0,0.0,0.0,0.0,0.0,0.0,0.0,0.0,0.0,0.0,0.0,0.0,6.1425,6.6266,6.9107,6.7998,6.673,6.5388,6.3867,6.1107,5.7601,5.3092,4.9032,0.0,0.0,0.0,0.0,0.0,0.0,0.0,0.0,0.0,0.0,0.0,0.0,0.0,0.0,0.0,0.0,0.0,0.0,0.0,0.0,0.0,0.0,0.0,0.0,0.0,0.0,0.0,0.0,0.0,0.0,0.0,0.0,0.0,0.0,0.0,0.0,0.0,0.0,0.0,0.0,0.0,0.0,0.0,0.0,0.0,0.0,0.0,0.0,0.0,0.0,0.0,0.0,0.0,6.3423,6.4815,6.6091,6.7032,6.7237,6.6576,6.3806,6.0896,5.7928,5.4794,0.0,0.0,0.0,0.0,0.0,0.0,0.0,0.0,0.0,0.0,0.0,0.0,0.0,0.0,0.0,0.0,0.0,0.0,0.0,0.0,0.0,0.0,7.2559,7.2191,7.0837,6.8214,6.302,0.0,0.0,0.0,0.0,0.0,0.0,0.0,0.0,0.0,0.0,0.0,6.3435,6.809,7.0452,6.8513,6.7044,6.5347,6.3113,6.0667,5.7281,5.2902,4.9013,4.4932,0.0,0.0,0.0,0.0,0.0,0.0,0.0,0.0,0.0,0.0,0.0,0.0,0.0,0.0,0.0,0.0,0.0,0.0,0.0,0.0,0.0,0.0,0.0,0.0,0.0,0.0,0.0,0.0,0.0,0.0,0.0,0.0,7.5111,7.5887,0.0,0.0,0.0,0.0,0.0,0.0,0.0,0.0,0.0,0.0,0.0,0.0,0.0,5.8719,6.0886,6.2818,6.4016,6.4457,6.678,6.856,6.983,7.0464,7.1326,7.2207,6.9865,0.0,5.9602,5.7281,0.0,0.0,0.0,0.0,0.0,0.0,0.0,0.0,0.0,0.0,0.0,0.0,0.0,0.0,0.0,0.0,0.0,0.0,0.0,0.0,0.0,0.0,7.7177,7.5059,7.3372,7.1395,6.8511,6.373,5.9152,5.6444,5.4611,0.0,0.0,0.0,0.0,0.0,0.0,0.0,6.5663,6.9691,7.1617,6.9692,6.7735,6.6014,6.4481,6.0937,5.7006,5.2886,4.8872,4.4871,4.0955,3.7909,0.0,0.0,0.0,0.0,0.0,0.0,0.0,0.0,0.0,0.0,0.0,0.0,0.0,0.0,0.0,0.0,0.0,0.0,0.0,0.0,0.0,0.0,0.0,0.0,0.0,0.0,0.0,0.0,0.0,8.1259,8.3187,8.2425,8.1205,7.8436,0.0,0.0,0.0,0.0,0.0,0.0,0.0,0.0,0.0,5.7726,6.0201,6.2357,6.4171,6.7127,6.879,6.9117,7.0946,7.2336,7.3149,7.3191,7.3551,7.4106,7.3016,7.0181,6.6058,6.1732,5.7315,5.3032,0.0,0.0,0.0,0.0,4.9041,5.0592,5.3412,5.6584,5.9731,6.1306,0.0,0.0,0.0,0.0,0.0,0.0,0.0,7.581,7.6408,7.7207,7.7535,7.6519,7.5401,7.3891,7.1533,6.828,6.4644,6.0757,5.8945,5.7157,5.4302,0.0,0.0,0.0,0.0,6.5752,6.7596,7.112,7.2347,6.9435,6.7832,6.581,6.3036,5.9794,5.5992,5.1528,4.7602,4.3857,4.0306,3.6827,3.448,0.0,0.0,0.0,0.0,0.0,0.0,0.0,0.0,0.0,0.0,0.0,0.0,0.0,0.0,0.0,0.0,0.0,0.0,0.0,0.0,0.0,0.0,0.0,0.0,0.0,0.0,0.0,0.0,8.9802,9.0406,8.856,8.7202,8.3895,0.0,0.0,0.0,0.0,0.0,0.0,5.943,5.8495,5.9096,6.1518,6.425,6.6369,6.7766,7.1395,7.3267,7.3429,7.4986,7.5995,7.6363,7.6236,7.6056,7.5836,7.5458,7.4198,7.1912,6.6133,6.1579,5.8107,5.5735,5.3732,5.2227,5.3748,5.4944,5.6293,5.9098,6.1841,6.4217,6.4708,6.6598,6.8601,6.8066,0.0,0.0,0.0,0.0,7.5436,7.728,7.773,7.7642,7.7731,7.7169,7.5947,7.3688,7.2048,6.961,6.4705,6.3042,6.1483,5.8337,0.0,0.0,0.0,0.0,6.7864,6.9239,7.2004,7.2423,6.8873,6.7152,6.4778,6.1234,5.8196,5.4495,4.9852,4.5972,4.2341,3.8822,3.5459,3.2993,3.1565,0.0,0.0,0.0,0.0,0.0,0.0,0.0,0.0,0.0,0.0,0.0,0.0,0.0,0.0,0.0,0.0,0.0,0.0,0.0,0.0,0.0,0.0,0.0,0.0,0.0,0.0,0.0,0.0,0.0,9.389,9.3495,0.0,0.0,0.0,0.0,6.9965,6.7927,6.6483,6.5485,6.4461,6.5015,6.7493,6.8963,7.0422,7.1975,7.5048,7.647,7.6402,7.8432,7.9464,7.9483,7.9982,7.9771,7.8994,7.8042,7.6655,7.4829,6.9522,6.5639,6.2724,6.0248,5.8813,5.8275,5.9128,6.0072,6.1102,6.2155,6.4346,6.6879,6.8583,7.0407,7.1968,7.1892,7.2086,0.0,0.0,7.5512,7.6846,7.9236,7.9475,7.9092,7.9129,7.8616,7.7539,7.5215,7.4127,7.2169,6.7254,6.5639,6.4565,6.2773,0.0,6.399,6.4989,6.8054,7.0341,7.0486,7.2018,7.1711,6.8216,6.5452,6.2742,5.9935,5.6368,5.2379,4.8014,4.4308,4.048,3.6366,3.3693,3.1539,2.9946,2.9174,0.0,0.0,0.0,0.0,0.0,0.0,0.0,0.0,0.0,0.0,0.0,0.0,0.0,0.0,0.0,0.0,0.0,0.0,0.0,0.0,0.0,0.0,0.0,0.0,0.0,0.0,0.0,0.0,9.89,9.728,0.0,8.6945,8.3431,7.9902,7.5798,7.3366,7.1832,7.1351,6.9919,6.9986,7.188,7.2848,7.4029,7.5501,7.7597,7.9114,7.9978,8.0591,8.1147,8.158,8.0991,8.0562,8.0265,7.922,7.8199,7.7033,7.3961,7.0597,6.7074,6.5186,6.3975,6.3382,6.4197,6.5116,6.6072,6.6984,6.8444,6.9941,7.0718,7.103,7.1374,7.3123,7.3614,7.4067,7.6344,7.7684,7.8685,7.9589,8.014,8.0233,7.9246,7.8521,7.7586,7.5787,7.4851,7.3768,7.1562,6.9739,6.787,6.5629,6.6441,6.7538,6.7847,7.037,7.2236,7.2259,7.2778,7.1799,6.8319,6.55,6.2535,5.9249,5.5221,5.0984,4.6583,4.1984,3.7785,3.4148,3.1032,2.8569,2.6876,2.6623,2.6529,0.0,0.0,0.0,0.0,0.0,0.0,0.0,0.0,0.0,0.0,0.0,0.0,0.0,0.0,0.0,0.0,0.0,0.0,0.0,0.0,0.0,0.0,0.0,0.0,0.0,0.0,10.4212,10.2905,10.098,9.7469,9.1662,8.8437,8.5144,8.1424,7.9453,7.7982,7.6939,7.5761,7.5427,7.6122,7.715,7.8093,7.8945,8.0908,8.2284,8.3137,8.3339,8.3651,8.4087,8.2906,8.222,8.1883,8.0824,7.9744,7.8739,7.7253,7.4858,7.1909,6.9669,6.8334,6.7703,6.8519,6.9051,6.9532,7.0448,7.1227,7.1902,7.2379,7.2079,7.1966,7.4018,7.4807,7.5361,7.741,7.8822,7.9746,7.983,8.0386,8.0649,7.9377,7.8443,7.7492,7.622,7.5494,7.4832,7.4205,7.2732,7.0969,6.905,6.9982,7.0883,7.0631,7.2557,7.3856,7.3277,7.2928,7.1428,6.7966,6.4964,6.1742,5.8153,5.3635,4.8992,4.4318,3.9146,3.4391,3.0153,2.7437,2.51,2.3123,2.3942,2.5152,2.664,0.0,0.0,0.0,0.0,0.0,0.0,0.0,0.0,0.0,0.0,0.0,0.0,0.0,0.0,0.0,0.0,0.0,0.0,0.0,0.0,0.0,0.0,0.0,10.3507,10.6698,10.7937,10.5717,10.46,10.1788,9.5957,9.3662,9.0825,8.6637,8.6079,8.4822,8.2222,8.1881,8.1344,8.0385,8.1825,8.2488,8.2339,8.4816,8.6019,8.5813,8.6594,8.7009,8.7009,8.5846,8.4861,8.4073,8.2944,8.1472,7.9904,7.9082,7.8245,7.7042,7.361,7.1812,7.118,7.1998,7.1876,7.138,7.2223,7.2533,7.2683,7.3553,7.3852,7.4001,7.4823,7.5645,7.6429,7.7289,7.8775,8.0114,8.0076,8.028,8.029,7.9567,7.8403,7.7336,7.6656,7.6105,7.5526,7.4956,7.4355,7.3743,7.304,7.3703,7.4065,7.3286,7.465,0.0,7.3437,7.2444,7.0584,6.718,6.3662,6.0175,5.6647,5.1564,4.6364,4.1207,3.599,3.0419,2.4434,2.3072,2.1325,1.8954,2.1369,2.4785,2.9182,0.0,0.0,0.0,0.0,0.0,0.0,0.0,0.0,0.0,0.0,0.0,0.0,0.0,0.0,0.0,0.0,0.0,0.0,0.0,0.0,0.0,0.0,10.4692,10.5963,10.8094,10.929,10.8613,10.6818,10.3977,9.9904,9.7404,9.4753,9.1606,9.0148,8.8499,8.6506,8.5741,8.4935,8.3974,8.4352,8.48,8.5317,8.6045,8.6951,8.8083,8.7516,8.7533,8.8101,8.6316,8.532,8.5019,8.3276,8.227,8.1783,8.0783,7.9854,7.8756,7.6215,7.4882,7.4487,7.4815,7.4725,7.4306,7.3988,7.3877,7.3967,7.4397,7.4472,7.4681,7.6341,7.6938,7.717,7.8096,7.9119,7.9807,7.9246,7.9716,8.0142,7.9365,7.8217,7.724,7.71,7.6122,7.5313,7.5392,7.5302,7.4964,7.3878,7.4472,7.5059,7.4895,7.5793,7.5884,7.4205,7.276,7.0582,6.7117,6.3653,5.9957,5.5894,5.0775,4.5614,4.043,3.4083,2.8555,2.4144,2.108,1.9313,1.8962,2.0456,2.3784,0.0,0.0,0.0,0.0,0.0,0.0,0.0,0.0,0.0,0.0,0.0,0.0,0.0,0.0,0.0,0.0,0.0,0.0,0.0,0.0,0.0,0.0,10.2982,10.7011,10.8819,11.0126,11.0807,11.0816,10.8376,10.5772,10.3387,10.0586,9.7782,9.5131,9.359,9.1862,8.9752,8.9138,8.8405,8.7438,8.7743,8.8118,8.8433,8.8866,8.9513,9.0409,8.9783,8.9535,8.9601,8.7978,8.7033,8.6567,8.4952,8.3907,8.3179,8.2424,8.1455,8.0132,0.0,0.0,0.0,0.0,7.6253,7.5977,7.5144,7.4793,7.4848,7.5011,7.5011,7.5179,7.6679,7.705,7.7181,7.8071,7.8889,7.9354,7.8627,7.9162,7.9785,7.9102,7.8199,7.7425,7.7225,7.63,7.5513,7.5465,7.5633,0.0,7.5388,7.5576,7.5818,7.5913,7.6371,7.6109,7.4467,7.2846,7.0493,6.704,6.3584,5.982,5.5552,5.0136,0.0,0.0,0.0,2.6446,2.0979,1.7895,0.0,0.0,0.0,2.3507,2.966,3.5445,0.0,0.0,5.5512,6.045,0.0,0.0,0.0,0.0,0.0,0.0,0.0,0.0,0.0,0.0,0.0,0.0,0.0,0.0,0.0,0.0,10.5125,10.8665,11.1304,11.199,11.2308,11.2302,10.9482,10.7225,10.6093,10.318,10.0262,9.7604,9.6636,9.5064,9.246,0.0,0.0,0.0,0.0,9.1634,9.128,9.2243,9.2585,9.2342,9.244,9.2023,9.1079,9.0146,8.9163,8.8141,8.7118,8.5846,8.4373,8.4138,8.3039,8.1269,7.9317,7.8573,7.8462,7.7441,7.7032,7.6884,7.5863,0.0,0.0,7.551,7.5474,7.5621,7.6433,7.6765,7.695,7.7577,7.8448,7.8988,7.8179,7.8758,7.9335,7.8789,7.8265,7.7689,7.722,7.6538,7.5959,7.5589,7.5542,7.5901,7.7078,7.6696,7.6326,7.6588,7.6531,7.5895,7.4356,7.271,7.0356,6.6925,6.3614,0.0,5.5561,4.9839,4.3845,3.7767,3.1216,2.4349,1.7087,1.5132,1.5228,1.7348,1.965,2.4284,3.1224,3.7433,4.4517,5.2316,5.6106,6.1014,0.0,0.0,0.0,0.0,0.0,0.0,0.0,0.0,0.0,0.0,0.0,0.0,0.0,0.0,0.0,10.1686,10.5893,10.9315,11.1309,11.2312,11.2572,11.208,10.982,10.7609,10.6039,10.4699,10.2815,10.0115,9.9725,9.8448,9.5743,9.5676,9.499,9.3326,9.344,9.3127,9.2442,9.2641,9.2679,9.2585,9.2537,0.0,9.1225,9.0196,8.9163,8.8141,8.7118,8.6486,8.6025,8.5751,8.4534,8.2665,8.0934,8.0245,8.0077,7.8972,7.85,7.8159,7.6507,7.5933,7.5992,7.6148,7.6089,7.6139,7.7105,7.7864,0.0,7.7791,7.8735,7.9667,7.8248,7.8549,7.9129,7.8517,7.7862,7.7401,7.7689,7.6676,7.596,7.6755,7.6046,7.5886,7.7559,7.6785,7.6311,7.7253,7.6726,7.5669,7.4066,7.2444,7.0153,6.6717,6.3983,6.0372,5.5458,5.0742,4.5483,3.9401,3.026,2.3295,1.9219,1.8443,1.8633,1.9817,2.3141,2.775,3.3627,3.9223,4.6037,5.382,5.8238,6.3187,0.0,0.0,0.0,0.0,0.0,0.0,0.0,0.0,0.0,0.0,0.0,8.6511,0.0,0.0,9.9194,10.3454,10.6998,10.971,11.1101,11.1786,11.207,11.187,10.9786,10.8011,10.6985,10.539,10.3699,10.1786,10.0909,9.964,9.7855,9.7409,9.68,9.5779,9.5361,9.4893,9.4426,9.4019,9.3791,9.3742,9.3742,9.3275,9.2429,9.1862,9.0839,8.9423,8.8918,8.8119,8.7114,8.6368,8.5387,8.4174,8.2913,8.1652,8.0555,8.0318,7.962,7.8627,7.7536,7.6924,7.6594,7.6594,7.6789,7.7129,7.7631,7.839,7.894,7.8537,7.9077,7.9433,7.8321,7.8467,7.8721,7.8256,7.7942,7.775,7.7792,7.7239,7.6827,7.7187,7.6721,7.6808,7.8294,7.7561,7.7078,7.7882,7.7256,7.609,7.4488,7.25,7.0131,6.7173,6.3842,6.0134,5.5845,4.8786,4.2473,3.7591,3.0769,2.5689,2.3009,2.2207,2.2447,2.3633,2.6464,3.0809,3.6658,4.2109,4.839,5.5454,6.08,6.5625,0.0,0.0,0.0,0.0,0.0,0.0,0.0,0.0,7.8134,8.0564,8.4268,8.8466,9.2953,9.7064,10.112,10.5006,10.7886,10.9886,11.0576,11.1097,11.133,11.1402,10.9723,10.8398,10.7964,10.6121,10.4265,10.298,10.1496,10.0393,9.9657,9.8719,9.8098,9.7945,9.7148,9.6603,9.6347,9.573,9.5313,9.5058,9.5161,9.463,9.358,9.358,9.2593,9.0933,9.0825,8.9796,8.8129,8.7134,8.6273,8.5571,8.4768,8.3152,8.1279,8.1194,8.0223,7.886,7.8217,7.7578,7.7029,7.7048,7.7429,7.7976,7.8158,7.8777,7.936,7.9215,7.9288,7.9281,7.861,7.8583,7.8614,7.819,7.8274,7.8332,7.7886,7.7792,7.7813,7.7659,7.7571,7.7973,7.9283,7.8788,7.8256,7.8497,7.7681,7.644,7.4899,7.2712,7.0246,6.7595,6.3994,6.0056,5.5843,4.7053,4.023,3.6528,3.2732,2.9746,2.7689,2.6585,2.6702,2.8121,3.0394,3.4365,4.0058,4.5463,5.1216,5.7374,6.3064,6.7707,6.6357,6.8022,7.0022,7.2259,7.359,7.5442,0.0,0.0,8.4029,8.6179,8.9646,9.3066,9.5685,9.9117,10.2403,10.5195,10.7886,10.9597,10.9734,11.062,11.0987,11.0322,10.9371,10.8697,10.8117,10.6906,10.5506,10.3824,10.2904,10.2319,10.1898,10.0488,9.9653,9.9531,9.8735,9.7939,9.7181,9.7067,9.6688,9.5968,9.5968,9.5134,9.358,9.358,9.2934,9.1763,9.1377,9.0563,8.9563,8.9126,8.7947,8.6397,8.5992,8.5103,8.3794,8.1002,7.9737,7.9206,7.7523,7.6874,7.6947,7.764,7.7837,7.7989,7.8649,7.9412,7.9921,7.9194,7.9621,8.012,7.9318,7.9231,7.9206,7.8552,7.8675,7.8787,7.8313,7.7909,7.7929,7.8897,7.8731,7.8993,8.0714,8.0296,7.9622,7.9169,7.7753,7.6144,7.4561,7.2916,7.0661,6.7395,6.5408,6.1395,5.4208,4.8952,4.448,4.0842,3.7137,3.4473,3.3093,3.2067,3.1963,3.2893,3.6196,3.9834,4.3821,4.9068,5.4457,5.9921,6.4458,6.8531,6.8646,7.0818,7.2673,0.0,7.645,7.8639,8.1372,8.3463,8.5612,8.8354,9.1692,9.4908,9.7463,10.0995,10.4076,0.0,10.7768,10.9217,10.9168,10.99,11.0219,10.978,10.9461,10.9106,10.8496,10.7186,10.6028,10.5216,10.3905,10.3167,10.3094,10.1974,10.1102,10.0592,9.9758,9.8887,9.8053,9.7453,9.7036,9.6802,9.6696,9.609,9.4954,9.4954,9.4038,9.2428,9.1563,9.0894,9.0255,8.9585,8.871,8.7579,8.6354,8.5563,8.495,8.3184,8.1769,8.0588,7.9828,7.8923,7.8098,7.8358,7.8727,7.9025,7.9281,7.9899,8.0478,8.0116,8.0332,8.0475,7.9816,7.9735,7.9755,7.9242,7.9338,7.9482,7.9168,7.9423,7.9777,7.9978,8.033,8.0855,8.1582,8.1476,8.1035,8.0168,7.844,7.677,7.5663,7.3284,6.9934,6.5224,6.3271,6.0042,5.4475,5.0832,4.775,4.5192,4.2056,4.0013,3.9293,3.8377,3.822,3.9036,4.1518,4.4333,4.7379,5.2137,5.6983,6.1811,6.6697,7.1168,7.0283,0.0,0.0,7.6918,7.9514,8.1949,8.3415,8.5395,8.7827,9.061,9.37,9.6643,9.9215,10.237,10.5133,10.6355,10.7774,10.881,10.901,10.9308,10.9384,10.9081,10.9219,10.9091,10.8589,10.7511,10.6581,10.6106,10.4571,10.3927,10.4116,10.2905,10.1996,10.1693,10.0633,9.9762,9.9194,9.8214,9.7684,9.7529,9.742,9.6835,9.5815,9.5533,9.4575,9.3087,9.2136,9.146,9.0913,8.9813,8.9041,8.8267,8.6595,8.5837,8.5623,8.5178,8.3541,8.1547,8.1223,8.0103,7.8876,7.8955,7.9356,7.9792,7.9865,8.0334,8.0803,8.0803,8.0659,8.0406,8.0261,8.0218,8.0167,7.9815,8.0094,8.0308,7.9928,8.0599,8.1094,8.0819,8.1581,8.2282,8.2282,8.233,8.2114,8.1102,7.926,7.759,7.6422,7.3268,6.9404,6.492,6.2727,6.0048,5.6137,5.3545,5.1223,4.9228,4.6768,4.5155,4.4636,4.3765,4.3643,4.44,4.639,4.8574,5.0983,5.5617,5.9992,6.4,6.8977,7.3568,0.0,0.0,7.6918,7.9194,8.2257,8.5076,8.6639,8.957,9.2368,9.376,9.6369,9.8963,10.1327,10.3187,10.5114,10.7006,10.808,10.881,10.901,10.9179,10.9006,10.8176,10.8325,10.8288,0.0,10.8063,10.7371,10.5929,10.4939,10.4591,10.5497,10.3195,10.2177,10.2969,10.1384,10.0592,10.0516,9.9724,9.8894,9.8064,9.8064,9.7196,9.5574,9.4707,9.4122,9.3835,9.3352,9.2588,9.1613,9.0267,8.9113,8.8133,8.6829,8.6283,8.6063,8.6027,8.4064,8.1266,8.0293,7.9249,7.86,7.9537,7.9755,7.9757,8.0551,8.0803,8.0803,8.0803,8.0262,7.9829,8.0803,8.0757,8.0412,8.0375,8.0938,8.1218,8.0332,8.0748,8.1228,8.1275,8.2209,8.2962,8.2962,8.2962,8.2649,8.172,8.0279,7.8426,7.6198,7.2509,6.9535,6.7942,6.5566,6.2758,5.9447,5.7468,5.5326,5.2805,5.0875,4.939,4.8461,4.7466,4.7344,4.821,5.0703,5.29,5.476,5.9954,6.3917,6.6667,7.1068,7.5027,0.0,0.0,7.9418,8.2277,8.5131,8.7593,8.9026,9.1583,9.4132,9.5678,9.8054,10.0314,10.1657,10.3709,10.5388,10.6198,10.7502,10.8541,10.8568,10.8944,10.8812,10.7891,10.8398,0.0,0.0,0.0,0.0,10.6464,10.5082,10.4403,10.4705,10.3912,10.3309,10.3082,10.2592,10.1988,10.1422,10.0473,9.9946,9.9762,9.7831,9.668,9.6116,9.4467,9.3649,9.3426,9.3109,9.2699,9.2067,9.0979,8.9782,8.869,8.7596,8.672,8.61,8.5987,8.4823,8.3264,8.2686,8.2106,8.1453,8.0876,8.0912,8.1236,8.1377,8.094,8.0649,8.1878,8.123,8.044,8.1599,8.1486,8.1077,8.1214,8.1681,8.1907,8.134,8.1954,8.252,8.2125,8.281,8.3479,8.341,8.3426,8.3029,8.1717,7.9278,7.6986,7.5205,7.2957,7.0763,6.8735,6.6885,6.4679,6.2054,6.02,5.8295,5.6191,5.4939,5.3784,5.2748,5.2408,5.2672,5.3573,5.5557,5.7468,5.9201,6.3283,6.6917,7.0107,7.3942,7.7598,0.0,7.8532,8.1867,8.5068,8.7972,9.0342,9.1232,9.3574,9.5901,9.6646,9.8805,10.0704,10.1327,10.286,10.4496,10.5604,10.6721,10.7689,10.8499,10.848,10.8201,10.7165,10.7712,10.7261,0.0,0.0,0.0,10.6227,10.5197,10.4644,10.4945,10.4644,10.423,10.3741,10.3539,10.2899,10.2108,10.0757,10.0118,9.9779,9.7679,9.6618,9.6518,9.4659,9.3658,9.3425,9.2929,9.2579,9.2196,9.1245,9.0226,8.935,8.8399,8.7376,8.6386,8.6383,8.5648,8.4552,8.4096,8.3477,8.2854,8.2068,8.1994,8.2166,8.2126,8.1614,8.1246,8.2517,8.2162,8.1554,8.2504,8.2468,8.2209,8.202,8.2641,8.3024,8.2203,8.2972,8.3599,8.2893,8.3545,8.3994,8.3527,8.3284,8.2705,8.1506,7.9166,7.7043,7.5569,7.4044,7.2279,6.9961,6.865,6.698,6.4575,6.3332,6.1898,6.0065,5.9101,5.8144,5.7187,5.6877,5.7172,5.8038,6.0068,6.1842,6.3283,6.7076,7.031,7.3161,7.6355,7.9747,7.703,8.1065,8.4398,8.7589,9.0722,9.3062,9.3174,9.5626,9.7669,9.6852,9.856,10.0232,0.0,0.0,10.2632,10.516,10.5894,10.6737,10.8487,10.8142,10.7316,0.0,0.0,0.0,0.0,0.0,0.0,10.5295,10.4997,10.5095,10.5994,10.5283,10.4796,10.4833,10.418,10.3383,10.2622,10.0816,9.9423,9.8432,9.7535,9.6957,9.6683,9.5082,9.414,9.3832,9.2811,9.2233,9.2018,9.1068,9.0411,8.9893,8.9164,8.8062,8.7032,8.7068,8.6366,8.5147,8.4588,8.36,8.2721,8.307,8.2881,8.2649,8.2876,8.2727,8.2535,8.2912,8.2953,8.2994,8.3371,8.3593,8.3447,8.2931,8.3777,8.4285,8.3003,8.3729,8.4323,8.3674,8.4178,8.4439,8.3388,8.2549,8.1826,8.1343,7.9972,7.8529,7.722,7.5701,7.3942,7.1825,7.0903,6.948,6.7063,6.6733,6.5938,6.4222,6.3226,6.2363,6.1621,6.076,6.0722,6.1728,6.4191,6.597,6.6885,7.1073,7.404,7.5791,7.842,8.1474,8.0208,8.4391,8.77,9.0907,9.2839,9.4214,9.5403,9.6745,9.7678,9.7595,9.8383,9.905,0.0,0.0,0.0,10.3312,10.5169,0.0,10.7997,10.7618,0.0,10.6791,0.0,10.653,10.56,10.6086,0.0,0.0,10.5033,10.4996,10.5919,10.5707,10.5226,10.4628,10.4366,10.3911,10.3088,10.1376,10.0113,9.9053,9.7465,9.666,9.6379,9.461,9.3698,9.3413,9.2531,9.2091,9.1839,9.1437,9.0775,8.9966,8.9596,8.8459,8.7032,8.7068,8.6692,8.6009,8.5261,8.4787,8.4313,8.3205,8.3277,8.3702,8.351,8.2922,8.2592,8.3968,8.3546,8.2835,8.3642,8.3224,8.2541,8.2432,8.2628,8.2978,8.3254,8.3818,8.436,8.4805,8.4966,8.4818,8.422,8.3766,8.3195,8.2109,8.1119,7.9822,7.7779,7.6346,7.5059,7.3979,7.2738,7.1286,6.9455,6.8727,6.7588,6.5817,6.5479,6.4951,6.4111,6.3916,6.4622,6.6135,6.7528,6.8935,7.0386,7.3399,7.5765,7.7447,8.0078,8.2828,8.2549,8.6635,8.9867,9.2802,9.466,9.596,9.648,9.7451,9.7863,9.6554,9.7117,0.0,9.648,9.863,0.0,0.0,0.0,0.0,10.7924,10.74,10.6986,0.0,10.6915,0.0,10.5686,10.6213,10.64,0.0,10.5279,10.531,10.6277,10.6205,10.5798,10.4977,10.4974,10.4264,10.2664,10.129,10.0071,9.9076,9.7604,9.6799,9.6581,9.5182,9.4484,9.4191,9.2941,9.2354,9.2354,9.1655,9.099,9.0513,9.0284,8.9325,8.8082,8.8041,8.7552,8.6872,8.6361,8.5885,8.5383,8.4127,8.3976,8.4291,8.4255,8.3772,8.3432,8.4568,8.4255,8.3725,8.4349,8.4083,8.3552,8.33,8.3733,8.4138,8.4081,8.4626,8.5349,8.5831,8.5419,8.4995,8.5201,8.4546,8.3658,8.266,8.2053,8.1062,7.9448,7.7823,7.6451,7.5414,7.433,7.3155,7.1936,7.1022,7.0111,6.9091,6.8637,6.822,6.78,6.7525,6.805,6.9447,7.0768,7.2062,7.3361,7.6265,7.8402,7.9777,8.2375,8.4784,8.4703,8.8504,9.1511,9.3998,9.6226,9.7636,9.7005,9.7748,9.7711,9.4808,0.0,9.5483,9.4221,9.6653,9.9401,10.1374,0.0,10.6131,10.7923,10.74,10.6989,10.7101,10.6771,10.64,10.5804,10.5988,10.6279,10.6509,10.5991,10.5954,10.6735,10.6809,10.6251,10.5396,10.5391,10.4198,10.1861,10.0789,9.9792,9.8872,9.7801,9.7138,9.6952,9.6179,9.5661,9.5361,9.356,9.2864,9.2941,9.1687,9.113,9.113,9.0975,9.0268,8.9307,8.9184,8.8509,8.7654,8.7418,8.6906,8.6261,8.5365,8.4916,8.4835,8.4855,8.4809,8.4753,8.4855,8.4819,8.49,8.506,8.5189,8.517,8.46,8.541,8.602,8.4945,8.5779,8.6693,8.6693,8.5844,8.5316,8.5992,8.4986,8.383,8.2991,8.259,8.2145,8.1435,7.9691,7.7998,7.6705,7.5921,7.5131,7.4258,7.3346,7.2737,7.2623,7.1863,7.1484,7.1598,7.1102,7.1286,7.223,7.375,7.4966,7.5844,7.8978,8.0964,8.1954,8.4518,8.6624,8.7895,9.1276,9.3869,9.6209,9.7169,9.7685,9.824,9.6947,0.0,0.0,9.3122,9.2288,9.2869,9.4667,9.7223,10.072,10.3019,10.5062,10.7367,10.6995,10.6772,0.0,0.0,0.0,0.0,0.0,0.0,0.0,10.6825,10.6904,10.7172,10.6978,10.627,10.4791,10.3613,10.2723,10.2091,10.0611,9.9612,9.9238,9.7764,9.6914,9.6725,9.5954,9.5435,9.5171,9.3484,9.2676,9.245,9.138,9.0975,9.0897,9.074,9.0031,8.9184,8.9104,8.8752,8.8124,8.7515,8.7455,8.7549,8.6121,8.5739,8.5678,8.487,8.5074,8.5466,8.4788,8.4692,8.4692,8.4692,8.4478,8.4253,8.4109,8.4281,8.4603,8.5215,8.6292,8.7151,8.7151,8.6906,8.6255,8.5243,8.4931,8.4458,8.3126,8.2533,8.2258,8.222,8.1044,7.9915,7.9018,7.8371,7.7362,7.5845,7.4973,7.4215,7.3416,7.3265,7.3229,7.3345,7.3877,7.4676,7.5701,7.6006,7.6651,7.7564,7.9551,8.0926,8.1881,8.4366,8.6508,8.9016,9.2579,9.5546,9.795,9.8614,9.854,9.8133,0.0,0.0,0.0,9.1253,9.0889,9.1771,9.3721,9.6157,9.8833,10.0868,10.2982,10.5802,10.5505,10.5466,10.7094,10.6904,10.6714,0.0,10.7331,10.7316,10.691,10.7124,10.7316,10.7121,10.6709,10.578,10.4598,10.3493,10.2606,10.2123,10.0828,10.0085,10.0008,9.8312,9.7386,9.7273,9.6425,9.5904,9.5753,9.4312,9.3686,9.3577,9.2024,9.1436,9.1479,9.0762,9.0123,8.9717,8.9472,8.9223,8.8983,8.8492,8.8228,8.7964,8.7215,8.6514,8.5882,8.5324,8.5216,8.5109,8.4717,8.461,8.461,8.461,8.4613,8.4643,8.4643,8.4931,8.5552,8.6498,8.7186,8.7766,8.8169,8.7842,8.7222,8.6522,8.6016,8.5466,8.478,8.3997,8.3507,8.362,8.2969,8.1845,8.0283,7.9614,7.8718,7.7425,7.6554,7.5906,7.5367,7.5452,7.5494,7.5577,7.6038,7.6766,7.7721,7.8217,7.8942,7.9896,8.1576,8.2645,8.3142,8.5664,8.7347,9.0284,9.3772,9.7027,9.924,9.9758,9.9167,9.7359,9.5514,0.0,0.0,8.9713,8.9941,9.0937,9.2811,9.4948,0.0,9.8719,10.0831,10.4167,10.4241,10.4569,0.0,10.7146,0.0,10.7176,10.7713,0.0,10.7179,10.7379,10.7389,10.6874,10.6106,10.5405,10.4698,10.3818,10.2932,10.219,10.1076,10.0483,10.0483,9.8851,9.7965,9.7782,9.7002,9.6442,9.618,9.5021,9.4576,9.4467,9.2727,9.1958,9.1785,9.0846,9.0465,9.0383,8.9964,8.9793,8.9793,8.9657,8.9035,8.8235,8.8235,8.7393,8.6251,8.6073,8.5716,8.5324,8.5145,8.5109,8.5109,8.5109,8.5294,8.5434,8.5411,8.6021,8.683,8.7632,8.796,8.8289,8.8838,8.8545,8.8069,8.7631,8.7022,8.6398,8.6094,8.5324,8.4866,8.5039,8.4758,8.3712,8.1668,8.0923,8.022,7.926,7.8428,7.7892,7.7802,7.7892,7.7937,7.8019,7.8344,7.8849,7.9575,8.0342,8.107,8.1839,8.3557,8.4437,8.4593,8.7154,8.8453,9.3296,9.6142,9.8388,9.9848,9.9857,9.8793,9.6436,0.0,0.0,8.9418,8.8766,8.9141,9.0619,9.1306,9.2779,0.0,0.0,9.9021,10.313,10.4199,10.5078,10.6777,0.0,0.0,10.7778,10.8382,10.8652,10.8578,10.7991,10.7257,10.6534,10.5891,10.5376,10.5138,10.372,10.2911,10.264,10.1053,10.0283,10.0283,9.9279,9.8314,9.7582,9.7312,9.6632,9.574,9.4859,9.425,9.3916,9.3013,9.2052,9.12,9.1043,9.0923,9.0789,9.0703,9.053,9.0391,9.0391,8.968,8.8792,8.8792,8.8398,8.775,8.7036,8.7251,8.7607,8.6894,8.668,8.668,8.668,8.6512,8.6276,8.6057,8.6645,8.7301,8.7596,8.8179,8.8726,8.8574,8.8837,8.8436,8.683,8.6925,8.6745,8.5429,8.5286,8.546,8.5898,8.6032,8.5542,8.4129,8.3337,8.2567,8.1726,8.0858,8.0368,8.0368,8.0368,8.0415,8.0545,8.1347,8.19,8.2157,8.2233,8.2395,8.2593,8.4393,8.5273,8.5391,8.7992,8.96,9.3657,9.7027,9.9742,10.0766,9.9622,9.786,9.6027,0.0,9.0665,8.9445,8.8309,8.8419,9.0992,9.0803,9.1348,9.4446,0.0,0.0,9.9758,10.0567,10.1817,10.4832,10.6176,0.0,0.0,0.0,10.9496,10.9496,10.8285,10.7477,10.7073,10.6387,10.5799,10.5128,10.4109,10.3301,10.2705,10.1442,10.0819,10.0819,9.9805,9.9093,9.8765,9.8089,9.7523,9.7148,9.6485,9.588,9.5239,9.4273,9.3481,9.2688,9.1965,9.1699,9.1628,9.0903,9.0586,9.0427,8.9751,8.9272,8.8899,8.8757,8.8544,8.833,8.7635,8.7365,8.7187,8.7001,8.6894,8.6787,8.6358,8.6332,8.6521,8.7213,8.7732,8.8171,8.8567,8.8931,8.9294,8.9724,8.9552,8.9271,8.869,8.8723,8.844,8.7497,8.7036,8.6808,8.6713,8.6403,8.6013,8.5558,8.4581,8.3413,8.2007,8.1543,8.1355,8.1257,8.1306,8.1452,8.1547,8.1981,8.2498,8.3171,8.3171,8.3709,8.4904,8.5594,8.629,8.6951,8.8481,8.9668,9.4249,9.7762,10.068,10.12,9.9529,9.7362,0.0,0.0,9.0008,8.9128,8.8246,8.8393,9.0887,9.0519,9.0551,9.2681,9.2789,9.3894,9.7652,9.8532,10.011,10.3476,0.0,10.6706,0.0,10.9276,11.0304,10.9973,10.8688,10.7881,10.7587,10.678,10.6082,10.5495,10.4504,10.3623,10.3027,10.1799,10.1204,10.1121,10.0287,9.9765,9.951,9.8748,9.8178,9.7838,9.7492,9.7027,9.6238,9.5358,9.4515,9.3812,9.2637,9.2315,9.233,9.1443,9.1087,9.098,9.0232,8.9698,8.927,8.8911,8.8749,8.8608,8.81,8.7638,8.7299,8.7436,8.7522,8.7429,8.6764,8.6798,8.7277,8.7998,8.8486,8.8853,8.9199,8.9705,9.0212,9.0791,9.0588,9.0352,9.0252,9.0081,8.9739,8.9067,8.8642,8.8303,8.7799,8.7347,8.6964,8.6593,8.5875,8.4755,8.3326,8.3213,8.3162,8.3059,8.3162,8.3151,8.3073,8.3349,8.3758,8.4286,8.4513,8.528,8.6632,8.6905,8.7414,8.82,8.9266,9.046,9.5516,9.8819,10.1131,10.0939,9.9568,9.7633,0.0,0.0,8.9862,8.8252,8.8545,8.9313,9.0154,9.0301,9.0704,9.191,9.2684,9.4301,9.7762,9.9411,10.12,10.3586,10.5385,10.6706,10.7477,10.979,11.0891,11.0083,10.9202,10.8395,10.7587,10.678,10.6376,10.6376,10.4798,10.3834,10.3583,10.1973,10.1121,10.0797,10.0578,10.0092,9.9293,9.9071,9.8462,9.7404,9.7404,9.7138,9.6649,9.5825,9.4947,9.3888,9.3103,9.2782,9.2782,9.2782,9.2565,9.2382,9.2347,9.1573,9.0364,8.9624,8.919,8.8955,8.8333,8.8542,8.8863,8.8863,8.9075,8.9106,8.8541,8.8577,8.8644,8.8013,8.8649,8.9307,8.9184,9.0331,9.1486,9.1486,9.1776,9.1842,9.1043,9.0701,9.0335,8.9528,8.9698,8.9773,8.9246,8.9324,8.8913,8.7449,8.7263,8.7042,8.6513,8.6438,8.6438,8.6438,8.6438,8.6154,8.5484,8.6237,8.6378,8.5885,8.6679,8.7182,8.7402,8.834,8.8767,8.8805,9.0654,9.2467,9.3344,9.6535,9.8814,9.819,9.6594,9.4677,9.2903,9.0813,8.9203,8.8837,8.8543,8.9018,9.0777,9.074,9.118,9.3272,9.3823,9.485,9.7607,9.9811,10.1788,10.3696,10.678,10.9202,0.0,0.0,11.1111,11.0817,10.9606,10.8565,10.8222,10.6853,10.6169,10.6413,10.518,10.4509,10.4387,10.2475,10.1792,10.2215,10.0863,10.036,10.0452,9.9857,9.9281,9.8758,9.8611,9.8139,9.7509,9.7037,9.6143,9.5018,9.4622,9.4193,9.3676,9.287,9.2474,9.2311,9.1409,9.0811,9.047,9.007,8.9904,8.9774,8.9623,8.9152,8.8757,8.911,8.8805,8.8621,8.9078,8.9008,8.8886,8.9256,8.9798,9.0284,9.0419,9.1042,9.1666,9.2207,9.2175,9.2024,9.1769,9.158,9.1143,9.0335,9.0438,9.0352,8.981,8.9442,8.9138,8.8617,8.8861,8.8234,8.6368,8.6219,8.6219,8.6219,8.6294,8.6292,8.6192,8.6523,8.6628,8.6568,8.6833,8.7298,8.809,8.8934,9.0017,9.1349,9.2632,9.3525,0.0,9.5061,9.7566,9.6649,9.5277,0.0,0.0,0.0,8.902,8.9496,8.8983,8.9165,9.1106,9.118,9.1473,9.3088,9.3896,9.5144,0.0,0.0,0.0,10.4981,0.0,0.0,0.0,11.1295,11.1515,11.1221,10.9886,10.9028,10.8888,10.719,10.6386,10.6523,10.5289,10.4618,10.4495,10.303,10.2366,10.2749,10.1519,10.1014,10.0977,10.0705,10.0089,9.9272,9.9466,9.8991,0.0,9.7635,9.6921,9.6143,9.5201,9.4759,9.4281,9.3129,9.2659,9.253,9.1658,9.1326,9.116,9.0783,9.0441,9.0195,9.0291,8.9659,8.9128,8.9485,8.9091,8.8678,8.9314,8.9485,8.9654,9.0156,9.0815,9.1305,9.139,9.1919,9.2364,9.2868,9.2962,9.2772,9.2445,9.2268,9.184,9.096,9.1141,9.1131,9.0426,9.0173,8.9924,8.9591,8.9845,8.9435,8.7906,8.7913,8.7823,8.7524,8.7545,8.736,8.6892,8.7264,8.7614,8.7735,8.8074,8.8744,8.9716,9.0259,9.1357,9.2934,9.3552,9.4068,0.0,0.0,0.0,0.0,0.0,0.0,0.0,0.0,0.0,0.0,0.0,8.9679,9.1289,9.1545,9.1656,0.0,0.0,0.0,0.0,10.0283,0.0,0.0,10.9202,0.0,11.0193,11.1478,11.2102,11.1295,11.0148,10.962,10.962,10.7889,10.6924,10.6761,10.5267,10.4377,10.4199,10.3436,10.2858,10.2787,10.2424,10.1771,10.123,10.1601,10.078,9.9229,9.9909,9.9576,9.8634,9.7597,9.7277,9.7255,9.5319,9.4716,9.4669,9.3699,9.313,9.2973,9.2903,9.2708,9.2372,9.1635,9.0897,9.0371,9.0622,9.0211,8.9816,9.0089,8.9858,8.9499,8.9463,9.0172,9.0882,9.0882,9.1628,9.2252,9.2064,9.2812,9.3525,9.3596,9.3903,9.3986,9.3225,9.2873,9.2457,9.1389,9.1804,9.1907,9.1097,9.1228,9.1135,9.0321,9.0444,9.0509,9.0509,9.0789,9.0639,8.9892,8.9817,8.9227,8.7829,8.8541,8.9123,8.9361,9.019,9.1035,9.1935,9.2148,9.2669,9.3694,9.3694,9.4212,0.0,0.0,0.0,9.0997,9.0704,9.0411,0.0,0.0,0.0,0.0,0.0,9.0446,9.1903,9.1836,0.0,0.0,0.0,0.0,9.9402,0.0,0.0,0.0,11.1184,11.1808,11.1808,11.2212,11.2286,11.2102,11.064,10.9493,10.9386,10.8255,10.7398,10.7212,10.6232,10.547,10.4999,10.4019,10.3856,10.4308,10.3058,10.2513,10.2501,10.1974,10.0972,9.973,9.9908,9.9322,9.838,9.8105,9.7546,9.688,9.6393,9.5799,9.5162,9.4226,9.3749,9.3678,9.2884,9.2575,9.2477,9.2267,9.2091,9.1951,9.2048,9.1256,9.0445,9.0905,9.0889,9.0837,9.098,9.1388,9.1619,9.1443,9.1813,9.2396,9.2568,9.3207,9.3877,9.4316,9.4434,9.4296,9.395,9.3631,9.3144,9.2264,9.2347,9.2354,9.1692,9.1281,9.0979,9.0758,9.0895,9.1031,9.1031,9.0806,9.0552,9.0366,9.0491,9.0428,9.0199,9.0467,9.0755,9.0963,9.1263,9.1808,9.2692,9.2965,9.3524,9.4372,9.4476,9.5085,8.4313,8.7132,8.9491,8.9895,8.9896,8.9824,0.0,0.0,0.0,0.0,0.0,0.0,9.1874,0.0,0.0,0.0,0.0,0.0,0.0,0.0,0.0,11.1992,11.2983,11.3387,0.0,11.2983,11.2673,11.2253,11.0827,10.9897,10.9656,10.8633,10.8046,10.7894,10.7097,10.6357,10.5688,10.4726,10.4489,10.4924,10.3999,10.3287,10.2981,10.2814,10.1568,9.9724,10.008,9.9448,9.8086,9.7987,9.764,9.7215,9.6528,9.614,9.578,9.4743,9.4362,9.4256,9.3285,9.2694,9.2315,9.2315,9.2315,9.2315,9.2315,9.188,9.1432,9.1458,9.1382,9.128,9.1461,9.189,9.2353,9.2175,9.289,9.3659,9.3908,9.4249,9.4747,9.5179,9.495,9.4638,9.4276,9.4087,9.3747,9.3066,9.3111,9.3194,9.2978,9.2353,9.2018,9.2018,9.1827,9.1745,9.1745,9.1609,9.1334,9.0963,9.112,9.1162,9.0998,9.1059,9.1387,9.2033,9.2504,9.3031,9.3502,9.367,9.4232,9.5042,9.5242,9.5802,8.3475,8.6623,8.9344,8.9782,9.0041,9.0225,0.0,0.0,0.0,0.0,0.0,0.0,0.0,0.0,0.0,0.0,0.0,0.0,10.5998,10.8835,11.1001,11.335,11.4305,0.0,11.3791,11.3607,11.3223,11.2291,11.1174,11.0384,11.0087,10.9257,10.8799,10.869,10.793,10.7074,10.6387,10.5482,10.4976,10.5105,10.4716,10.4072,10.3413,10.3625,10.2302,9.9882,10.0522,9.9683,9.7965,9.7764,9.7693,9.7617,9.6442,9.6196,9.6293,9.5317,9.497,9.4764,9.3957,9.3055,9.2329,9.2189,9.2154,9.2154,9.2255,9.2455,9.2512,9.2075,9.1776,9.1636,9.1636,9.2316,9.296,9.296,9.4102,9.5208,9.5208,9.5428,9.5737,9.5809,9.541,9.495,9.4446,9.4467,9.4423,9.3826,9.3874,9.4069,9.4149,9.3713,9.3381,9.3271,9.2899,9.2672,9.2524,9.2774,9.269,9.2023,9.1928,9.1779,9.1497,9.1558,9.2114,9.3214,9.3986,9.4345,9.431,9.4518,9.4914,9.5611,9.5928,9.6512,8.564,8.761,8.8096,8.688,8.7545,8.8573,0.0,0.0,0.0,0.0,0.0,0.0,0.0,0.0,0.0,0.0,0.0,0.0,0.0,0.0,0.0,11.3114,0.0,11.4782,11.4598,11.3792,11.3224,11.2986,11.1956,11.0945,11.0123,11.0345,11.0211,10.9487,10.8534,10.787,10.7859,10.6342,10.5714,10.5902,10.4779,10.4455,10.4995,10.3894,10.2709,10.1411,10.135,10.0264,9.8508,9.8267,9.7777,9.718,9.6764,9.6729,9.6831,9.6023,9.564,9.5226,9.4216,9.3764,9.3486,9.2962,9.2753,9.2718,9.2923,9.3024,9.3125,9.3285,9.3079,9.3049,9.3455,9.371,9.3817,9.3817,9.453,9.5208,9.5208,9.5893,9.6327,9.5737,9.5701,9.5518,9.4986,9.4927,9.4844,9.4459,9.4431,9.4256,9.3801,9.3737,9.3523,9.2864,9.3565,9.3713,9.3052,9.3785,9.4224,9.4256,9.3344,9.3091,9.3844,9.4161,9.4758,9.5681,9.5915,9.5713,9.5059,9.589,9.5986,9.5479,9.6478,9.7382,8.3619,8.5677,8.6985,8.6654,8.8386,9.0041,0.0,0.0,0.0,0.0,0.0,0.0,0.0,0.0,0.0,0.0,0.0,0.0,0.0,0.0,11.2966,0.0,0.0,11.5351,11.5221,11.4433,11.3625,11.2905,11.235,11.1263,11.0006,11.0526,11.0501,10.9704,10.9051,10.8519,10.8123,10.7107,10.6495,10.6258,10.5272,10.4861,10.4924,10.3873,10.2685,10.1428,10.1011,9.9886,9.8165,9.7919,9.7359,9.666,9.6448,9.6554,9.659,9.624,9.5751,9.5262,9.4704,9.4181,9.3659,9.3312,9.3208,9.3208,9.3312,9.3623,9.3863,9.4132,9.3968,9.359,9.3451,9.3946,9.4453,9.4231,9.5285,9.6269,9.6269,9.6613,9.685,9.6772,9.6561,9.6312,9.6094,9.5838,9.5614,9.5591,9.5358,9.5122,9.4883,9.4604,9.428,9.4106,9.4073,9.3966,9.3786,9.4191,9.4667,9.4952,9.4629,9.4673,9.5073,9.5331,9.5645,9.6056,9.6181,9.6117,9.5742,9.6239,9.6584,9.6659,9.7328,9.8102,8.2436,8.4469,8.6517,0.0,0.0,0.0,0.0,0.0,0.0,0.0,0.0,0.0,0.0,0.0,0.0,0.0,0.0,0.0,0.0,0.0,11.5112,11.6084,11.6434,11.6304,11.5657,11.4977,11.3984,11.2558,11.257,11.1783,10.9777,11.061,11.0719,10.9704,10.9412,10.889,10.8313,10.7713,10.7217,10.6829,10.5804,10.5075,10.4701,10.3784,10.2627,10.1118,10.0763,9.9812,9.8265,9.7906,9.7345,9.6723,9.6441,9.6267,9.6201,9.6093,9.5746,9.5259,9.5152,9.4664,9.393,9.3757,9.3688,9.3688,9.3794,9.4112,9.4564,9.4837,9.4619,9.4186,9.3608,9.4242,9.4858,9.4666,9.5826,9.7013,9.7013,9.7155,9.7455,9.7658,9.7216,9.6936,9.6868,9.6634,9.6502,9.6675,9.6388,9.6203,9.6149,9.5684,9.5327,9.534,9.4797,9.4585,9.485,9.4963,9.5331,9.5873,9.5632,9.5649,9.5901,9.6033,9.6238,9.6425,9.6617,9.6606,9.6418,9.6792,9.7154,9.7642,9.8153,9.8685,8.5238,8.636,8.6999,8.9196,0.0,0.0,0.0,0.0,0.0,0.0,0.0,0.0,0.0,0.0,0.0,0.0,0.0,11.434,11.4897,0.0,11.7698,11.6754,11.7567,11.7514,11.5767,11.5394,11.4486,11.2595,11.3017,11.2167,10.9813,11.1189,11.1298,10.9704,10.9178,10.8878,10.877,10.816,10.7663,10.762,10.595,10.5387,10.5593,10.3977,10.2667,10.1606,10.1458,10.064,9.9542,9.925,9.8799,9.8254,9.7265,9.6646,9.6201,9.5912,9.5769,9.5735,9.5406,9.5372,9.5124,9.4399,9.4192,9.4301,9.4518,9.4626,9.484,9.5297,9.5366,9.5363,9.5356,9.541,9.5445,9.5445,9.6083,9.672,9.672,9.7483,9.7998,9.7252,9.7266,9.7265,9.6828,9.6868,9.7066,9.7332,9.7471,9.7354,9.6678,9.6702,9.6458,9.5777,9.5991,9.627,9.6539,9.673,9.7211,9.8171,9.628,9.5563,9.648,9.672,9.716,9.7905,9.8142,9.7834,9.7012,9.799,9.8092,9.7417,9.8539,9.9035,8.2416,8.4397,8.6338,0.0,0.0,0.0,0.0,0.0,0.0,0.0,0.0,0.0,0.0,0.0,0.0,0.0,11.3974,11.5474,11.641,11.7625,11.8232,11.7845,11.7661,11.7274,11.6307,11.5627,11.4571,11.3126,11.3544,11.3,11.0574,11.1245,11.1137,10.9448,10.8878,10.8747,10.8747,10.7985,10.7346,10.6945,10.5712,10.4862,10.4577,10.302,10.1883,10.1129,10.0864,10.004,9.9087,9.8489,9.772,9.6814,9.5978,9.5495,9.5212,9.5547,9.564,9.564,9.5526,9.5526,9.5389,9.4669,9.4429,9.4507,9.4696,9.4951,9.528,9.5783,9.61,9.6065,9.5277,9.5512,9.5964,9.5764,9.6464,9.7264,9.7264,9.7711,9.8015,9.7927,9.805,9.8135,9.7944,9.7852,9.7767,9.7858,9.7817,9.768,9.739,9.7403,9.738,9.7221,9.7633,9.7875,9.7991,9.819,9.8532,9.9205,9.765,9.7088,9.8115,9.7738,9.7695,9.7992,9.8128,9.8076,9.7909,9.8402,9.8792,9.9105,9.9629,10.0202,8.1047,8.3037,0.0,0.0,0.0,0.0,0.0,0.0,0.0,0.0,0.0,0.0,0.0,0.0,0.0,0.0,11.5275,11.6907,11.7828,11.8709,11.9003,11.8489,11.8065,11.7399,11.615,11.5688,11.491,11.3362,11.3696,11.3118,11.091,11.0974,11.0621,10.9214,10.8676,10.8542,10.8439,10.7773,10.7097,10.6066,10.5037,10.4217,10.3607,10.2369,10.1408,10.0752,10.0412,9.9757,9.9009,9.8377,9.7322,9.6212,9.5458,9.507,9.491,9.5422,9.5764,9.5935,9.5695,9.5593,9.549,9.4739,9.45,9.45,9.4693,9.5031,9.5365,9.5878,9.6342,9.638,9.5888,9.616,9.6473,9.6269,9.6793,9.7455,9.7737,9.7975,9.8177,9.8477,9.8985,9.9251,9.9098,9.8978,9.8862,9.8862,9.8578,9.8266,9.81,9.8064,9.8042,9.8082,9.8682,9.8965,9.8826,9.895,9.9375,9.9979,9.8873,9.8462,9.9081,9.882,9.8523,9.8263,9.8693,9.8978,9.9113,9.9273,9.9729,10.0419,10.0644,10.1007,8.2072,0.0,0.0,0.0,0.0,0.0,0.0,0.0,0.0,0.0,0.0,0.0,0.0,0.0,0.0,0.0,11.6801,11.8709,11.948,12.0288,12.0288,11.8599,11.8923,11.8194,11.5457,11.5736,11.5294,11.3471,11.3125,11.2201,11.0613,11.0166,10.9705,10.8914,10.8573,10.8439,10.8091,10.7524,10.6481,10.5152,10.4044,10.3239,10.2905,10.2351,10.1447,10.0447,9.9999,9.9685,9.9485,9.9129,9.8087,9.6618,9.59,9.5627,9.5627,9.5627,9.6105,9.6652,9.5866,9.5627,9.549,9.4739,9.45,9.45,9.45,9.4693,9.4997,9.5585,9.5986,9.6482,9.7497,9.7465,9.7112,9.7147,9.7147,9.7357,9.813,9.8514,9.8823,9.9026,9.9896,10.0444,9.9928,10.0076,10.0196,10.0196,9.9739,9.9225,9.865,9.8631,9.8519,9.8154,9.8989,9.9422,9.8863,9.8986,9.9554,10.0524,10.0127,9.9501,9.9155,9.9898,9.9935,9.9118,10.0108,10.0587,10.0587,10.0852,10.1088,10.1088,10.1319,10.142,7.9904,0.0,0.0,0.0,0.0,0.0,0.0,0.0,0.0,0.0,0.0,0.0,0.0,0.0,0.0,0.0,11.7682,11.948,12.0398,12.0059,11.9596,11.9083,11.8012,11.688,11.5856,11.5529,11.4894,11.4195,11.3451,11.2381,11.1371,11.0424,10.9398,10.8573,10.8231,10.7809,10.7452,10.6905,10.5755,10.4044,10.3311,10.2595,10.1943,10.0897,10.0206,9.9719,9.945,9.9095,9.8701,9.819,9.7252,9.6333,9.6095,9.5909,9.5739,9.6041,9.6257,9.6325,9.5339,9.5103,9.4867,9.3858,9.3571,9.3537,9.4005,9.4351,9.4693,9.54,9.5695,9.6055,9.6479,9.7007,9.739,9.7914,9.8303,9.8479,9.8724,9.9183,9.946,9.9564,9.9759,9.9776,9.9661,9.9516,9.9443,9.9443,9.938,9.9405,9.9461,9.9425,9.9442,9.9578,10.0069,10.036,10.0188,10.0554,10.0986,10.1407,10.1379,10.1128,10.0389,10.0312,10.0087,9.972,10.0195,10.048,10.0718,10.0785,10.1284,10.2182,10.2209,10.2509,8.0698,0.0,0.0,0.0,0.0,0.0,0.0,0.0,0.0,0.0,0.0,0.0,0.0,0.0,0.0,11.6287,11.8195,11.9884,12.0802,12.0022,11.9206,11.8877,11.7415,11.6209,11.5684,11.5076,11.4586,11.442,11.3103,11.1997,11.139,10.99,10.88,10.8231,10.7738,10.7343,10.6834,10.6275,10.5085,10.2977,10.2976,10.2036,10.0456,10.0008,9.9568,9.9248,9.9009,9.8614,9.8181,9.7556,9.6858,9.6417,9.5992,9.5939,9.6034,9.6102,9.6347,9.6482,9.5619,9.5058,9.4623,9.3662,9.3212,9.3216,9.3537,9.4005,9.4614,9.4919,9.5365,9.5942,9.6641,9.7236,9.7762,9.801,9.8433,9.8964,9.9386,9.9637,9.9956,10.0132,10.0264,10.0149,10.0451,9.9822,9.9373,9.979,9.9824,9.9652,9.9641,10.0272,10.0707,10.0722,10.1306,10.1782,10.1782,10.2202,10.2419,10.2169,10.2333,10.2116,10.1228,10.113,10.087,10.05,10.1015,10.1448,10.1794,10.2198,10.2811,10.3598,10.3899,10.4312,0.0,0.0,0.0,0.0,0.0,0.0,0.0,0.0,0.0,0.0,0.0,0.0,0.0,11.54,11.6635,11.7094,11.8489,11.9774,12.0691,11.9742,11.884,11.8035,11.6781,11.572,11.4921,11.4586,11.442,11.4077,11.2254,11.1148,11.0907,10.9088,10.7844,10.7738,10.7343,10.6834,10.6345,10.5854,10.4507,10.2332,10.2833,10.1836,9.9112,9.9351,9.9316,9.8889,9.8614,9.8249,9.7935,9.7258,9.6988,9.692,9.5878,9.589,9.6371,9.6121,9.6431,9.69,9.6037,9.5335,9.4666,9.393,9.3406,9.3077,9.3264,9.3824,9.4488,9.4522,9.5203,9.6104,9.7262,9.7789,9.8021,9.7658,9.804,9.8915,9.9942,10.0225,10.0443,10.1047,10.1047,10.1256,10.1563,10.0522,9.991,10.0954,10.0613,10.0147,9.9709,10.1082,10.2007,10.1628,10.2506,10.3204,10.3204,10.3594,10.3586,10.2889,10.2978,10.2727,10.1788,10.2083,10.213,10.1352,10.2278,10.2978,10.3512,10.4397,10.5013,10.5184,10.5897,10.6198,0.0,0.0,0.0,0.0,0.0,0.0,0.0,0.0,0.0,0.0,0.0,0.0,11.4074,11.5661,11.715,11.7204,11.8012,11.8893,11.9774,11.8803,11.7707,11.6904,11.6193,11.5492,11.4731,11.4246,11.4216,11.4077,11.2222,11.0835,11.0482,10.877,10.7667,10.7308,10.6794,10.631,10.5934,10.5119,10.4039,10.2695,10.2658,10.1435,9.9499,9.9499,9.8914,9.7879,9.8003,9.7879,9.7597,9.771,9.7643,9.7361,9.7068,9.6976,9.6766,9.6511,9.6483,9.6517,9.5399,9.5033,9.4801,9.4323,9.3682,9.3429,9.4523,9.4737,9.4722,9.5569,9.6126,9.6658,9.7116,9.7746,9.8274,9.8445,9.9225,10.004,10.0586,10.0954,10.1104,10.1465,10.1329,10.0976,10.1256,10.0681,10.0515,10.0855,10.0882,10.0863,10.1161,10.1543,10.2003,10.2352,10.2906,10.3204,10.3204,10.3594,10.3806,10.3696,10.375,10.3794,10.3366,10.2633,10.2421,10.2902,10.3277,10.3985,10.5018,10.5167,10.5422,10.5562,10.5674,10.5787,0.0,0.0,0.0,0.0,0.0,0.0,0.0,0.0,0.0,0.0,11.4815,11.5369,11.5282,11.6836,11.7775,11.7278,11.8526,11.948,11.9076,11.8255,11.7452,11.6588,11.5856,11.5057,11.4594,11.4318,11.3933,11.3366,11.1762,11.0481,10.9661,10.8414,10.7343,10.6759,10.631,10.5738,10.5084,10.4522,10.357,10.2358,10.2234,10.1111,9.9119,9.8747,9.8126,9.7254,9.7505,9.738,9.7254,9.7505,9.738,9.7254,9.7094,9.6873,9.6745,9.6359,9.6099,9.5902,9.5374,9.4913,9.4583,9.4445,9.407,9.3915,9.4814,9.5103,9.5229,9.5875,9.6367,9.6823,9.7199,9.7692,9.8304,9.8915,9.9918,10.0713,10.0561,10.1108,10.1618,10.1564,10.1079,10.0941,10.1435,10.1287,10.112,10.0962,10.1311,10.1614,10.1772,10.2478,10.3049,10.3276,10.4341,10.4933,10.4618,10.5216,10.5311,10.4504,10.4587,10.4366,10.388,10.3396,10.3412,10.4007,10.4239,10.4727,10.5505,10.5914,10.6173,10.6314,10.6725,10.6912,0.0,0.0,9.3722,10.072,0.0,0.0,0.0,0.0,11.5018,11.5018,11.5475,11.6073,11.6564,11.7552,11.8143,11.7278,11.8819,11.959,11.8416,11.7948,11.7427,11.6369,11.5456,11.4867,11.4558,11.4108,11.3366,11.2546,11.1157,11.0053,10.884,10.7877,10.7054,10.6057,10.5644,10.4959,10.3988,10.357,10.2768,10.1529,10.1427,10.0337,9.8455,9.7716,9.7127,9.6873,9.7,9.7,9.6873,9.7,9.7,9.6873,9.6617,9.6488,9.6229,9.5968,9.5706,9.5276,9.5408,9.5046,9.4552,9.4683,9.4577,9.4523,9.5034,9.543,9.5852,9.5987,9.6417,9.6912,9.7439,9.7695,9.8071,9.9195,10.0152,10.0883,10.0471,10.1125,10.1595,10.1338,10.1147,10.1046,10.1964,10.2134,10.1903,10.156,10.1989,10.24,10.2383,10.3593,10.4491,10.469,10.6052,10.6904,10.651,10.7318,10.7183,10.5825,10.5715,10.5385,10.4577,10.4971,10.5214,10.5189,10.5127,10.5357,10.5879,10.6474,10.6883,10.7139,10.7811,10.8147,0.0,0.0,9.7264,0.0,10.621,10.9887,0.0,0.0,11.5018,0.0,11.5799,11.6564,11.6712,11.6504,11.6544,11.7094,11.6911,11.6801,11.7314,11.6937,11.626,11.5494,11.5539,11.5246,11.4216,11.3258,11.2546,11.2123,11.0196,10.8911,10.8513,10.7182,10.5994,10.4954,10.4029,10.3279,10.247,10.1626,10.0941,10.0429,9.9188,9.8273,9.7684,9.695,9.6617,9.6617,9.6873,9.6873,9.6617,9.6873,9.6873,9.6617,9.6488,9.6066,9.5541,9.5541,9.5276,9.5009,9.5276,9.5343,9.5277,9.5705,9.5598,9.5483,9.6405,9.6515,9.6395,9.7125,9.7327,9.7451,9.7834,9.799,9.8147,9.8855,9.9949,10.0614,10.0436,10.0481,10.0709,10.1199,10.1606,10.1964,10.2492,10.2698,10.2899,10.313,10.3166,10.3616,10.4754,10.5103,10.5681,10.7087,10.7581,10.7889,10.812,10.8368,10.8505,10.8321,10.8321,10.7918,10.7073,10.8119,10.8439,10.77,10.6534,10.6356,10.7254,10.7365,10.7515,10.7515,10.759,10.7701,8.5429,9.2231,9.8687,0.0,10.7103,11.0114,10.9957,11.2598,11.5018,11.5018,11.5947,11.6712,11.6712,11.6815,11.6801,11.658,11.6984,11.7204,11.6617,11.6724,11.6366,11.5275,11.5299,11.4867,11.3602,11.2933,11.187,11.0588,10.9376,10.8265,10.7323,10.6599,10.5829,10.4668,10.3709,10.2919,10.1968,10.0941,9.9965,9.9053,9.8239,9.7517,9.6954,9.6395,9.6229,9.6262,9.6392,9.6392,9.6262,9.6392,9.6229,9.5935,9.5935,9.5541,9.5142,9.5142,9.4907,9.4637,9.4772,9.4907,9.5142,9.5309,9.5475,9.583,9.6517,9.6639,9.6565,9.7027,9.7556,9.7892,9.8018,9.8448,9.9129,9.9503,10.0146,10.0702,10.1061,10.1428,10.1775,10.2526,10.2659,10.3022,10.3836,10.3372,10.3219,10.4023,10.4094,10.4402,10.5257,10.5786,10.6535,10.7671,10.8364,10.8709,10.8625,10.9079,10.9276,10.8799,10.8799,10.8615,10.8285,10.8919,10.9086,10.8882,10.8501,10.8625,10.9,10.9,10.9,10.9,10.9,10.9,0.0,0.0,9.7465,10.272,10.6622,10.9297,0.0,0.0,11.4795,11.5018,11.6031,11.6923,11.68,11.7015,11.704,11.6158,11.715,11.7388,11.6177,11.6267,11.619,11.5335,11.4705,11.3987,11.2922,11.2078,11.0978,10.9233,10.8483,10.7616,10.6197,10.5934,10.532,10.397,10.3332,10.2501,10.1461,10.0177,9.8892,9.7675,9.7321,9.6891,9.6229,9.5968,9.587,9.5739,9.587,9.6001,9.587,9.587,9.5673,9.5539,9.5374,9.514,9.5001,9.4838,9.4502,9.4262,9.4398,9.4534,9.4772,9.4874,9.5309,9.5837,9.6229,9.6359,9.6521,9.6979,9.7413,9.7784,9.8114,9.8808,9.9469,9.9982,10.0328,10.0861,10.1527,10.2243,10.2897,10.339,10.3572,10.4047,10.4827,10.4221,10.3998,10.4945,10.4981,10.5218,10.5966,10.6629,10.7449,10.851,10.9313,10.9603,10.9423,10.9973,11.001,10.9423,10.9606,10.9496,10.9092,10.9754,10.9887,10.9732,11.0323,11.0481,11.0114,10.9999,10.9999,11.0114,10.9999,10.9999,0.0,8.8735,9.2778,9.9002,10.3613,10.7217,10.9594,11.2083,11.4089,11.4832,11.6318,11.7312,11.7095,11.6447,11.6085,11.6267,11.6213,11.6103,11.5993,11.5221,11.4685,11.5056,11.354,11.2294,11.2506,11.0728,10.9269,10.884,10.7328,10.6267,10.5784,10.5001,10.3936,10.2849,10.2234,10.1359,10.0303,9.8669,9.7417,9.6555,9.6296,9.587,9.5408,9.5408,9.5276,9.5041,9.5739,9.5706,9.5408,9.5408,9.5703,9.589,9.5169,9.5165,9.5278,9.4659,9.4125,9.3817,9.4262,9.4398,9.4534,9.4772,9.5142,9.5574,9.587,9.5935,9.6165,9.719,9.716,9.6928,9.8321,9.8388,9.8421,9.9469,9.9982,10.0453,10.144,10.2361,10.3092,10.3092,10.4033,10.4827,10.4898,10.525,10.5731,10.6035,10.5999,10.6522,10.7808,10.8208,10.8917,11.0077,11.0463,11.0807,11.1111,11.1111,11.1111,11.1111,11.1808,11.1515,10.9973,11.1631,11.1877,11.0692,11.1605,11.1361,11.0114,10.9767,10.992,11.0114,10.9767,10.992,8.5321,8.922,9.3114,9.8853,10.3019,10.6288,10.8814,11.16,11.4015,11.4795,11.6236,11.7228,11.7265,11.701,11.6661,11.6624,11.6357,11.634,11.634,11.5607,11.5014,11.4473,11.3478,11.2266,11.0757,10.9837,10.8699,10.7328,10.6564,10.5854,10.5035,10.4643,10.3741,10.2665,10.197,10.065,9.8507,9.7254,9.6364,9.5804,9.5441,9.5175,9.5009,9.5009,9.5009,9.4874,9.5175,9.5175,9.5009,9.5009,9.5333,9.5546,9.5285,9.5335,9.5393,9.5447,9.521,9.4787,9.4928,9.4918,9.4807,9.4742,9.4828,9.4707,9.5142,9.5276,9.5309,9.5738,9.6361,9.7015,9.755,9.858,9.9783,10.0879,10.146,10.2131,10.2665,10.3763,10.4589,10.4589,10.5158,10.5818,10.6314,10.6135,10.6184,10.6823,10.696,10.7431,10.8281,10.8848,10.9811,11.1303,11.1468,11.1906,11.2726,11.2689,11.2689,11.2689,11.2983,11.2873,11.2286,11.2889,11.3227,11.3019,11.3399,11.2864,11.16,11.1521,11.1521,11.16,11.1521,11.1521,8.4608,8.8143,9.192,9.7732,10.0972,10.3984,10.837,11.1125,11.3171,11.4765,11.6318,11.7312,11.7433,11.7265,11.7058,11.6923,11.6573,11.6283,11.5989,11.524,11.4539,11.3611,11.2582,11.1334,10.9725,10.8698,10.7627,10.6345,10.5759,10.4994,10.428,10.3879,10.3257,10.2142,10.114,9.9809,9.7856,9.673,9.5805,9.5276,9.5009,9.4907,9.4772,9.4772,9.4637,9.4502,9.473,9.4964,9.5132,9.5132,9.5278,9.5706,9.5619,9.5522,9.5564,9.5768,9.5561,9.5275,9.5275,9.4935,9.4465,9.4433,9.4089,9.389,9.4197,9.4359,9.462,9.5122,9.5929,9.6766,9.7447,9.8894,10.0444,10.132,10.2108,10.2947,10.3394,10.4436,10.5389,10.5389,10.5854,10.6597,10.7093,10.7059,10.7181,10.8071,10.8231,10.8565,10.9728,11.0151,11.0873,11.2272,11.2528,11.2803,11.3497,11.357,11.357,11.357,11.3901,11.3901,11.357,11.3901,11.4081,11.4175,11.4225,11.3843,11.3103,11.2806,11.2584,11.2287,11.2169,11.2213,0.0,0.0,0.0,9.5185,9.742,10.0177,10.8299,11.0387,11.1394,11.4595,11.6495,11.7494,11.7359,11.7433,11.7312,11.7058,11.6749,11.6099,11.5289,11.3957,11.302,11.2377,11.0584,10.9339,10.9231,10.7024,10.5802,10.624,10.4425,10.3522,10.381,10.2879,10.1944,10.1286,10.0252,9.9253,9.8155,9.6992,9.5865,9.4907,9.4874,9.4637,9.4398,9.4398,9.4125,9.3882,9.4594,9.5058,9.5473,9.5473,9.5868,9.6352,9.6104,9.598,9.577,9.5564,9.5163,9.4874,9.4874,9.4394,9.3818,9.3818,9.3338,9.2762,9.3153,9.3494,9.4058,9.5413,9.5837,9.6254,9.8152,9.9479,10.0275,10.0683,10.1584,10.2529,10.336,10.447,10.5389,10.5389,10.6423,10.7199,10.7199,10.795,10.8896,10.9921,10.9655,11.0088,11.2171,11.2154,11.2086,11.3096,11.3517,11.3607,11.3681,11.3681,11.3681,11.3681,11.4415,11.4488,11.3681,11.4415,11.4579,11.4037,11.4,11.4088,11.4311,11.3499,11.2686,11.1985,11.1656,11.1789,8.2969,0.0,0.0,0.0,0.0,0.0,10.2971,10.5579,10.8112,11.2348,11.4096,11.5397,11.7099,11.7433,11.7312,11.7058,11.6282,11.5267,11.4228,11.3444,11.2482,11.1421,11.0332,10.9008,10.7417,10.6627,10.5776,10.4935,10.4397,10.3589,10.2472,10.0731,9.955,9.9153,9.8022,9.7157,9.6555,9.5595,9.4866,9.4534,9.4229,9.4092,9.3955,9.3955,9.4247,9.4594,9.4821,9.5328,9.6091,9.5857,9.6039,9.6416,9.6367,9.6287,9.6125,9.641,9.6199,9.5871,9.5871,9.5425,9.4851,9.4851,9.4374,9.3914,9.4202,9.4362,9.4554,9.5035,9.5436,9.6109,9.7865,9.8633,9.9306,10.0138,10.1253,10.2271,10.2913,10.4158,10.5119,10.5424,10.6423,10.7199,10.7199,10.8555,10.9783,11.0101,11.0793,11.1722,11.2569,11.2649,11.302,11.4159,11.4451,11.4708,11.5296,11.5296,11.5296,11.5296,11.5516,11.5589,11.5296,11.6103,11.6269,11.5694,11.6283,11.5989,11.4899,11.4299,11.3905,11.361,11.3103,11.2559,0.0,0.0,0.0,0.0,0.0,0.0,10.2515,10.4791,10.7104,11.2092,11.3841,11.4765,11.6207,11.643,11.6236,11.5492,11.4792,11.4199,11.3734,11.282,11.1541,10.9897,10.8957,10.777,10.5748,10.4877,10.4237,10.3474,10.2713,10.1542,10.0366,9.9183,9.8288,9.7751,9.6621,9.5819,9.5578,9.445,9.3955,9.3987,9.3679,9.3679,9.3817,9.3817,9.3905,9.4186,9.4476,9.4916,9.5436,9.5772,9.6111,9.6429,9.6575,9.639,9.6144,9.6294,9.6144,9.5723,9.5571,9.5098,9.4498,9.453,9.4056,9.3457,9.3754,9.3944,9.4197,9.4197,9.4969,9.6051,9.7236,9.8059,9.86,9.9724,10.0851,10.1716,10.2657,10.3844,10.4917,10.5541,10.6458,10.7414,10.7985,10.9158,11.0454,11.124,11.1788,11.257,11.3743,11.3619,11.388,11.5222,11.5296,11.5479,11.5993,11.5993,11.6103,11.6507,11.6507,11.669,11.6984,11.7498,11.7628,11.7169,11.7683,11.7279,11.5992,11.512,11.4434,11.4015,11.3672,11.3436,0.0,0.0,0.0,0.0,0.0,0.0,10.3811,10.5562,10.6871,11.1987,11.3812,11.4292,11.4387,11.4535,11.4112,11.2919,11.2553,11.2624,11.324,11.194,11.0223,10.8195,10.7074,10.5854,10.422,10.2707,10.1809,10.1746,9.9805,9.8395,9.789,9.7723,9.7286,9.667,9.5603,9.5002,9.4617,9.3691,9.3089,9.3293,9.3293,9.3433,9.3679,9.3679,9.3605,9.3422,9.4034,9.4104,9.4074,9.5354,9.5923,9.6199,9.6593,9.6294,9.5691,9.5539,9.5387,9.4959,9.465,9.4058,9.3527,9.3527,9.3153,9.2654,9.2501,9.306,9.3559,9.3621,9.4704,9.5969,9.6816,9.7589,9.8574,9.9536,10.0474,10.1421,10.2766,10.3871,10.485,10.5948,10.6823,10.7806,10.9162,10.9936,11.0958,11.267,11.281,11.3382,11.4983,11.4773,11.4909,11.592,11.5993,11.5993,11.6103,11.6103,11.6507,11.7314,11.7314,11.7718,11.8416,11.8489,11.8489,11.8416,11.8306,11.7902,11.7204,11.5882,11.4742,11.3681,11.3949,11.4,0.0,0.0,0.0,0.0,0.0,0.0,9.7647,9.9866,10.2562,10.6177,10.7627,10.8742,11.0709,11.1478,11.1428,11.0249,11.0281,11.0582,11.0974,10.9927,10.8678,10.7628,10.5597,10.3694,10.2093,10.1552,10.0539,9.8734,9.708,9.5926,9.5504,9.4743,9.417,9.3895,9.3766,9.3422,9.3173,9.2904,9.284,9.284,9.3153,9.3293,9.3433,9.3433,9.3723,9.4098,9.3976,9.425,9.5043,9.5297,9.5488,9.5531,9.5772,9.5691,9.5112,9.4804,9.465,9.465,9.4495,9.4401,9.4276,9.4276,9.4183,9.4089,9.3592,9.3841,9.4401,9.4963,9.5493,9.6332,9.7208,9.8435,9.9481,10.0359,10.1611,10.2856,10.4028,10.532,10.6597,10.7788,10.8098,10.8622,10.9946,11.1227,11.2321,11.3118,11.3888,11.4717,11.5453,11.5437,11.5495,11.603,11.5993,11.6287,11.6911,11.7021,11.7314,11.8122,11.8195,11.8195,11.8416,11.9003,11.9076,11.8416,11.7792,11.7388,11.7204,11.6342,11.546,11.4598,11.4832,11.4516,0.0,0.0,0.0,9.2479,0.0,0.0,0.0,9.9128,10.0485,10.4801,10.5098,10.5248,10.7101,10.7097,10.6904,10.7242,10.7257,10.7285,10.745,10.7509,10.7071,10.5802,10.3765,10.1886,10.0384,9.9297,9.7815,9.5945,9.4756,9.3893,9.336,9.2988,9.2636,9.2435,9.2647,9.2525,9.2414,9.2272,9.2272,9.2414,9.2557,9.284,9.2981,9.2981,9.3032,9.3178,9.3068,9.3386,9.3965,9.4282,9.4513,9.4743,9.5407,9.5387,9.5112,9.465,9.4183,9.3839,9.3681,9.3365,9.3207,9.3207,9.3207,9.3207,9.2888,9.3293,9.3792,9.4609,9.5237,9.5896,9.734,9.8393,9.9304,10.0491,10.179,10.3153,10.4301,10.5637,10.7151,10.8886,10.9446,11.0084,11.1302,11.2326,11.3234,11.4033,11.4826,11.5298,11.562,11.5771,11.5993,11.5993,11.6452,11.6856,11.7204,11.7608,11.8122,11.8893,11.9003,11.9187,11.959,11.9994,12.0104,11.97,11.8819,11.8416,11.8416,11.7608,11.658,11.5406,11.546,11.5294,0.0,0.0,0.0,0.0,0.0,9.4719,0.0,0.0,0.0,10.3278,10.2797,10.2018,10.3204,10.2314,10.1865,10.3389,10.3169,10.2875,10.307,10.3604,10.383,10.3152,10.1434,9.9757,9.8464,9.6057,9.4254,9.3389,9.2089,9.1204,9.1015,9.1321,9.1354,9.1252,9.1477,9.1682,9.1809,9.1551,9.1551,9.1809,9.1953,9.224,9.2557,9.2557,9.2414,9.2097,9.2112,9.2443,9.2847,9.3542,9.3938,9.4327,9.5167,9.5234,9.4804,9.4339,9.3681,9.3048,9.2568,9.2084,9.1789,9.1922,9.1789,9.1789,9.1952,9.2153,9.2772,9.3677,9.4523,9.5562,9.7122,9.8217,9.9113,10.0585,10.2074,10.331,10.4606,10.6082,10.767,10.9586,11.0803,11.1657,11.2654,11.3205,11.3861,11.5092,11.5444,11.5693,11.6117,11.6305,11.6377,11.6489,11.7187,11.7719,11.7831,11.8456,11.906,11.9905,11.9905,12.0236,12.0875,12.0912,12.0912,12.0912,11.9994,11.959,11.959,11.8783,11.7718,11.6507,11.6507,11.6397,0.0,0.0,0.0,0.0,9.6391,0.0,0.0,0.0,9.7393,9.7247,0.0,9.7949,9.8134,0.0,0.0,9.741,9.7268,9.726,9.755,9.6221,9.6211,9.8995,9.7569,9.6,9.5001,9.1211,8.957,9.124,8.8182,8.6971,8.8639,8.844,8.8787,8.9609,8.9734,9.0047,9.0525,9.0967,9.1146,9.1114,9.1809,9.2097,9.2097,9.2097,9.2097,9.2128,9.2361,9.2879,9.3542,9.4269,9.4694,9.5018,9.4773,9.4339,9.387,9.3048,9.2728,9.2568,9.2084,9.1759,9.1432,9.1759,9.1626,9.1463,9.1789,9.1687,9.1704,9.2772,9.4259,9.5555,9.6758,9.8662,10.0581,10.147,10.3049,10.4666,10.5918,10.7454,10.9054,11.0497,11.166,11.2805,11.369,11.4102,11.4858,11.6417,11.6023,11.619,11.7881,11.7095,11.6909,11.8309,11.8085,11.8559,11.9872,12.0093,12.0371,12.1033,12.1033,12.105,12.0875,12.0912,12.0912,12.0912,11.9994,11.959,11.959,11.8783,11.8306,11.8122,11.8122,11.7718,0.0,0.0,0.0,0.0,0.0,0.0,9.551,0.0,9.4736,0.0,0.0,0.0,0.0,0.0,0.0,0.0,9.2941,9.2549,9.1686,9.0757,9.1565,9.5296,9.3165,9.1091,9.0319,8.7742,8.6755,8.8529,8.5997,8.5105,8.6477,8.7105,8.7713,8.8162,8.8942,8.9503,8.9784,9.0338,9.082,9.0967,9.126,9.1551,9.1841,9.1841,9.1841,9.1872,9.231,9.2974,9.3669,9.4095,9.4484,9.465,9.4339,9.387,9.3365,9.3048,9.2407,9.1789,9.1269,9.0939,9.0502,9.089,9.0842,9.0764,9.129,9.1607,9.1925,9.306,9.4395,9.5974,9.7239,9.8815,10.0429,10.1663,10.3344,10.5073,10.6357,10.7858,10.9352,11.0804,11.2105,11.3378,11.4891,11.5403,11.5845,11.6695,11.7221,11.7591,11.7867,11.8085,11.819,11.8322,11.9017,11.9809,12.0369,12.0812,12.1127,12.1181,12.1124,12.0971,12.0912,12.1316,12.1572,12.1572,12.1683,12.1499,12.0985,12.0691,12.0288,11.9811,11.8893,11.8195,9.4263,0.0,0.0,0.0,0.0,0.0,0.0,0.0,0.0,0.0,0.0,0.0,0.0,0.0,8.9662,8.9915,0.0,8.849,8.6767,8.5548,8.6265,9.0192,8.8293,8.6578,8.6398,8.4277,8.3769,8.5619,8.3391,8.2678,8.4621,8.5595,8.6339,8.6711,8.8035,8.8718,8.8905,8.9737,9.0377,9.0673,9.082,9.0999,9.1438,9.1438,9.1438,9.1615,9.2353,9.3015,9.352,9.3982,9.4212,9.4339,9.387,9.3365,9.2888,9.2888,9.2246,9.1164,9.0608,9.0228,8.999,9.03,9.0334,9.0594,9.1066,9.1386,9.1819,9.284,9.4293,9.5625,9.6962,9.8524,10.0147,10.1663,10.3311,10.504,10.6528,10.7988,10.951,11.1039,11.2617,11.4056,11.5666,11.6442,11.6878,11.7603,11.8382,11.8879,11.8695,11.9165,11.9379,11.9054,12.0133,12.0763,12.0933,12.1473,12.1716,12.1274,12.1286,12.1205,12.1205,12.1976,12.238,12.238,12.3004,12.3004,12.238,12.238,12.2013,12.1205,11.9774,11.9003,0.0,0.0,0.0,9.5358,0.0,0.0,0.0,0.0,9.4087,0.0,0.0,0.0,0.0,0.0,9.0384,8.8456,8.6736,0.0,0.0,8.0088,7.9293,8.2853,8.3176,8.3302,8.3821,8.0523,7.975,8.3088,7.9496,7.9024,8.3274,8.3289,8.3782,8.5089,8.609,8.7063,8.7706,8.9138,8.981,8.9779,9.0228,9.0673,9.0967,9.0967,9.1292,9.1646,9.2561,9.3009,9.3134,9.4056,9.4308,9.387,9.3365,9.2728,9.1952,9.1952,9.1626,9.1164,9.0306,9.0049,9.0158,9.0458,9.0837,9.1184,9.1214,9.1214,9.1386,9.176,9.3062,9.4422,9.5428,9.7697,9.9958,10.0927,10.2867,10.5007,10.6528,10.8247,10.9914,11.1458,11.3411,11.5019,11.5948,11.6732,11.7811,11.9578,11.9486,11.9704,12.1329,12.0289,12.0096,12.1689,12.1383,12.1408,12.2225,12.23,12.2125,12.1587,12.1896,12.2086,12.2086,12.282,12.3298,12.3298,12.3298,12.3298,12.3298,12.3298,12.282,12.1976,12.1205,12.0398,9.8262,0.0,10.1502,9.7195,0.0,0.0,0.0,0.0,0.0,0.0,0.0,0.0,0.0,0.0,8.8026,8.5941,8.4131,8.1619,0.0,7.3874,7.2379,7.4554,7.6272,7.722,7.6932,7.6351,7.6732,7.8547,7.7802,7.8398,8.1209,8.243,8.3244,8.3793,8.5239,8.5876,8.5939,8.7824,8.8679,8.8798,8.9562,9.0228,9.0525,9.0525,9.0923,9.1573,9.23,9.2806,9.3306,9.3779,9.4027,9.387,9.3048,9.2407,9.1952,9.1626,9.0969,9.0365,8.9969,8.9843,8.9964,9.0251,9.0277,9.0542,9.059,9.0774,9.1073,9.2012,9.3501,9.5226,9.6403,9.817,10.0147,10.1575,10.3311,10.504,10.6798,10.8341,10.9844,11.1731,11.3737,11.5512,11.7135,11.8379,11.9468,11.9892,12.0627,12.1045,12.1045,12.1184,12.1433,12.1433,12.1742,12.2002,12.23,12.2732,12.28,12.24,12.2932,12.3125,12.2894,12.3701,12.4105,12.4105,12.4582,12.4582,12.4105,12.4105,12.3701,12.2894,12.2086,12.1279,9.9207,10.0914,10.1879,9.8517,9.7561,0.0,9.2881,0.0,0.0,0.0,0.0,0.0,0.0,0.0,8.7431,8.5019,8.2319,7.857,0.0,6.9664,6.8249,6.8403,7.088,7.2737,7.373,7.257,7.2819,7.5312,7.5068,7.6047,7.9011,8.0943,8.2168,8.25,8.4335,8.5241,8.5334,8.7185,8.8162,8.8528,8.9292,8.981,9.0228,9.0228,9.0477,9.1094,9.1598,9.2283,9.2815,9.3219,9.3184,9.3057,9.2476,9.1932,9.1293,9.1372,9.0788,9.0079,8.9872,8.9993,8.9925,9.0381,9.0222,9.0308,9.0528,9.0719,9.118,9.2332,9.3833,9.5217,9.6572,9.8357,10.0272,10.1663,10.3311,10.5148,10.7066,10.8631,11.0192,11.2347,11.4346,11.6362,11.7999,11.9669,12.0812,12.0684,12.1526,12.1852,12.1258,12.1879,12.2077,12.1594,12.2002,12.2374,12.2671,12.3053,12.3229,12.3176,12.3743,12.403,12.3701,12.4509,12.4876,12.4876,12.539,12.539,12.4876,12.4876,12.4509,12.3701,12.3188,12.238]},{"header":{"parameterUnit":"m.s-1","parameterCategory":1,"la1":30.6,"la2":29.2853,"lo1":-89.7004,"lo2":-87.6739,"dy":0.0162,"dx":0.0183,"nx":112,"ny":82,"refTime":"2023-03-13T12:00:00:Z","depth":0,"parameterNumber":3,"parameterNumberName":"V-component_of_WINDS"},"data":[0.0,0.0,0.0,0.0,0.0,0.0,0.0,0.0,0.0,0.0,0.0,0.0,0.0,0.0,0.0,0.0,0.0,0.0,0.0,0.0,0.0,0.0,0.0,0.0,0.0,0.0,0.0,0.0,0.0,0.0,0.0,0.0,0.0,0.0,0.0,0.0,0.0,0.0,0.0,0.0,0.0,0.0,0.0,0.0,0.0,0.0,0.0,0.0,0.0,0.0,0.0,0.0,0.0,0.0,0.0,0.0,0.0,0.0,0.0,0.0,0.0,0.0,0.0,0.0,0.0,0.0,0.0,0.0,0.0,0.0,0.0,0.0,0.0,0.0,0.0,0.0,0.0,0.0,0.0,0.0,0.0,0.0,0.0,0.0,0.0,0.0,0.0,0.0,0.0,0.0,0.0,0.2707,0.3793,0.2616,-0.1372,-0.5092,-0.9042,-1.313,0.0,0.0,0.0,0.0,0.0,0.0,0.0,0.0,0.0,0.0,0.0,0.0,0.0,0.0,0.0,0.0,0.0,0.0,0.0,0.0,0.0,0.0,0.0,0.0,0.0,0.0,0.0,0.0,0.0,0.0,0.0,0.0,0.0,0.0,0.0,0.0,0.0,0.0,0.0,0.0,0.0,0.0,0.0,0.0,0.0,0.0,0.0,0.0,0.0,0.0,0.0,0.0,0.0,0.0,0.0,0.0,0.0,0.0,0.0,0.0,0.0,0.0,0.0,0.0,0.0,0.0,0.0,0.0,0.0,0.0,0.0,0.0,0.0,0.0,0.0,0.0,0.0,0.0,0.0,0.0,0.0,0.0,0.0,0.0,0.0,0.0,0.0,0.0,0.0,0.0,0.0,0.0,0.0,0.0,0.0,0.0,0.0,0.0,0.0,0.0,0.0,0.0,0.0,0.0,-0.2875,-0.0411,-0.0544,-0.1692,-0.429,-0.9903,-1.4075,-1.57,0.0,0.0,0.0,0.0,0.0,0.0,0.0,0.0,0.0,0.0,0.0,0.0,0.0,0.0,0.0,0.0,0.0,0.0,0.0,0.0,0.0,0.0,0.0,0.0,0.0,0.0,0.0,0.0,0.0,0.0,0.0,0.0,0.0,0.0,0.0,0.0,0.0,0.0,0.0,0.0,0.0,0.0,0.0,0.0,0.0,0.0,0.0,0.0,0.0,0.0,0.0,0.0,0.0,0.0,0.0,0.0,0.0,0.0,0.0,0.0,0.0,0.0,0.0,0.0,0.0,0.0,0.0,0.0,0.0,0.0,0.0,0.0,0.0,0.0,0.0,0.0,0.0,0.0,0.0,0.0,0.0,0.0,0.0,0.0,0.0,0.0,0.0,0.0,0.0,0.0,0.0,0.0,0.0,0.0,0.0,0.0,0.0,0.0,0.0,0.0,0.0,0.0,0.0,-0.6263,-0.525,-0.3428,-0.471,-0.6144,-0.7437,-1.1527,-1.5133,-1.7411,-1.9078,0.0,0.0,0.0,0.0,0.0,0.0,0.0,0.0,0.0,0.0,0.0,0.0,0.0,0.0,0.0,0.0,0.0,0.0,0.0,0.0,0.0,0.0,0.0,0.0,0.0,0.0,0.0,0.0,0.0,0.0,0.0,0.0,0.0,0.0,0.0,0.0,0.0,0.0,0.0,0.0,0.0,0.0,0.0,0.0,0.0,0.0,0.0,0.0,0.0,0.0,0.0,0.0,0.0,0.0,0.0,0.0,0.0,0.0,0.0,0.0,0.0,0.0,0.0,0.0,0.0,0.0,0.0,0.0,0.0,0.0,0.0,0.0,0.0,0.0,0.0,0.0,0.0,0.0,0.0,0.0,0.0,0.0,0.0,0.0,0.0,0.0,0.0,0.0,0.0,0.0,0.0,0.0,0.0,0.0,0.0,0.0,0.0,0.0,0.0,0.0,0.0,0.0,-0.7741,-0.7295,-0.6458,-0.821,-0.9728,-1.0562,-1.326,-1.6279,-1.9642,-2.2461,0.0,0.0,0.0,0.0,0.0,0.0,0.0,0.0,0.0,0.0,0.0,0.0,0.0,0.0,0.0,0.0,0.0,0.0,0.0,0.0,0.0,0.0,0.0,0.0,0.0,0.0,0.0,0.0,0.0,0.0,0.0,0.0,0.0,0.0,0.0,0.0,0.0,0.0,0.0,0.0,0.0,0.0,0.0,0.0,0.0,0.0,0.0,0.0,0.0,0.0,0.0,0.0,0.0,0.0,0.0,0.0,0.0,0.0,0.0,0.0,0.0,0.0,0.0,0.0,0.0,0.0,0.0,0.0,0.0,0.0,0.0,0.0,0.0,0.0,0.0,0.0,0.0,0.0,0.0,0.0,0.0,0.0,0.0,0.0,0.0,0.0,0.0,0.0,0.0,0.0,0.0,0.0,0.0,0.0,0.0,0.0,0.0,0.0,0.0,0.0,0.0,0.0,-0.9619,-0.8844,-0.9315,-1.0209,-1.1492,-1.3423,-1.6726,-1.9952,-2.2846,-2.589,0.0,0.0,0.0,0.0,0.0,0.0,0.0,0.0,0.0,0.0,0.0,0.0,0.0,0.0,0.0,0.0,0.0,0.0,0.0,0.0,0.0,0.0,0.0,0.0,0.0,0.0,0.0,0.0,0.0,0.0,0.0,0.0,0.0,0.0,0.0,0.0,0.0,0.0,0.0,0.0,0.0,0.0,0.0,0.0,0.0,0.0,0.0,0.0,0.0,0.0,0.0,0.0,0.0,0.0,0.0,0.0,0.0,0.0,0.0,0.0,0.0,0.0,0.0,0.0,0.0,0.0,0.0,0.0,0.0,0.0,0.0,0.0,0.0,0.0,0.0,0.0,0.0,0.0,0.0,0.0,0.0,0.0,0.0,0.0,0.0,0.0,0.0,0.0,0.0,0.0,0.0,0.0,0.0,0.0,0.0,0.0,0.0,0.0,0.0,0.0,0.0,0.0,-1.1657,-1.1114,0.0,-1.2019,-1.3451,-1.5535,-1.8295,-2.1263,-2.4528,0.0,0.0,0.0,0.0,0.0,0.0,0.0,0.0,0.0,0.0,0.0,0.0,0.0,0.0,0.0,0.0,0.0,0.0,0.0,0.0,0.0,0.0,0.0,0.0,0.0,0.0,0.0,0.0,0.0,0.0,0.0,0.0,0.0,0.0,0.0,0.0,0.0,0.0,0.0,0.0,0.0,0.0,0.0,0.0,0.0,0.0,0.0,0.0,0.0,0.0,0.0,0.0,0.0,0.0,0.0,0.0,0.0,0.0,0.0,0.0,0.0,0.0,0.0,0.0,0.0,0.0,0.0,0.0,0.0,0.0,0.0,0.0,0.0,0.0,0.0,0.0,0.0,0.0,0.0,0.0,0.0,0.0,0.0,0.0,0.0,0.0,0.0,0.0,0.0,0.0,0.0,0.0,0.0,0.0,0.0,0.0,0.0,0.0,0.0,0.0,0.0,0.0,-1.3508,-1.2824,-1.2375,0.0,-1.3742,-1.5283,-1.7337,-1.9998,-2.2833,-2.5978,0.0,0.0,0.0,0.0,0.0,0.0,0.0,0.0,0.0,0.0,0.0,0.0,0.0,0.0,0.0,0.0,0.0,0.0,0.0,0.0,0.0,0.0,0.0,0.0,0.0,0.0,0.0,0.0,0.0,0.0,0.0,0.0,0.0,0.0,0.0,0.0,0.0,0.0,0.0,0.0,0.0,0.0,0.0,0.0,0.0,0.0,0.0,0.0,0.0,0.0,0.0,0.0,0.0,0.0,0.0,0.0,0.0,0.0,0.0,0.0,0.0,0.0,0.0,0.0,0.0,0.0,0.0,0.0,0.0,0.0,0.0,0.0,0.0,0.0,0.0,0.0,0.0,0.0,0.0,0.0,0.0,0.0,0.0,0.0,0.0,0.0,0.0,0.0,0.0,0.0,0.0,0.0,0.0,0.0,0.0,0.0,0.0,0.0,0.0,0.0,0.0,0.0,-1.424,-1.2942,-1.2482,-1.3967,-1.5338,-1.6875,-1.8625,-2.2053,-2.5133,0.0,0.0,0.0,0.0,0.0,0.0,0.0,0.0,0.0,0.0,0.0,0.0,0.0,0.0,0.0,0.0,0.0,0.0,0.0,0.0,0.0,0.0,0.0,0.0,0.0,0.0,0.0,0.0,0.0,0.0,0.0,0.0,0.0,0.0,0.0,0.0,0.0,0.0,0.0,0.0,0.0,0.0,0.0,0.0,0.0,0.0,0.0,0.0,0.0,0.0,0.0,0.0,0.0,0.0,0.0,0.0,0.0,0.0,0.0,0.0,0.0,0.0,0.0,0.0,0.0,0.0,0.0,0.0,0.0,0.0,0.0,0.0,0.0,0.0,0.0,0.0,0.0,0.0,0.0,0.0,0.0,0.0,0.0,0.0,0.0,0.0,0.0,0.0,0.0,0.0,0.0,0.0,0.0,0.0,0.0,0.0,0.0,0.0,0.0,0.0,0.0,0.0,0.0,-1.5006,-1.3942,-1.3806,-1.5106,-1.6291,-1.79,-1.9989,-2.2567,-2.5496,-2.901,0.0,0.0,0.0,0.0,0.0,0.0,0.0,0.0,0.0,0.0,0.0,0.0,0.0,0.0,0.0,0.0,0.0,0.0,0.0,0.0,0.0,0.0,0.0,0.0,0.0,0.0,0.0,0.0,0.0,0.0,0.0,0.0,0.0,0.0,0.0,0.0,0.0,0.0,0.0,0.0,0.0,0.0,0.0,0.0,0.0,0.0,0.0,0.0,0.0,0.0,0.0,0.0,0.0,0.0,0.0,0.0,0.0,0.0,0.0,0.0,0.0,0.0,0.0,0.0,0.0,0.0,0.0,0.0,0.0,0.0,0.0,0.0,0.0,0.0,0.0,0.0,0.0,0.0,0.0,0.0,0.0,0.0,0.0,0.0,0.0,0.0,0.0,0.0,0.0,0.0,0.0,0.0,0.0,0.0,0.0,0.0,0.0,0.0,0.0,0.0,0.0,0.0,-1.4856,-1.4243,-1.4262,-1.5605,-1.6882,-1.854,-2.0722,-2.2933,-2.5568,-2.8819,0.0,0.0,0.0,0.0,0.0,0.0,0.0,0.0,0.0,0.0,0.0,0.0,0.0,0.0,0.0,0.0,0.0,0.0,0.0,0.0,0.0,0.0,0.0,0.0,0.0,0.0,0.0,0.0,0.0,0.0,0.0,0.0,0.0,0.0,0.0,0.0,0.0,0.0,0.0,0.0,0.0,0.0,0.0,0.0,0.0,0.0,0.0,0.0,0.0,0.0,0.0,0.0,0.0,0.0,0.0,0.0,0.0,0.0,0.0,0.0,0.0,0.0,0.0,0.0,0.0,0.0,0.0,0.0,0.0,0.0,0.0,0.0,0.0,0.0,0.0,0.0,0.0,0.0,0.0,0.0,0.0,0.0,0.0,0.0,0.0,0.0,0.0,0.0,0.0,0.0,0.0,0.0,0.0,0.0,0.0,0.0,0.0,0.0,0.0,0.0,0.0,0.0,-1.424,-1.3828,-1.4114,-1.5514,-1.7118,-1.8878,-2.0755,-2.3035,-2.5349,-2.7787,0.0,0.0,0.0,0.0,0.0,0.0,0.0,0.0,0.0,0.0,0.0,0.0,0.0,0.0,0.0,0.0,0.0,0.0,0.0,0.0,0.0,0.0,0.0,0.0,0.0,0.0,0.0,0.0,0.0,0.0,0.0,0.0,0.0,0.0,0.0,0.0,0.0,0.0,0.0,0.0,0.0,0.0,0.0,0.0,0.0,0.0,0.0,0.0,0.0,0.0,0.0,0.0,0.0,0.0,0.0,0.0,0.0,0.0,0.0,0.0,3.0665,0.0,0.0,0.0,0.0,0.0,0.0,0.0,0.0,0.0,0.0,0.0,0.0,0.0,0.0,0.0,0.0,0.0,0.0,0.0,0.0,0.0,0.0,0.0,0.0,0.0,0.0,0.0,0.0,0.0,0.0,0.0,0.0,0.0,0.0,0.0,0.0,0.0,0.0,0.0,0.0,0.0,-1.3242,-1.3037,-1.3382,-1.4975,-1.6386,-1.8248,-2.0647,-2.2538,-2.4812,-2.773,-2.8906,0.0,0.0,0.0,0.0,0.0,0.0,0.0,0.0,0.0,0.0,0.0,0.0,0.0,0.0,0.0,0.0,0.0,0.0,0.0,0.0,0.0,0.0,0.0,0.0,0.0,0.0,0.0,0.0,0.0,0.0,0.0,0.0,0.0,0.0,0.0,0.0,0.0,0.0,0.0,0.0,0.0,0.0,0.0,0.0,0.0,0.0,0.0,0.0,0.0,0.0,0.0,0.0,0.0,0.0,0.0,0.0,0.0,0.0,0.0,0.0,2.9083,0.0,0.0,0.0,0.0,0.0,0.0,0.0,0.0,0.0,0.0,0.0,0.0,0.0,0.0,0.0,0.0,0.0,0.0,0.0,0.0,0.0,0.0,0.0,0.0,0.0,0.0,0.0,0.0,0.0,0.0,0.0,0.0,0.0,0.0,0.0,0.0,0.0,0.0,0.0,0.0,-1.2358,-1.2431,-1.2964,-1.4144,-1.5713,-1.7521,-1.9831,-2.134,-2.3126,-2.5608,-2.6761,0.0,0.0,0.0,0.0,0.0,0.0,0.0,0.0,0.0,0.0,0.0,0.0,0.0,0.0,0.0,0.0,0.0,0.0,0.0,0.0,0.0,0.0,0.0,0.0,0.0,0.0,0.0,0.0,0.0,0.0,0.0,0.0,0.0,0.0,0.0,0.0,0.0,0.0,0.0,0.0,0.0,0.0,0.0,0.0,0.0,0.0,0.0,0.0,0.0,0.0,0.0,0.0,0.0,2.3555,2.6023,2.7545,2.932,3.0112,3.0341,3.0093,2.9209,2.763,2.4827,0.0,0.0,0.0,0.0,0.0,0.0,0.0,0.0,0.0,0.0,0.0,0.0,0.0,0.0,0.0,0.0,0.0,0.0,0.0,0.0,0.0,0.0,0.9392,0.8544,0.7289,0.5518,0.2889,0.0,0.0,0.0,0.0,0.0,0.0,0.0,0.0,0.0,0.0,0.0,-1.1185,-1.1547,-1.2106,-1.3162,-1.4863,-1.6596,-1.8545,-1.9712,-2.1132,-2.2729,-2.417,-2.4651,0.0,0.0,0.0,0.0,0.0,0.0,0.0,0.0,0.0,0.0,0.0,0.0,0.0,0.0,0.0,0.0,0.0,0.0,0.0,0.0,0.0,0.0,0.0,0.0,0.0,0.0,0.0,0.0,0.0,0.0,0.0,0.0,1.443,1.3894,0.0,0.0,0.0,0.0,0.0,0.0,0.0,0.0,0.0,0.0,0.0,0.0,0.0,1.1946,1.322,1.6392,1.8659,2.0169,2.3812,2.6318,2.7683,2.8828,2.991,3.0836,2.9656,0.0,2.6226,2.461,0.0,0.0,0.0,0.0,0.0,0.0,0.0,0.0,0.0,0.0,0.0,0.0,0.0,0.0,0.0,0.0,0.0,0.0,0.0,0.0,0.0,0.0,1.1879,1.0716,0.9497,0.8292,0.6597,0.4177,0.1807,-0.0369,-0.2026,0.0,0.0,0.0,0.0,0.0,0.0,0.0,-0.8499,-0.933,-1.0225,-1.1194,-1.286,-1.4635,-1.6826,-1.805,-1.9212,-2.0169,-2.1124,-2.1523,-2.132,-2.0476,0.0,0.0,0.0,0.0,0.0,0.0,0.0,0.0,0.0,0.0,0.0,0.0,0.0,0.0,0.0,0.0,0.0,0.0,0.0,0.0,0.0,0.0,0.0,0.0,0.0,0.0,0.0,0.0,0.0,1.6164,1.523,1.4163,1.3407,1.2423,0.0,0.0,0.0,0.0,0.0,0.0,0.0,0.0,0.0,1.0049,1.1702,1.3254,1.4815,1.7517,1.9725,2.1627,2.4083,2.5793,2.6986,2.8095,2.8787,2.9191,2.8762,2.7645,2.5855,2.4473,2.2577,2.0224,0.0,0.0,0.0,0.0,1.6053,1.5951,1.5948,1.6092,1.6145,1.5998,0.0,0.0,0.0,0.0,0.0,0.0,0.0,1.388,1.3645,1.3614,1.3323,1.2291,1.1605,1.0878,0.91,0.7327,0.5088,0.1724,0.0,-0.1871,-0.499,0.0,0.0,0.0,0.0,-0.7782,-0.7105,-0.7946,-0.8883,-0.9758,-1.1199,-1.2941,-1.4698,-1.5603,-1.6453,-1.7241,-1.7798,-1.7831,-1.7213,-1.6493,-1.5804,0.0,0.0,0.0,0.0,0.0,0.0,0.0,0.0,0.0,0.0,0.0,0.0,0.0,0.0,0.0,0.0,0.0,0.0,0.0,0.0,0.0,0.0,0.0,0.0,0.0,0.0,0.0,0.0,1.7049,1.6144,1.4423,1.4007,1.2913,0.0,0.0,0.0,0.0,0.0,0.0,0.9812,1.0183,1.0819,1.168,1.3364,1.5018,1.6582,1.8797,2.0836,2.2625,2.4184,2.5243,2.6108,2.7184,2.7682,2.7602,2.7838,2.7189,2.5819,2.4562,2.3023,2.1149,2.0011,1.8764,1.7856,1.8114,1.7985,1.7614,1.7927,1.8025,1.7809,1.7642,1.7223,1.6787,1.6341,0.0,0.0,0.0,0.0,1.5005,1.5547,1.5285,1.4916,1.4231,1.3607,1.288,1.1177,0.9965,0.8085,0.4241,0.2339,0.0402,-0.2675,0.0,0.0,0.0,0.0,-0.6385,-0.5449,-0.6141,-0.7133,-0.7999,-0.9438,-1.0985,-1.2319,-1.2902,-1.3461,-1.406,-1.4495,-1.4167,-1.299,-1.2906,-1.2254,-1.0792,0.0,0.0,0.0,0.0,0.0,0.0,0.0,0.0,0.0,0.0,0.0,0.0,0.0,0.0,0.0,0.0,0.0,0.0,0.0,0.0,0.0,0.0,0.0,0.0,0.0,0.0,0.0,0.0,0.0,1.5712,1.5227,0.0,0.0,0.0,0.0,1.0456,1.0607,1.0976,1.1252,1.2093,1.2932,1.3885,1.5763,1.7232,1.8112,2.0109,2.1567,2.2088,2.4166,2.5055,2.5252,2.6374,2.6885,2.6623,2.6872,2.6581,2.5766,2.4961,2.3405,2.1445,2.0598,1.9964,1.9357,1.9641,1.9519,1.9119,1.9151,1.906,1.902,1.902,1.8865,1.8612,1.8593,1.8308,0.0,0.0,1.7955,1.7741,1.884,1.7983,1.6812,1.6639,1.5638,1.4196,1.2755,1.1409,0.9661,0.7366,0.4878,0.2396,-0.0,0.0,-0.3774,-0.3406,-0.5057,-0.5382,-0.2923,-0.3617,-0.4857,-0.5968,-0.7313,-0.8539,-0.9627,-1.032,-1.0776,-1.0644,-1.1047,-1.0563,-0.9151,-0.99,-0.9193,-0.6776,-0.6468,0.0,0.0,0.0,0.0,0.0,0.0,0.0,0.0,0.0,0.0,0.0,0.0,0.0,0.0,0.0,0.0,0.0,0.0,0.0,0.0,0.0,0.0,0.0,0.0,0.0,0.0,0.0,0.0,1.6772,1.6279,0.0,1.3382,1.2841,1.2655,1.2344,1.2442,1.2828,1.3708,1.3908,1.4557,1.5607,1.6651,1.7773,1.8825,2.0249,2.1384,2.2368,2.349,2.423,2.4553,2.5536,2.5982,2.5886,2.6315,2.6165,2.5588,2.5286,2.4136,2.2606,2.1969,2.1406,2.1207,2.148,2.1315,2.115,2.112,2.0762,2.0386,1.9944,1.9698,1.9626,1.9593,1.9725,1.9846,2.01,1.991,1.9618,2.0028,1.9425,1.8523,1.7932,1.6869,1.5609,1.4217,1.303,1.1684,1.0057,0.7638,0.4895,0.2148,0.0725,-0.0295,-0.074,-0.1689,-0.2049,-0.0946,-0.2224,-0.3292,-0.4029,-0.5155,-0.6297,-0.7537,-0.7884,-0.7961,-0.8004,-0.7971,-0.7259,-0.5868,-0.5542,-0.4653,-0.324,-0.2681,-0.2438,0.0,0.0,0.0,0.0,0.0,0.0,0.0,0.0,0.0,0.0,0.0,0.0,0.0,0.0,0.0,0.0,0.0,0.0,0.0,0.0,0.0,0.0,0.0,0.0,0.0,0.0,1.8375,1.7451,1.7125,1.6092,1.4313,1.4205,1.4248,1.3991,1.4368,1.4805,1.5653,1.5758,1.6205,1.7225,1.7812,1.8749,1.9866,2.0548,2.1472,2.2666,2.3112,2.3592,2.3913,2.4755,2.5137,2.5034,2.5678,2.5718,2.5015,2.4915,2.4323,2.3538,2.2973,2.2533,2.2325,2.2594,2.2603,2.2257,2.2212,2.1946,2.1469,2.1096,2.1009,2.0976,2.105,2.1274,2.1609,2.1832,2.1859,2.1741,2.1577,2.1164,2.0295,1.9423,1.829,1.7002,1.5854,1.4504,1.3363,1.1919,0.9575,0.7146,0.4828,0.3668,0.2785,0.2158,0.1742,0.1289,0.0799,-0.0477,-0.1559,-0.2373,-0.312,-0.4047,-0.5344,-0.5401,-0.5474,-0.6031,-0.5502,-0.4528,-0.3103,-0.1858,-0.0931,-0.0303,0.0418,0.0439,-0.0232,0.0,0.0,0.0,0.0,0.0,0.0,0.0,0.0,0.0,0.0,0.0,0.0,0.0,0.0,0.0,0.0,0.0,0.0,0.0,0.0,0.0,0.0,0.0,1.9417,1.9775,1.9518,1.7928,1.7739,1.7033,1.5413,1.5884,1.6015,1.5471,1.6343,1.6872,1.6728,1.7591,1.822,1.8558,1.9267,2.0185,2.1103,2.1344,2.1846,2.2793,2.3203,2.3314,2.3314,2.4009,2.4334,2.4107,2.4766,2.4909,2.4429,2.4178,2.4109,2.4291,2.374,2.3333,2.3128,2.3393,2.3008,2.2506,2.2426,2.2349,2.2395,2.2487,2.2579,2.2624,2.2876,2.3127,2.3367,2.363,2.3709,2.3731,2.372,2.302,2.2266,2.1506,2.0094,1.8388,1.7345,1.583,1.4339,1.288,1.0947,0.9054,0.7999,0.6448,0.5342,0.5285,0.5384,0.0,0.2404,0.1581,0.0462,-0.1026,-0.1111,-0.1576,-0.2845,-0.2815,-0.3344,-0.4786,-0.3624,-0.2327,-0.096,0.0806,0.1866,0.2034,0.2576,0.2605,0.2105,0.0,0.0,0.0,0.0,0.0,0.0,0.0,0.0,0.0,0.0,0.0,0.0,0.0,0.0,0.0,0.0,0.0,0.0,0.0,0.0,0.0,0.0,2.2253,2.1318,2.1011,2.0997,2.0375,1.9557,1.8802,1.7841,1.7614,1.7561,1.7392,1.7727,1.8005,1.819,1.8225,1.8441,1.8809,1.9087,1.9578,2.0286,2.0261,2.0674,2.1147,2.182,2.2231,2.2375,2.333,2.3862,2.3778,2.447,2.4565,2.442,2.4891,2.4986,2.4832,2.3665,2.361,2.4202,2.3948,2.41,2.4503,2.4219,2.4182,2.4033,2.3457,2.3481,2.3726,2.3522,2.3706,2.4147,2.4063,2.4189,2.4209,2.4039,2.3424,2.2791,2.2383,2.0958,1.9437,1.8866,1.7574,1.618,1.4825,1.3617,1.1873,0.9235,0.7827,0.7062,0.6717,0.6298,0.5639,0.5026,0.3654,0.2465,0.2051,0.1528,0.0654,-0.0732,-0.0775,-0.0995,-0.1765,-0.1116,-0.0062,0.1318,0.2682,0.4017,0.5437,0.4817,0.4355,0.0,0.0,0.0,0.0,0.0,0.0,0.0,0.0,0.0,0.0,0.0,0.0,0.0,0.0,0.0,0.0,0.0,0.0,0.0,0.0,0.0,0.0,2.3302,2.3724,2.313,2.2405,2.179,2.154,2.0576,1.9842,1.9629,1.9097,1.8786,1.8707,1.9041,1.9107,1.9077,1.915,1.9397,1.9785,1.9854,2.0141,2.1027,2.0721,2.0871,2.1497,2.1762,2.2116,2.234,2.3163,2.3524,2.3601,2.4159,2.4258,2.4245,2.5003,2.5098,2.4882,0.0,0.0,0.0,0.0,2.496,2.5421,2.5325,2.5389,2.5225,2.4735,2.4735,2.4972,2.4914,2.5035,2.5264,2.5179,2.5443,2.5401,2.498,2.458,2.4013,2.3431,2.2054,2.0746,1.9972,1.8847,1.7607,1.6213,1.5216,0.0,1.1435,1.0118,0.9141,0.8314,0.769,0.7161,0.6679,0.5413,0.4312,0.3807,0.3332,0.2743,0.194,0.1422,0.0,0.0,0.0,0.2023,0.3841,0.4753,0.0,0.0,0.0,0.6299,0.644,0.5931,0.0,0.0,0.4613,0.5954,0.0,0.0,0.0,0.0,0.0,0.0,0.0,0.0,0.0,0.0,0.0,0.0,0.0,0.0,0.0,0.0,2.427,2.5087,2.493,2.3804,2.2849,2.2084,2.1033,2.0357,2.0863,2.029,1.9943,2.008,2.032,2.0206,1.9864,0.0,0.0,0.0,0.0,2.1577,2.2547,2.172,2.1801,2.2809,2.2406,2.2305,2.2708,2.2894,2.3267,2.3617,2.3955,2.4009,2.4194,2.4723,2.4992,2.504,2.5389,2.553,2.5494,2.5724,2.5961,2.5912,2.6122,0.0,0.0,2.6185,2.6172,2.6223,2.6505,2.662,2.6684,2.6901,2.7012,2.7005,2.6348,2.5971,2.5586,2.4465,2.3369,2.2277,2.1053,1.9972,1.8763,1.7278,1.6229,1.527,1.4112,1.2663,1.1237,0.9913,0.9736,0.9151,0.7815,0.7001,0.6155,0.4973,0.4727,0.0,0.4495,0.3485,0.297,0.3055,0.3075,0.4075,0.6389,0.7016,0.7801,0.8887,0.8392,0.8302,0.8732,0.8556,0.8452,0.8286,0.776,0.7897,0.0,0.0,0.0,0.0,0.0,0.0,0.0,0.0,0.0,0.0,0.0,0.0,0.0,0.0,0.0,2.371,2.4934,2.574,2.5442,2.4899,2.4442,2.3568,2.2343,2.1649,2.1333,2.1063,2.0918,2.1052,2.1197,2.1375,2.1665,2.143,2.1276,2.1546,2.1572,2.1714,2.1554,2.1388,2.1397,2.1801,2.2003,0.0,2.2112,2.2697,2.3267,2.3617,2.3955,2.4188,2.4667,2.5604,2.6248,2.6461,2.6102,2.6073,2.6212,2.6807,2.7221,2.7486,2.7469,2.745,2.7284,2.6965,2.7131,2.7337,2.7304,2.7382,0.0,2.7356,2.7496,2.7432,2.6752,2.6473,2.6093,2.5323,2.455,2.3664,2.2277,2.1264,2.0176,1.8959,1.7557,1.6303,1.6132,1.4405,1.2599,1.1373,1.1467,1.114,0.9915,0.9055,0.8148,0.7601,0.6725,0.5946,0.5218,0.4886,0.448,0.4054,0.52,0.6625,0.8208,0.9145,0.9803,1.0152,1.0062,1.01,1.0121,0.9961,0.9996,1.034,0.9354,0.9021,0.0,0.0,0.0,0.0,0.0,0.0,0.0,0.0,0.0,0.0,0.0,2.1971,0.0,0.0,2.5192,2.6034,2.6677,2.71,2.6673,2.6322,2.5616,2.4545,2.3086,2.2221,2.274,2.2161,2.2042,2.2565,2.2371,2.2318,2.2592,2.2265,2.2126,2.2553,2.2454,2.2563,2.267,2.2355,2.2301,2.2506,2.2506,2.2609,2.2617,2.3117,2.3493,2.3961,2.4034,2.4438,2.498,2.5994,2.6923,2.7757,2.7341,2.6925,2.6758,2.746,2.7805,2.8037,2.8413,2.8379,2.8257,2.8257,2.8519,2.8837,2.8832,2.892,2.9122,2.8974,2.8977,2.8911,2.8313,2.7787,2.7298,2.5995,2.5325,2.4515,2.3043,2.2148,2.1306,1.9962,1.8773,1.7732,1.7178,1.6309,1.5157,1.3383,1.3102,1.2733,1.1631,1.0673,0.9856,0.9291,0.8263,0.7384,0.6733,0.6206,0.5969,0.587,0.7033,0.8285,0.9472,1.0238,1.0827,1.1336,1.1233,1.129,1.1558,1.1579,1.1618,1.1534,1.1269,1.1129,0.0,0.0,0.0,0.0,0.0,0.0,0.0,0.0,2.1119,2.2153,2.2974,2.3911,2.5124,2.6235,2.7095,2.8136,2.8404,2.8163,2.7826,2.7185,2.6215,2.5208,2.3573,2.3041,2.3935,2.3041,2.3115,2.4011,2.3666,2.3408,2.3466,2.3018,2.3099,2.3741,2.3547,2.3639,2.4022,2.3425,2.3323,2.3701,2.3286,2.3156,2.3332,2.3332,2.3731,2.4365,2.4762,2.5114,2.5687,2.6432,2.7616,2.8632,2.8569,2.8226,2.7788,2.8156,2.8212,2.8314,2.905,2.9198,2.8992,2.9383,2.9916,3.0127,3.0198,3.0437,3.0662,3.0606,3.0634,3.0433,2.9783,2.9186,2.8419,2.6923,2.619,2.5263,2.3812,2.3043,2.2129,2.0627,1.9881,1.908,1.8122,1.8009,1.7528,1.5436,1.4924,1.434,1.3207,1.2331,1.144,1.0706,0.9707,0.8841,0.8221,0.7558,0.7365,0.7764,0.8541,0.945,1.049,1.0944,1.1472,1.2227,1.2049,1.2254,1.2726,1.2929,1.2888,1.2457,1.3117,1.3008,1.8715,1.8704,1.909,2.0379,2.0408,2.0745,0.0,0.0,2.3106,2.5119,2.5072,2.5155,2.6536,2.7022,2.7439,2.8187,2.8404,2.8344,2.8124,2.7325,2.6646,2.6232,2.5502,2.4596,2.3969,2.419,2.4358,2.4686,2.3994,2.4093,2.517,2.4357,2.4155,2.4816,2.4617,2.4419,2.423,2.4202,2.4107,2.3928,2.3928,2.372,2.3332,2.3332,2.3818,2.4588,2.5986,2.6826,2.7169,2.8315,2.8788,2.9118,2.9819,3.0346,3.0292,2.9282,2.9219,2.9417,2.9564,2.9509,2.9537,2.9803,3.0269,3.0524,3.0981,3.1281,3.1482,3.1195,3.0963,3.0755,3.0447,3.0018,2.9417,2.8591,2.7667,2.6745,2.5446,2.4005,2.2714,2.188,2.0544,1.9512,1.9378,1.9277,1.8565,1.6828,1.635,1.5838,1.5,1.3844,1.2937,1.2339,1.1239,1.0136,0.8828,0.8742,0.8848,0.9242,0.9604,1.0293,1.1395,1.183,1.211,1.2298,1.2818,1.3039,1.298,1.3378,1.3452,1.3421,1.3701,1.3476,2.0497,2.0307,2.0496,0.0,2.1922,2.2364,2.4297,2.4525,2.4549,2.6172,2.6726,2.6991,2.7717,2.8722,2.9598,0.0,2.9887,2.9776,2.9507,2.8422,2.7481,2.7626,2.7292,2.6446,2.5298,2.5239,2.5211,2.5746,2.5185,2.5245,2.5704,2.5189,2.4973,2.508,2.4873,2.4655,2.4447,2.475,2.4644,2.4135,2.4558,2.4404,2.4115,2.4115,2.4539,2.5416,2.6471,2.7356,2.8241,2.8676,2.9467,3.037,3.0792,3.1142,3.134,3.0482,3.0369,3.0733,3.0643,3.0493,3.0567,3.0866,3.121,3.1728,3.2032,3.2484,3.272,3.2572,3.2456,3.231,3.1642,3.1208,3.0615,2.9431,2.8485,2.7368,2.5723,2.4662,2.3631,2.2368,2.1524,2.0911,2.0909,2.0692,2.0204,1.9803,1.847,1.7371,1.6774,1.5577,1.4228,1.2678,1.1869,1.0857,0.9361,0.9536,0.9823,1.0019,1.0388,1.1097,1.2295,1.2469,1.2696,1.2966,1.329,1.3448,1.3474,1.3848,1.3812,1.3562,1.3873,1.3834,2.1824,0.0,0.0,2.2967,2.3553,2.4274,2.5503,2.6108,2.6433,2.7486,2.82,2.8856,2.9389,3.0566,3.1142,3.1,3.1158,3.0944,3.0231,2.9289,2.8543,2.8464,2.8246,2.7959,2.7074,2.6556,2.6574,2.6701,2.6558,2.6394,2.6442,2.6134,2.5904,2.5827,2.5558,2.5336,2.5192,2.54,2.5263,2.4769,2.5194,2.5269,2.5003,2.5152,2.5563,2.6253,2.7292,2.818,2.8883,2.9616,3.0442,3.1474,3.1732,3.2093,3.244,3.1847,3.1651,3.1507,3.1586,3.1553,3.1468,3.19,3.2263,3.2644,3.3081,3.3275,3.347,3.347,3.341,3.3305,3.2631,3.2004,3.1175,3.0239,2.9152,2.7849,2.6163,2.522,2.4407,2.2984,2.2433,2.224,2.224,2.206,2.181,2.2111,2.0683,1.9166,1.8347,1.6915,1.5228,1.3208,1.262,1.1672,1.0278,1.0529,1.0771,1.0576,1.1012,1.1678,1.2694,1.2756,1.3031,1.3363,1.3521,1.3699,1.378,1.4125,1.3988,1.3604,1.4034,1.3967,0.0,0.0,2.2967,2.4212,2.5148,2.6214,2.7109,2.7812,2.8681,3.0238,3.0154,3.0492,3.1705,3.204,3.1886,3.1696,3.1503,3.0944,3.0231,2.9766,2.9208,2.8986,2.8267,2.8257,0.0,2.8955,2.8519,2.7395,2.7628,2.8025,2.8268,2.7651,2.7378,2.759,2.7166,2.6954,2.6933,2.6721,2.6499,2.6276,2.6276,2.6044,2.5609,2.582,2.6324,2.6907,2.854,2.9415,2.9767,3.1082,3.1776,3.2078,3.2896,3.3337,3.3901,3.3887,3.3114,3.2012,3.2237,3.2422,3.2357,3.2337,3.2629,3.3036,3.3365,3.347,3.347,3.347,3.3246,3.3066,3.2852,3.1811,3.0867,3.0853,2.9459,2.7966,2.7661,2.6042,2.464,2.4075,2.3379,2.3007,2.3007,2.3007,2.3115,2.324,2.2452,2.1382,1.9884,1.7743,1.5894,1.4596,1.3937,1.3054,1.169,1.1823,1.176,1.1224,1.1629,1.1972,1.2308,1.2719,1.3019,1.3257,1.3467,1.3558,1.3526,1.3979,1.417,1.4019,1.4136,1.4244,0.0,0.0,2.4281,2.5745,2.6434,2.7198,2.8498,2.9096,2.9454,3.0397,3.0916,3.1148,3.1565,3.2202,3.2724,3.2215,3.2354,3.2151,3.1645,3.0469,2.9921,3.0174,2.9807,0.0,0.0,0.0,0.0,2.8278,2.8157,2.7975,2.8056,2.7843,2.7681,2.7621,2.7489,2.7328,2.7176,2.7392,2.7248,2.6731,2.7131,2.7039,2.6881,2.7535,2.7962,2.8563,2.9581,3.0343,3.1252,3.1771,3.2456,3.2939,3.3406,3.3724,3.3916,3.4305,3.4271,3.3852,3.2988,3.3173,3.3739,3.2881,3.3102,3.3649,3.4124,3.4357,3.4441,3.4545,3.4271,3.3731,3.3176,3.2304,3.1529,3.1175,2.9931,2.8603,2.7611,2.6629,2.5623,2.4912,2.453,2.4332,2.4707,2.4514,2.4201,2.3818,2.2546,2.1169,1.9975,1.8529,1.6989,1.5711,1.4675,1.3601,1.2203,1.2111,1.2258,1.22,1.2431,1.2912,1.3519,1.3432,1.3499,1.3606,1.3723,1.3797,1.394,1.4319,1.4529,1.4742,1.4708,1.4732,0.0,2.4761,2.5616,2.7026,2.7948,2.8485,2.9423,3.0179,3.0468,3.0704,3.139,3.1994,3.1705,3.2432,3.2697,3.2286,3.2373,3.2411,3.1881,3.1106,3.0516,3.0729,3.0378,3.0251,0.0,0.0,0.0,2.8712,2.8927,2.902,2.9104,2.902,2.8906,2.877,2.8471,2.8295,2.8077,2.8416,2.8236,2.8141,2.824,2.839,2.859,2.894,2.953,3.0131,3.0643,3.1201,3.2196,3.2311,3.3063,3.3629,3.3712,3.3978,3.4465,3.4682,3.504,3.5239,3.4191,3.4364,3.4743,3.3784,3.3963,3.4666,3.486,3.5064,3.5327,3.5239,3.4876,3.4408,3.3543,3.2901,3.2176,3.169,3.0488,2.9196,2.8104,2.716,2.6359,2.5739,2.5343,2.5479,2.5936,2.5661,2.5286,2.453,2.3075,2.1547,2.0426,1.9321,1.8021,1.6474,1.5377,1.4237,1.3138,1.3173,1.3157,1.3316,1.3509,1.3825,1.4126,1.3918,1.3858,1.3934,1.4006,1.4135,1.4319,1.4717,1.5105,1.5217,1.5188,1.514,2.4843,2.5949,2.6813,2.8248,2.9477,3.0238,3.0274,3.1071,3.1735,3.1469,3.2024,3.2567,0.0,0.0,3.2114,3.2402,3.187,3.1364,3.1364,3.1009,3.0772,0.0,0.0,0.0,0.0,0.0,0.0,2.9448,3.0355,3.1131,3.1397,3.1186,3.1042,3.1053,3.0366,2.9889,2.9426,2.9624,2.9923,3.0094,2.982,3.0106,3.0716,3.0208,3.0588,3.1396,3.1731,3.2209,3.2585,3.2921,3.3579,3.4507,3.4227,3.4689,3.5163,3.5178,3.5554,3.6143,3.5254,3.5486,3.5754,3.4834,3.5181,3.5723,3.5392,3.5542,3.5887,3.5408,3.5212,3.5015,3.4108,3.335,3.2871,3.2042,3.0907,2.9847,2.8783,2.761,2.6789,2.6382,2.634,2.6421,2.6893,2.6822,2.639,2.5063,2.4069,2.2889,2.1053,1.9931,1.8779,1.6912,1.6044,1.5244,1.4408,1.4642,1.4618,1.4238,1.4742,1.4828,1.4226,1.4307,1.4298,1.4109,1.4378,1.4474,1.4675,1.5269,1.54,1.542,1.5421,1.5468,2.6061,2.7217,2.8284,2.9538,3.0165,3.0612,3.0998,3.1668,3.2209,3.171,3.2442,3.2662,0.0,0.0,0.0,3.3071,3.316,0.0,3.3276,3.2646,0.0,3.2141,0.0,3.2062,3.2033,3.2181,0.0,0.0,3.1611,3.16,3.1375,3.1814,3.192,3.1738,3.1659,3.1274,3.1026,3.0752,3.0608,3.0994,3.0965,3.1174,3.1781,3.1656,3.2034,3.2621,3.254,3.2611,3.32,3.3733,3.4165,3.4535,3.4842,3.5068,3.5163,3.5178,3.5687,3.6509,3.5972,3.599,3.6006,3.5318,3.5349,3.5745,3.6095,3.6271,3.6342,3.651,3.611,3.5589,3.5289,3.426,3.3139,3.2887,3.1305,2.9792,2.9482,2.8452,2.7818,2.7964,2.8223,2.8174,2.7365,2.7622,2.7233,2.5889,2.4994,2.4024,2.267,2.0993,1.9761,1.8788,1.7463,1.6294,1.5716,1.5394,1.5294,1.5498,1.5569,1.5593,1.5244,1.505,1.4771,1.4813,1.4662,1.481,1.5122,1.5601,1.5932,1.6285,1.6292,1.6288,2.6822,2.8149,2.92,3.0153,3.0757,3.1179,3.1348,3.1899,3.227,3.1372,3.179,0.0,3.1348,3.1809,0.0,0.0,0.0,0.0,3.3511,3.3092,3.2709,0.0,3.2942,0.0,3.2816,3.3489,3.3803,0.0,3.2942,3.2448,3.2492,3.2724,3.2851,3.2596,3.2344,3.2126,3.1878,3.1694,3.1792,3.1953,3.2185,3.2623,3.302,3.3006,3.3227,3.3818,3.3598,3.3614,3.3614,3.4268,3.47,3.4745,3.5336,3.5637,3.5588,3.5794,3.6265,3.6875,3.6881,3.6899,3.6683,3.6144,3.6296,3.6651,3.6635,3.6861,3.7146,3.6991,3.6635,3.6188,3.6021,3.5044,3.4182,3.3867,3.2352,3.0832,3.0188,2.9346,2.8557,2.8718,2.9204,2.9474,2.8508,2.8494,2.8195,2.6858,2.5675,2.4783,2.3911,2.1948,2.0306,1.9328,1.8188,1.7226,1.6608,1.6397,1.6348,1.6587,1.6637,1.6536,1.6277,1.5745,1.5554,1.5396,1.5204,1.5317,1.5593,1.6211,1.6486,1.6594,1.6759,1.6865,2.7522,2.897,2.9955,3.0769,3.1498,3.196,3.1753,3.1996,3.1984,3.0805,0.0,3.1255,3.0842,3.0939,3.158,3.2206,0.0,3.2701,3.3253,3.3092,3.2965,3.3,3.3665,3.3803,3.3614,3.4949,3.556,3.4864,3.4183,3.3916,3.391,3.3933,3.4011,3.3737,3.2977,3.2604,3.2606,3.2748,3.2907,3.3322,3.3437,3.3922,3.4332,3.4059,3.4346,3.4944,3.4748,3.449,3.4057,3.4737,3.521,3.521,3.5607,3.6013,3.6309,3.6713,3.7115,3.7433,3.7784,3.7788,3.7507,3.7118,3.7364,3.7549,3.7116,3.7317,3.7734,3.7116,3.71,3.6915,3.6545,3.5942,3.5279,3.4611,3.3429,3.2162,3.1127,2.9955,2.9218,2.9218,2.9768,3.0212,2.9819,2.9263,2.866,2.797,2.6437,2.5114,2.4897,2.2663,2.0717,1.9481,1.8753,1.8037,1.7485,1.744,1.7631,1.7603,1.7751,1.7657,1.7355,1.6742,1.6294,1.6013,1.6013,1.5934,1.6121,1.6787,1.7025,1.6674,1.7195,1.7427,2.9196,3.0541,3.1408,3.2659,3.2748,3.2685,3.2871,3.2673,0.0,0.0,3.0932,3.1328,3.1073,3.0988,3.159,3.3212,3.3473,3.3883,3.4627,3.4507,3.4435,0.0,0.0,0.0,0.0,0.0,0.0,0.0,3.6262,3.6029,3.5599,3.6054,3.6074,3.5572,3.4417,3.4122,3.4655,3.4153,3.4299,3.4898,3.438,3.4557,3.4966,3.4687,3.4971,3.5347,3.4952,3.4881,3.5257,3.5536,3.5607,3.5805,3.6202,3.6603,3.6713,3.6908,3.7445,3.8317,3.8052,3.8481,3.8751,3.8118,3.7726,3.7476,3.7565,3.7877,3.8052,3.775,3.7486,3.7486,3.7486,3.6513,3.5547,3.5486,3.3838,3.2265,3.1861,3.1195,3.0648,3.0648,3.0988,3.1181,3.0186,2.9659,2.8875,2.7814,2.6618,2.5542,2.5137,2.3048,2.1413,2.0988,1.9904,1.9109,1.8735,1.8519,1.8332,1.8305,1.8267,1.8088,1.7609,1.7736,1.7412,1.6782,1.685,1.6643,1.6487,1.6909,1.7201,1.7218,1.774,1.7994,2.9784,3.1201,3.2666,3.3727,3.3715,3.345,3.3312,0.0,0.0,0.0,3.0976,3.1074,3.1152,3.1359,3.1708,3.3069,3.3261,3.371,3.4888,3.479,3.5033,3.5833,3.6029,3.6225,0.0,3.6957,3.7476,3.7335,3.7672,3.7476,3.6363,3.6483,3.6423,3.6016,3.5383,3.508,3.5164,3.4964,3.5196,3.5415,3.5056,3.5205,3.5404,3.5334,3.5619,3.58,3.5967,3.5963,3.5921,3.6249,3.6248,3.6034,3.667,3.71,3.7162,3.7748,3.8333,3.8691,3.8937,3.9051,3.9164,3.8831,3.8292,3.7789,3.7988,3.7941,3.7893,3.7718,3.7671,3.7671,3.7671,3.6791,3.5929,3.5929,3.4314,3.2626,3.2556,3.2164,3.1944,3.2091,3.2189,3.2178,3.1705,3.046,2.9428,2.8779,2.7292,2.613,2.5765,2.3987,2.2505,2.17,2.0404,1.9809,1.9663,1.9442,1.9454,1.9667,1.9338,1.9173,1.8843,1.8606,1.8253,1.7943,1.7878,1.7682,1.7347,1.7712,1.7755,1.7672,1.8208,1.8367,3.0428,3.206,3.3646,3.4656,3.4593,3.4388,3.3761,3.3121,0.0,0.0,3.0891,3.1189,3.1534,3.1731,3.2,0.0,3.2792,3.3249,3.4854,3.4879,3.5496,0.0,3.6893,0.0,3.7165,3.7879,0.0,3.8217,3.8817,3.8557,3.7322,3.6794,3.6551,3.6562,3.6001,3.5694,3.5686,3.5793,3.583,3.583,3.5979,3.5899,3.5832,3.6027,3.6298,3.6439,3.6952,3.7016,3.6974,3.7229,3.7153,3.6851,3.7397,3.7703,3.7901,3.8884,3.9276,3.9276,3.9684,3.9641,3.9516,3.9516,3.891,3.8402,3.8322,3.8163,3.7988,3.7909,3.7893,3.7893,3.7893,3.7087,3.6265,3.5816,3.4537,3.3331,3.3201,3.3106,3.323,3.3658,3.3326,3.2928,3.2982,3.1244,2.996,2.9644,2.8136,2.6758,2.6202,2.5106,2.3806,2.2265,2.1117,2.056,2.0683,2.0466,2.0507,2.0847,2.0507,2.0337,2.0177,1.9533,1.9112,1.9104,1.8918,1.8717,1.8331,1.8524,1.8526,1.8174,1.8525,1.8801,3.2124,3.3574,3.4841,3.6095,3.5607,3.4984,3.415,0.0,0.0,3.0789,3.0999,3.1348,3.209,3.1662,3.1946,0.0,0.0,3.3613,3.4507,3.5371,3.6181,3.6766,0.0,0.0,3.8166,3.8913,3.9546,3.9519,3.9306,3.9038,3.8512,3.7758,3.7575,3.8007,3.6984,3.6696,3.7104,3.678,3.65,3.65,3.6626,3.6758,3.6484,3.6868,3.7335,3.7472,3.7366,3.784,3.8661,3.829,3.8365,3.8477,3.8646,3.8829,3.9241,3.9439,3.9834,4.0245,4.0245,4.0398,4.0465,4.0465,3.982,3.9069,3.8751,3.8846,3.9005,3.8688,3.8592,3.8592,3.8592,3.7616,3.6179,3.4551,3.413,3.4169,3.3625,3.3849,3.4059,3.4667,3.3879,3.3285,3.3114,3.1853,3.0505,2.9416,2.8743,2.7974,2.6467,2.5893,2.4933,2.3331,2.2525,2.1931,2.1898,2.1666,2.1535,2.1535,2.1535,2.1359,2.1018,2.1038,2.061,1.9724,1.9743,1.9401,1.9068,1.8903,1.8905,1.8735,1.8904,1.9045,3.1792,3.3883,3.5811,3.6427,3.6259,3.5618,3.4714,0.0,3.3,3.1894,3.1706,3.1746,3.267,3.2155,3.19,3.2982,0.0,0.0,3.4593,3.512,3.5806,3.7123,3.8121,0.0,0.0,0.0,3.9853,3.9853,3.9412,3.9118,3.8972,3.8459,3.8246,3.8263,3.7636,3.7343,3.7382,3.7424,3.7194,3.7194,3.7564,3.779,3.7665,3.7899,3.817,3.8268,3.8982,3.9226,3.9449,3.9532,3.92,3.8867,3.9274,3.9397,3.9366,3.9762,4.0095,4.026,4.043,4.0448,4.0513,4.0917,4.0819,4.0254,3.9707,3.9355,3.9275,3.8735,3.8688,3.864,3.8449,3.7538,3.6503,3.5236,3.478,3.4732,3.5111,3.5255,3.5399,3.5796,3.5276,3.4492,3.4045,3.2512,3.1101,3.0128,2.9545,2.8625,2.7133,2.6416,2.5682,2.4736,2.3456,2.2546,2.2358,2.2423,2.2371,2.2726,2.2548,2.2016,2.166,2.1393,2.0952,2.0352,2.0352,2.029,1.9992,1.9958,1.9723,1.9277,1.9413,1.9469,3.1993,3.4619,3.6893,3.6834,3.6965,3.6402,0.0,0.0,3.3653,3.2881,3.2337,3.2391,3.3305,3.2946,3.2511,3.282,3.2631,3.3019,3.458,3.5134,3.5943,3.7662,0.0,3.8838,0.0,3.9773,4.0147,4.0027,3.9559,3.9265,3.9159,3.8865,3.8611,3.8397,3.8036,3.7716,3.7753,3.7808,3.7839,3.8059,3.8496,3.8546,3.8448,3.8898,3.9169,3.9281,4.0134,4.0438,4.0603,4.0477,4.0363,3.9821,4.028,4.014,3.9907,4.0474,4.0793,4.0745,4.0884,4.1114,4.139,4.1696,4.1857,4.179,4.0848,4.017,3.9785,3.9387,3.9196,3.8926,3.8403,3.7741,3.6822,3.6001,3.5526,3.5449,3.6265,3.6471,3.6677,3.6912,3.637,3.5591,3.5097,3.3456,3.1999,3.1322,3.0522,2.9332,2.8105,2.7331,2.6587,2.6061,2.4624,2.3704,2.3304,2.3273,2.3454,2.3817,2.3454,2.306,2.2454,2.2333,2.1856,2.121,2.1267,2.1263,2.0998,2.0864,2.0583,1.9958,2.0199,2.0054,3.359,3.5723,3.7811,3.7991,3.7971,3.7234,0.0,0.0,3.3598,3.2996,3.3105,3.3393,3.3707,3.3762,3.3462,3.2773,3.3277,3.409,3.4619,3.5692,3.6834,3.7702,3.8357,3.8838,3.9118,3.996,4.0361,4.0067,3.9746,3.9452,3.9159,3.8865,3.8718,3.8718,3.8143,3.8049,3.8728,3.8126,3.8059,3.8692,3.9366,3.9427,3.9112,3.9776,4.0031,4.0346,4.0346,4.0983,4.2024,4.1666,4.1531,4.1802,4.1452,4.1309,4.1309,4.1309,4.1697,4.2101,4.2085,4.2458,4.3101,4.2748,4.302,4.3146,4.2369,4.1288,4.0497,4.0497,4.0125,3.9673,3.8729,3.8056,3.7399,3.6681,3.6267,3.6309,3.6713,3.7416,3.7895,3.7895,3.708,3.6178,3.5863,3.4363,3.2879,3.2585,3.1764,3.0474,2.9213,2.8593,2.7821,2.6736,2.6679,2.6197,2.4807,2.4786,2.4786,2.4786,2.4786,2.4501,2.3707,2.3916,2.3549,2.2211,2.2417,2.2344,2.1792,2.1413,2.1311,2.132,2.1138,2.0923,3.4205,3.5375,3.5965,3.5738,3.6115,3.6106,3.4274,3.3954,3.3796,3.3215,3.2885,3.284,3.394,3.3701,3.3412,3.3718,3.3917,3.4523,3.5285,3.6082,3.7048,3.7742,3.8865,3.9746,0.0,0.0,4.0441,4.0334,3.9893,3.9783,3.9925,3.9685,3.9168,3.8731,3.8803,3.8815,3.9029,3.9336,3.9585,4.0006,4.024,4.0548,4.0841,4.0853,4.1123,4.1666,4.2112,4.2418,4.2398,4.2697,4.2304,4.1562,4.1881,4.1692,4.1219,4.1591,4.1899,4.2069,4.2625,4.3072,4.3152,4.3444,4.3607,4.3786,4.347,4.2285,4.0917,4.0141,3.9771,3.9225,3.8963,3.8241,3.773,3.7657,3.6966,3.6706,3.7916,3.7944,3.7969,3.8194,3.7241,3.6249,3.6149,3.4468,3.3173,3.2879,3.2248,3.1552,3.0486,2.9494,2.8533,2.8367,2.7592,2.6976,2.5994,2.5949,2.5949,2.5949,2.5561,2.5152,2.4512,2.4198,2.3821,2.2994,2.3064,2.2984,2.2577,2.2586,2.2444,2.1931,2.1599,2.1377,0.0,3.5306,3.5511,3.5177,3.5623,0.0,0.0,0.0,3.3727,3.3461,3.3048,3.2895,3.4063,3.3864,3.352,3.3881,3.4175,3.4629,0.0,0.0,0.0,3.821,0.0,0.0,0.0,4.0508,4.0588,4.0481,4.0267,4.0222,4.0712,4.0344,4.0041,3.9563,3.9628,3.9636,3.985,4.0066,4.0581,4.0993,4.1016,4.1326,4.1826,4.1971,4.2228,4.2651,4.2991,4.33,0.0,4.347,4.3152,4.2304,4.2885,4.2437,4.1976,4.2441,4.2716,4.2902,4.3473,4.3805,4.3971,4.4033,4.4111,4.3991,4.3794,4.2765,4.1324,4.0545,3.9899,3.9482,3.9299,3.8909,3.8518,3.8734,3.8082,3.782,3.9028,3.8781,3.8731,3.8943,3.7795,3.7012,3.6882,3.5188,3.3882,3.3783,3.2948,3.2047,3.1578,3.039,2.9653,2.9543,2.876,2.7984,2.7506,2.7088,2.685,2.6759,2.6556,2.6085,2.5327,2.5023,2.4504,2.3919,2.4012,2.3779,2.362,2.3553,2.3202,2.2526,2.246,2.215,0.0,0.0,0.0,0.0,0.0,0.0,0.0,0.0,0.0,0.0,0.0,3.353,3.4131,3.4227,3.4041,0.0,0.0,0.0,0.0,3.65,0.0,0.0,3.9746,0.0,4.0107,4.0575,4.0802,4.0508,4.0909,4.0985,4.0985,4.1145,4.1044,4.1249,4.0672,4.059,4.1045,4.0745,4.1036,4.1529,4.1903,4.2155,4.1931,4.2866,4.3298,4.3146,4.3442,4.3814,4.3915,4.4221,4.4076,4.3555,4.3943,4.3665,4.3393,4.3444,4.3923,4.4346,4.4312,4.4717,4.5053,4.4693,4.4334,4.4077,4.3467,4.2787,4.1882,4.1293,4.0478,3.9847,3.9832,3.9677,3.9517,3.9517,3.9366,3.9396,4.0031,3.9875,3.9699,3.9729,3.8896,3.7973,3.7665,3.6116,3.4798,3.5081,3.3641,3.2546,3.2259,3.1412,3.0715,3.044,2.9824,2.9627,2.9627,2.8626,2.7927,2.7697,2.7674,2.7067,2.6016,2.6227,2.5766,2.4782,2.5012,2.5032,2.4849,2.4046,2.375,2.3361,2.3361,2.3054,0.0,0.0,0.0,3.3571,3.3687,3.3803,0.0,0.0,0.0,0.0,0.0,3.4042,3.5048,3.4564,0.0,0.0,0.0,0.0,3.6179,0.0,0.0,0.0,4.0468,4.0695,4.0695,4.0842,4.0869,4.0802,4.0817,4.121,4.1716,4.1826,4.2305,4.2773,4.2382,4.2078,4.136,4.1499,4.1697,4.2143,4.19,4.22,4.3245,4.3286,4.3642,4.4142,4.4221,4.4481,4.4575,4.4709,4.4711,4.4662,4.4693,4.4672,4.4375,4.444,4.4716,4.4682,4.4802,4.4902,4.5104,4.5001,4.4916,4.4847,4.4647,4.3772,4.2657,4.1668,4.1421,4.1158,4.0745,4.0212,4.0075,4.0474,3.9922,3.9458,4.0731,4.0045,3.9366,4.0035,3.8634,3.762,3.7958,3.6646,3.5522,3.5417,3.4757,3.3842,3.3147,3.2324,3.1771,3.1694,3.1298,3.0901,3.0901,2.9724,2.8986,2.8926,2.8532,2.8079,2.7362,2.7012,2.6453,2.5869,2.5524,2.5461,2.5488,2.4476,2.4187,2.4187,2.3775,2.3267,2.965,3.1284,3.2572,3.2719,3.2942,3.3138,0.0,0.0,0.0,0.0,0.0,0.0,3.435,0.0,0.0,0.0,0.0,0.0,0.0,0.0,0.0,4.0762,4.1122,4.1269,0.0,4.1122,4.1288,4.1412,4.1437,4.191,4.2643,4.2792,4.3106,4.3592,4.327,4.2701,4.2165,4.2046,4.2216,4.2392,4.2282,4.2783,4.3713,4.3907,4.4427,4.4922,4.5083,4.5059,4.5218,4.5432,4.553,4.5332,4.5783,4.5599,4.5173,4.5444,4.5515,4.5464,4.5498,4.5461,4.5525,4.5525,4.5525,4.5525,4.5525,4.4813,4.3856,4.2891,4.2128,4.1599,4.12,4.0912,4.0636,4.1039,4.0872,4.0967,4.1565,4.0981,4.0218,4.0401,3.933,3.8236,3.809,3.7299,3.6456,3.5725,3.5277,3.4612,3.3841,3.3158,3.2585,3.2585,3.2067,3.159,3.159,3.0652,3.0117,2.9995,2.9387,2.8743,2.7821,2.7622,2.707,2.639,2.6307,2.6019,2.593,2.5318,2.5029,2.5023,2.441,2.4108,2.956,3.1314,3.2519,3.2456,3.2772,3.2839,0.0,0.0,0.0,0.0,0.0,0.0,0.0,0.0,0.0,0.0,0.0,0.0,3.8842,3.9613,4.0401,4.1256,4.1603,0.0,4.1416,4.135,4.149,4.1984,4.2398,4.2926,4.3364,4.3866,4.3958,4.3914,4.3606,4.3533,4.3253,4.2886,4.268,4.2465,4.3107,4.3641,4.3896,4.4789,4.528,4.5519,4.5811,4.5954,4.5942,4.6369,4.6336,4.6039,4.6778,4.6658,4.6187,4.6232,4.632,4.6475,4.608,4.6142,4.6285,4.6215,4.6198,4.6198,4.5997,4.5594,4.5121,4.4412,4.304,4.1761,4.1761,4.1585,4.1389,4.1389,4.1897,4.2389,4.2389,4.1989,4.1379,4.0915,4.0254,3.933,3.8398,3.7928,3.7194,3.6251,3.58,3.5171,3.4733,3.3877,3.3298,3.3258,3.2669,3.2136,3.2085,3.1719,3.1239,3.1014,3.0313,2.9379,2.8192,2.7992,2.7504,2.6949,2.695,2.683,2.6376,2.6212,2.6099,2.5619,2.5032,2.496,3.0117,3.1455,3.2064,3.1407,3.1864,3.2238,0.0,0.0,0.0,0.0,0.0,0.0,0.0,0.0,0.0,0.0,0.0,0.0,0.0,0.0,0.0,4.2011,0.0,4.1777,4.171,4.198,4.2051,4.2244,4.2976,4.3423,4.3379,4.4302,4.4528,4.4236,4.4402,4.4681,4.4401,4.3777,4.3249,4.2787,4.3669,4.4339,4.4568,4.5444,4.5998,4.6216,4.6723,4.702,4.6986,4.7399,4.7425,4.7135,4.7719,4.7701,4.7228,4.6834,4.6905,4.7478,4.7489,4.7518,4.7633,4.7112,4.7006,4.6988,4.6583,4.638,4.6177,4.5498,4.4396,4.2896,4.2099,4.1722,4.177,4.177,4.2088,4.2389,4.2389,4.2194,4.1884,4.1379,4.0869,4.0299,3.9345,3.9078,3.856,3.7208,3.696,3.6654,3.5772,3.528,3.4735,3.449,3.4055,3.3877,3.3638,3.3211,3.2905,3.2455,3.1006,3.0023,2.9589,2.8563,2.8069,2.8115,2.773,2.7445,2.7033,2.6818,2.6619,2.6255,2.54,2.5185,2.8792,3.013,3.1231,3.1112,3.1952,3.2772,0.0,0.0,0.0,0.0,0.0,0.0,0.0,0.0,0.0,0.0,0.0,0.0,0.0,0.0,4.1396,0.0,0.0,4.2269,4.2507,4.25,4.2765,4.334,4.3691,4.4108,4.3888,4.4375,4.4645,4.4323,4.4892,4.495,4.4786,4.5189,4.4931,4.4285,4.4414,4.4781,4.5622,4.5976,4.6526,4.7297,4.7909,4.8179,4.8144,4.8554,4.8541,4.8193,4.8614,4.8404,4.8158,4.7984,4.8001,4.8016,4.8254,4.8247,4.8238,4.8059,4.8005,4.8005,4.7802,4.719,4.6798,4.6166,4.5072,4.414,4.3329,4.2814,4.2548,4.2943,4.3173,4.3366,4.3366,4.3268,4.312,4.2329,4.1736,4.113,4.0542,3.9942,3.936,3.8379,3.7803,3.723,3.666,3.6078,3.572,3.5185,3.4939,3.4666,3.4135,3.3818,3.3059,3.2232,3.0975,3.0077,2.9977,2.9146,2.8786,2.891,2.849,2.8016,2.7906,2.7596,2.7239,2.7261,2.6307,2.5828,2.7783,2.9085,3.0213,0.0,0.0,0.0,0.0,0.0,0.0,0.0,0.0,0.0,0.0,0.0,0.0,0.0,0.0,0.0,0.0,0.0,4.1897,4.2538,4.2378,4.2619,4.3242,4.3274,4.3469,4.4338,4.4627,4.4597,4.4353,4.4689,4.4733,4.4323,4.5041,4.5382,4.5142,4.6556,4.6619,4.5346,4.5457,4.5961,4.6616,4.6751,4.7312,4.8502,4.9145,4.9222,4.9261,4.9886,4.9868,4.9283,4.9405,4.9315,4.9017,4.9226,4.9048,4.8799,4.9007,4.9017,4.9157,4.9067,4.9031,4.9031,4.8826,4.8211,4.7406,4.6768,4.6149,4.543,4.4649,4.3946,4.373,4.4144,4.443,4.4467,4.4467,4.4532,4.4156,4.3225,4.2776,4.2149,4.1618,4.077,3.9972,3.9551,3.8699,3.7896,3.739,3.6969,3.6593,3.6121,3.5679,3.5129,3.4523,3.4095,3.3291,3.2311,3.1303,3.0617,3.0468,3.0049,2.9653,2.971,2.9078,2.8845,2.8789,2.8212,2.8088,2.8229,2.699,2.6673,2.852,2.9105,2.9532,3.0713,0.0,0.0,0.0,0.0,0.0,0.0,0.0,0.0,0.0,0.0,0.0,0.0,0.0,4.275,4.3817,0.0,4.313,4.3653,4.3373,4.3062,4.3283,4.3719,4.4234,4.4352,4.5089,4.5319,4.4367,4.4923,4.4967,4.4323,4.5502,4.6216,4.617,4.7873,4.7934,4.5682,4.7172,4.7473,4.7013,4.8485,4.9245,4.9556,5.0034,5.0452,5.0719,5.1117,5.0885,5.0063,5.0364,4.9776,4.9017,4.9663,4.9854,4.9836,5.0462,5.0444,5.0578,5.0193,5.0083,4.9877,4.9465,4.9259,4.8846,4.7773,4.7548,4.7028,4.4973,4.449,4.4507,4.4507,4.4804,4.5101,4.5101,4.494,4.466,4.432,4.3815,4.3051,4.2102,4.1618,4.0952,4.0316,3.9876,3.9334,3.8815,3.8336,3.7996,3.7486,3.6607,3.5755,3.5137,3.4491,3.4186,3.3803,3.2449,3.1512,3.1348,3.0728,3.0634,3.0869,3.0239,2.9911,2.966,2.9259,2.9056,2.8856,2.7791,2.7465,2.6977,2.783,2.8679,0.0,0.0,0.0,0.0,0.0,0.0,0.0,0.0,0.0,0.0,0.0,0.0,0.0,4.2613,4.3174,4.3235,4.3103,4.3033,4.3183,4.3116,4.3265,4.4065,4.4096,4.4554,4.5133,4.5875,4.5655,4.4675,4.5512,4.5467,4.5055,4.6216,4.6722,4.6722,4.8361,4.8638,4.7336,4.8176,4.8898,4.9322,4.9414,4.9967,5.0697,5.1393,5.1801,5.1856,5.1818,5.1685,5.1477,5.1301,5.1043,5.1159,5.1608,5.1928,5.1928,5.2137,5.2137,5.2062,5.1669,5.1538,5.1313,5.0882,5.0486,4.9864,4.8804,4.8176,4.7635,4.5956,4.5557,4.5516,4.5934,4.6011,4.5873,4.5873,4.5563,4.5186,4.4628,4.4168,4.3692,4.3352,4.2294,4.15,4.1286,4.0267,3.9465,3.9348,3.9107,3.8851,3.8296,3.7234,3.6594,3.6394,3.5738,3.5134,3.4159,3.291,3.225,3.1879,3.1521,3.1272,3.1368,3.094,3.0453,2.9934,2.9382,2.9029,2.8652,2.8098,2.7789,2.5749,2.658,0.0,0.0,0.0,0.0,0.0,0.0,0.0,0.0,0.0,0.0,0.0,0.0,0.0,0.0,4.2813,4.3129,4.2886,4.3207,4.3314,4.3127,4.3264,4.3602,4.4586,4.4698,4.4975,4.5801,4.6225,4.599,4.5092,4.5967,4.6104,4.5517,4.6691,4.7196,4.7432,4.8832,4.9372,4.9459,4.9539,4.9988,5.0532,5.0483,5.0837,5.1613,5.2271,5.2763,5.2922,5.286,5.2841,5.2511,5.2099,5.2157,5.2609,5.2893,5.3083,5.3177,5.3045,5.2988,5.2931,5.2515,5.2382,5.2382,5.195,5.133,5.0706,4.9645,4.8824,4.8316,4.7287,4.6641,4.6533,4.6954,4.6948,4.6745,4.688,4.647,4.6042,4.5398,4.485,4.4449,4.4121,4.3037,4.2219,4.2219,4.1084,4.0202,3.9884,3.987,3.9612,3.8883,3.7881,3.7248,3.695,3.6504,3.5679,3.467,3.3804,3.2945,3.2193,3.2109,3.2012,3.1928,3.1355,3.0971,3.0538,2.9878,2.9304,2.9032,2.8385,2.8249,2.5484,0.0,0.0,0.0,0.0,0.0,0.0,0.0,0.0,0.0,0.0,0.0,0.0,0.0,0.0,0.0,4.2512,4.3207,4.3487,4.3781,4.3781,4.3167,4.3873,4.4485,4.432,4.5007,4.5706,4.5845,4.6281,4.6475,4.5817,4.6479,4.6567,4.6231,4.6928,4.7432,4.8125,4.9285,5.0504,5.1286,5.1591,5.1192,5.019,5.1309,5.1969,5.2289,5.2891,5.3563,5.4016,5.4666,5.4371,5.3556,5.3158,5.3007,5.3007,5.3007,5.3272,5.3575,5.314,5.3007,5.2931,5.2515,5.2382,5.2382,5.2382,5.195,5.1311,5.029,4.9436,4.8895,4.8876,4.8064,4.7365,4.7382,4.7382,4.7484,4.7861,4.7517,4.6872,4.644,4.6052,4.5511,4.4752,4.4035,4.3566,4.3566,4.2851,4.1863,4.1115,4.0854,4.0305,3.8912,3.8495,3.7916,3.6963,3.6518,3.5989,3.5597,3.4721,3.3776,3.2217,3.2459,3.2471,3.2205,3.1804,3.1715,3.1715,3.0593,2.9944,2.9944,2.9292,2.9082,2.4429,0.0,0.0,0.0,0.0,0.0,0.0,0.0,0.0,0.0,0.0,0.0,0.0,0.0,0.0,0.0,4.2833,4.3487,4.3821,4.4292,4.4418,4.4227,4.4416,4.4866,4.5345,4.5217,4.5548,4.6138,4.6414,4.655,4.6131,4.6872,4.7284,4.6928,4.7905,4.8848,4.9536,5.0705,5.1295,5.1591,5.2356,5.2557,5.1943,5.2524,5.3,5.3581,5.3997,5.4647,5.5275,5.4989,5.4743,5.4226,5.4092,5.4263,5.4719,5.5449,5.5855,5.5894,5.5879,5.5741,5.5602,5.4463,5.4023,5.4004,5.3185,5.2569,5.195,5.0725,5.0081,4.9472,4.9159,4.8895,4.9089,4.9352,4.9012,4.8832,4.8954,4.8107,4.744,4.7223,4.6254,4.547,4.5156,4.4047,4.3239,4.3239,4.2697,4.1939,4.1198,4.1183,4.0936,3.998,3.9166,3.8524,3.8208,3.7346,3.6507,3.591,3.5403,3.4574,3.4078,3.3078,3.2762,3.3124,3.2555,3.1923,3.1033,3.0813,3.0242,2.9542,2.9308,2.9394,2.4095,0.0,0.0,0.0,0.0,0.0,0.0,0.0,0.0,0.0,0.0,0.0,0.0,0.0,0.0,4.2325,4.302,4.3634,4.3968,4.4279,4.4569,4.4446,4.4778,4.5191,4.5569,4.562,4.6005,4.6519,4.6849,4.6964,4.6996,4.7501,4.7873,4.7905,4.8815,4.977,5.0672,5.1834,5.2393,5.2753,5.3606,5.3968,5.3695,5.3456,5.378,5.4449,5.4882,5.551,5.6115,5.5476,5.5359,5.5107,5.5142,5.539,5.6005,5.6891,5.7321,5.7401,5.717,5.7117,5.6855,5.5723,5.518,5.4635,5.4004,5.3185,5.2176,5.1537,5.0706,4.9944,5.004,5.008,5.0081,4.9939,4.9884,4.9611,4.9552,4.9135,4.8482,4.8029,4.702,4.6435,4.5778,4.4705,4.3984,4.3909,4.3146,4.2557,4.1783,4.1791,4.1457,4.0694,3.965,3.907,3.907,3.7958,3.7025,3.6682,3.5987,3.5661,3.5598,3.4083,3.3506,3.3627,3.3066,3.223,3.1122,3.1001,3.0454,2.9706,2.9792,2.9911,0.0,0.0,0.0,0.0,0.0,0.0,0.0,0.0,0.0,0.0,0.0,0.0,0.0,4.0865,4.1589,4.2619,4.3127,4.3594,4.3928,4.4472,4.4432,4.4131,4.5121,4.5583,4.5269,4.6005,4.6519,4.7252,4.736,4.7466,4.8224,4.8284,4.858,4.9099,4.977,5.0672,5.1868,5.2777,5.3536,5.4411,5.4965,5.5005,5.4939,5.4506,5.4487,5.5098,5.551,5.6154,5.6543,5.6152,5.5996,5.5957,5.6195,5.6483,5.7051,5.7471,5.7942,5.8223,5.799,5.7566,5.7163,5.6718,5.5847,5.51,5.4937,5.3897,5.2645,5.2664,5.1422,5.0563,5.1715,5.1722,5.1027,5.0028,5.0224,5.04,5.0102,4.9971,4.9533,4.8468,4.8197,4.7756,4.6821,4.5811,4.5269,4.4947,4.4271,4.3286,4.2324,4.2387,4.1992,4.106,4.012,3.9616,3.9616,3.8475,3.7702,3.7448,3.6973,3.663,3.7048,3.5399,3.4172,3.4158,3.3726,3.2963,3.1647,3.142,3.0857,3.041,3.0616,3.0703,0.0,0.0,0.0,0.0,0.0,0.0,0.0,0.0,0.0,0.0,0.0,0.0,4.0396,4.1527,4.235,4.2659,4.2953,4.3273,4.3594,4.4419,4.4889,4.4583,4.577,4.6369,4.6063,4.6739,4.7018,4.7252,4.7636,4.8192,4.8901,4.8997,4.9067,4.9754,5.0938,5.1851,5.2528,5.414,5.5028,5.5469,5.6029,5.6226,5.6008,5.6008,5.6248,5.6796,5.6582,5.6796,5.7202,5.6698,5.6658,5.7064,5.7177,5.7409,5.8143,5.8565,5.8836,5.8856,5.9034,5.8808,5.8664,5.7801,5.7128,5.6415,5.5956,5.4972,5.4138,5.407,5.3558,5.2754,5.273,5.2796,5.2805,5.2069,5.1929,5.1801,5.1251,5.0609,5.0134,4.9488,4.8603,4.8163,4.7756,4.6681,4.5543,4.5168,4.4916,4.4381,4.3201,4.3102,4.2512,4.1353,4.0277,3.9616,3.9616,3.8475,3.7782,3.7742,3.725,3.701,3.7622,3.5841,3.5017,3.5181,3.4807,3.4038,3.286,3.2907,3.2482,3.2022,3.2056,3.209,0.0,0.0,0.0,0.0,0.0,0.0,0.0,0.0,0.0,0.0,3.8974,4.0007,4.0258,4.1374,4.2576,4.2686,4.314,4.3487,4.334,4.4214,4.4792,4.4754,4.5345,4.6194,4.6299,4.6769,4.7193,4.7538,4.8017,4.8613,4.9398,4.9122,4.977,5.0921,5.1851,5.3008,5.4122,5.5283,5.6234,5.6738,5.6961,5.7206,5.7226,5.7012,5.7225,5.786,5.7435,5.7648,5.786,5.7435,5.7648,5.786,5.8052,5.8495,5.8706,5.9338,5.9758,5.9926,5.9886,5.9886,5.9677,5.9015,5.8212,5.727,5.6689,5.5741,5.498,5.4797,5.4245,5.367,5.3878,5.3873,5.3653,5.3427,5.3127,5.2708,5.207,5.1517,5.0942,5.0086,4.93,4.8688,4.8382,4.7231,4.5817,4.5216,4.5106,4.4711,4.3462,4.3499,4.2948,4.1464,4.0576,4.0017,3.9636,3.8816,3.833,3.8036,3.7808,3.7729,3.7809,3.6614,3.586,3.5812,3.5131,3.4281,3.3266,3.3395,3.3222,3.2503,3.2629,3.2686,0.0,0.0,2.9326,3.3212,0.0,0.0,0.0,0.0,3.7372,3.7372,3.8358,3.9401,4.0136,4.1339,4.2127,4.2686,4.3247,4.3527,4.31,4.3806,4.4196,4.467,4.5189,4.5827,4.6284,4.6974,4.7538,4.7773,4.8333,4.8711,4.9601,4.9732,5.0205,5.2014,5.2672,5.3768,5.5291,5.6234,5.6965,5.7735,5.7677,5.793,5.8284,5.7847,5.8072,5.8495,5.8284,5.8284,5.8495,5.8284,5.8284,5.8495,5.8917,5.9128,5.9548,5.9968,6.0386,6.099,6.0782,6.0551,6.0236,6.003,5.9098,5.7924,5.7385,5.6493,5.5619,5.5698,5.5107,5.4551,5.5128,5.4992,5.4641,5.4139,5.4096,5.3641,5.2581,5.2083,5.1765,5.0802,4.9606,4.9011,4.8634,4.7355,4.6171,4.5218,4.5408,4.5057,4.3723,4.3972,4.3549,4.1503,4.1241,4.0769,3.9822,3.9326,3.9012,3.8517,3.8477,3.8357,3.8063,3.743,3.6742,3.6219,3.543,3.4742,3.3638,3.3827,3.37,3.3011,3.3218,3.3322,0.0,0.0,3.0434,0.0,3.5023,3.597,0.0,0.0,3.7372,0.0,3.8746,4.0136,4.0187,4.1256,4.2418,4.2619,4.2552,4.2512,4.2699,4.3721,4.4628,4.4334,4.5512,4.6562,4.7018,4.7493,4.7773,4.8462,4.9062,4.9633,5.0312,5.1123,5.1697,5.2042,5.3866,5.4626,5.4484,5.6043,5.7109,5.7691,5.8426,5.9048,5.9568,5.9121,5.8917,5.8917,5.8495,5.8495,5.8917,5.8495,5.8495,5.8917,5.9128,5.9738,6.0574,6.0574,6.099,6.1405,6.099,6.074,6.0698,6.0094,5.9158,5.8226,5.8212,5.742,5.6781,5.6926,5.7044,5.6832,5.6484,5.629,5.6096,5.5079,5.4551,5.4062,5.2563,5.2307,5.1868,5.0732,4.9556,4.8634,4.8065,4.7344,4.6623,4.5917,4.5933,4.5592,4.4735,4.4613,4.4045,4.2453,4.1836,4.1145,4.0424,3.9979,3.9493,3.9426,3.9426,3.9279,3.8972,3.8022,3.7339,3.7084,3.5904,3.5328,3.4849,3.4885,3.4675,3.4675,3.4699,3.4735,2.49,2.8198,3.1116,0.0,3.5058,3.5778,3.6258,3.6857,3.7372,3.7372,3.8795,4.0187,4.0187,4.108,4.1936,4.2432,4.2579,4.2659,4.2445,4.3062,4.3797,4.425,4.4837,4.5827,4.6765,4.7357,4.8063,4.866,4.927,5.0197,5.119,5.1704,5.2476,5.3907,5.4564,5.5301,5.6231,5.7109,5.7715,5.8347,5.9028,5.9466,5.9414,5.9651,5.9548,5.9569,5.9359,5.9359,5.9569,5.9359,5.9548,5.9947,5.9947,6.0574,6.1198,6.1198,6.1633,6.2047,6.184,6.1633,6.1198,6.1011,6.024,5.9302,5.8856,5.8354,5.8022,5.8012,5.804,5.8239,5.8026,5.799,5.7521,5.6871,5.6372,5.5533,5.4302,5.3364,5.2699,5.1397,5.007,4.8864,4.8419,4.7655,4.6768,4.6314,4.6346,4.5938,4.495,4.4903,4.4128,4.2142,4.1869,4.1186,4.0074,3.9971,3.9773,3.9599,3.9599,3.9533,3.9412,3.857,3.8095,3.7491,3.6304,3.5557,3.5416,3.5416,3.5416,3.5416,3.5416,3.5416,0.0,0.0,3.0965,3.3128,3.4644,3.5513,0.0,0.0,3.7299,3.7372,3.8542,3.969,3.9933,4.0864,4.1733,4.1991,4.235,4.2726,4.2285,4.2605,4.3153,4.3984,4.4318,4.5188,4.6774,4.7574,4.8255,4.892,4.9724,5.0755,5.2083,5.2528,5.3663,5.5573,5.5522,5.6234,5.7696,5.8129,5.8543,5.898,5.9638,5.9666,5.9548,5.9968,6.0198,6.0407,6.0198,5.9988,6.0198,6.0198,6.0657,6.1158,6.1053,6.149,6.199,6.1883,6.2253,6.2687,6.2481,6.2275,6.184,6.1612,6.1011,6.0177,5.9548,5.9338,5.9148,5.8848,5.9112,5.9629,5.9537,5.937,5.9178,5.8308,5.7633,5.6774,5.5412,5.4078,5.2995,5.2113,5.0515,4.9072,4.8882,4.7771,4.6848,4.645,4.6466,4.6023,4.498,4.4713,4.3959,4.1925,4.1688,4.1252,3.9827,4.0027,4.004,3.9827,3.9893,3.9853,3.9706,3.9136,3.8644,3.7784,3.6646,3.6164,3.5778,3.6006,3.6006,3.5778,3.6006,3.6006,0.0,2.7341,2.8808,3.1929,3.3666,3.4837,3.5609,3.6418,3.707,3.7311,3.7794,3.84,3.918,4.095,4.1965,4.1458,4.1725,4.2258,4.2218,4.2507,4.3164,4.4166,4.4724,4.5941,4.7466,4.8146,4.8936,4.9601,5.0906,5.2117,5.2742,5.4369,5.5555,5.5842,5.6961,5.7638,5.791,5.8994,5.9405,5.9169,5.9589,6.0198,6.0782,6.0782,6.099,6.1426,6.0407,6.0386,6.0782,6.0782,6.1264,6.2272,6.1804,6.2096,6.3063,6.2653,6.2892,6.328,6.2687,6.2481,6.2275,6.184,6.1198,6.0595,6.0198,5.9947,5.9799,5.985,6.0418,6.1157,6.0547,6.0884,6.0905,5.9178,5.8308,5.7414,5.5652,5.3855,5.2528,5.2528,5.046,4.8882,4.8915,4.7965,4.6798,4.6105,4.609,4.5766,4.4931,4.4269,4.3454,4.253,4.1851,4.1154,4.0441,4.0441,4.0441,4.0441,4.0695,4.0588,4.0027,3.9805,3.9343,3.8114,3.7614,3.6991,3.5778,3.6461,3.6246,3.5778,3.6461,3.6246,2.5679,2.749,2.8913,3.1881,3.3473,3.4535,3.5356,3.6261,3.7046,3.7299,3.8048,3.8656,3.8668,3.9435,4.0455,4.0442,4.1204,4.1484,4.1484,4.2363,4.3288,4.3942,4.4986,4.6215,4.7585,4.8329,4.9251,5.0906,5.1687,5.2777,5.4387,5.5055,5.6327,5.779,5.7986,5.8403,5.9189,5.9597,5.9923,6.0156,6.0803,6.1219,6.1405,6.1405,6.1405,6.1612,6.1219,6.1219,6.1405,6.1405,6.191,6.2941,6.2769,6.34,6.4646,6.4077,6.422,6.4841,6.4634,6.4023,6.3348,6.3304,6.2468,6.1798,6.1198,6.099,6.1011,6.0992,6.1685,6.2402,6.2146,6.2199,6.1748,6.0017,5.8874,5.7783,5.6908,5.4882,5.3291,5.3291,5.1005,4.9344,4.9575,4.781,4.6446,4.6448,4.623,4.5325,4.4299,4.4254,4.3533,4.2169,4.1953,4.1562,4.1029,4.1016,4.1016,4.1016,4.1122,4.1082,4.0869,4.0809,4.0096,3.8915,3.877,3.8038,3.6261,3.6505,3.6505,3.6261,3.6505,3.6505,2.5062,2.6738,2.8542,3.1284,3.2564,3.3536,3.495,3.5571,3.6226,3.7013,3.7794,3.84,3.8156,3.8668,3.9167,3.969,4.0709,4.1178,4.1074,4.2229,4.3109,4.3896,4.4916,4.6116,4.771,4.868,4.9902,5.1868,5.2442,5.3786,5.5739,5.6402,5.7531,5.9567,5.9576,5.9676,6.026,6.0444,6.0741,6.099,6.1405,6.1633,6.184,6.184,6.2047,6.2253,6.2404,6.2261,6.2075,6.2075,6.3063,6.4251,6.389,6.4734,6.5987,6.5206,6.5371,6.5787,6.5787,6.5247,6.4621,6.4599,6.4063,6.3032,6.2643,6.2752,6.2925,6.2662,6.3494,6.4352,6.3889,6.3306,6.246,6.0879,5.9548,5.8244,5.7607,5.553,5.3698,5.3698,5.1628,4.9707,4.9938,4.7946,4.6604,4.6711,4.5941,4.5247,4.4055,4.3946,4.3395,4.2256,4.1793,4.1615,4.131,4.1336,4.1336,4.1336,4.1456,4.1456,4.1336,4.1456,4.0959,3.9872,3.961,3.8922,3.757,3.7471,3.7397,3.7299,3.7531,3.7274,0.0,0.0,0.0,3.0012,3.0717,3.1586,3.4146,3.4276,3.4323,3.6132,3.6731,3.7328,3.8132,3.8156,3.84,3.9167,4.02,4.1113,4.0826,4.1759,4.2819,4.4266,4.496,4.613,4.8348,4.9622,5.0749,5.1817,5.3782,5.5334,5.6364,5.8206,5.975,6.0859,6.1134,6.112,6.1334,6.1494,6.1662,6.1633,6.1612,6.2047,6.2481,6.2481,6.2892,6.3324,6.3805,6.3816,6.3192,6.3192,6.436,6.6221,6.5128,6.5657,6.7059,6.5987,6.6017,6.6432,6.6432,6.6096,6.5692,6.5692,6.5356,6.4953,6.4322,6.4859,6.5554,6.4964,6.5867,6.6774,6.5583,6.3987,6.2659,6.2001,6.0436,5.8897,5.7588,5.5548,5.3698,5.3698,5.1619,4.9988,4.9988,4.8345,4.7067,4.6659,4.5982,4.5038,4.4468,4.3333,4.2746,4.2285,4.1597,4.135,4.1376,4.1376,4.1376,4.1376,4.1644,4.167,4.1376,4.1644,4.142,4.0383,4.037,4.0121,3.9361,3.9081,3.8801,3.8559,3.9266,3.8765,2.3987,0.0,0.0,0.0,0.0,0.0,3.2467,3.3289,3.4088,3.6233,3.6797,3.7217,3.8048,3.8156,3.84,3.9167,3.9756,4.0536,4.1012,4.2133,4.346,4.4452,4.5983,4.7398,4.8388,5.0288,5.1876,5.2605,5.4346,5.5952,5.7094,5.9039,6.0409,6.1059,6.1251,6.1598,6.2106,6.208,6.2197,6.2275,6.2665,6.287,6.3076,6.3076,6.3272,6.3805,6.3958,6.4603,6.5426,6.4657,6.5085,6.6265,6.5922,6.6796,6.825,6.7507,6.7672,6.8069,6.8069,6.7752,6.7345,6.7345,6.7006,6.6372,6.5961,6.6073,6.6208,6.5928,6.6515,6.6984,6.6011,6.5284,6.4183,6.2877,6.114,5.9344,5.8225,5.5966,5.414,5.3716,5.1619,4.9988,4.9988,4.8332,4.6883,4.6735,4.5892,4.4855,4.3776,4.3242,4.2819,4.2115,4.1657,4.175,4.1964,4.1964,4.1964,4.1964,4.2044,4.2071,4.1964,4.2258,4.2031,4.0969,4.1178,4.1074,4.0406,3.9635,3.9221,3.9119,3.8669,3.8209,0.0,0.0,0.0,0.0,0.0,0.0,3.1832,3.2538,3.3257,3.5881,3.6441,3.7013,3.7758,3.783,3.8048,3.8923,3.9526,4.016,4.1115,4.2463,4.3937,4.468,4.653,4.7982,4.9031,5.0869,5.2255,5.3579,5.519,5.7157,5.912,6.0186,6.112,6.1975,6.2149,6.2523,6.2962,6.3109,6.3076,6.3097,6.3485,6.3485,6.328,6.328,6.3638,6.4129,6.4327,6.493,6.5898,6.5822,6.6364,6.7207,6.6997,6.7807,6.8896,6.8686,6.8896,6.9547,6.9755,6.941,6.8972,6.8995,6.865,6.8212,6.7804,6.7941,6.8125,6.8125,6.8054,6.7882,6.7141,6.6142,6.5262,6.3531,6.1802,6.0215,5.8674,5.6383,5.4616,5.3486,5.1636,4.9803,4.9497,4.8031,4.6601,4.6647,4.5734,4.4627,4.3662,4.333,4.2862,4.1937,4.1964,4.2031,4.2218,4.2218,4.2258,4.2405,4.2405,4.2472,4.2579,4.2766,4.2523,4.2068,4.2253,4.2107,4.1646,4.0484,3.9962,4.0095,3.9418,3.8783,0.0,0.0,0.0,0.0,0.0,0.0,3.1738,3.2022,3.2419,3.5309,3.5885,3.6311,3.7166,3.7215,3.7629,3.8606,3.9305,4.0159,4.1216,4.269,4.3975,4.4816,4.6557,4.824,4.971,5.1208,5.2717,5.4099,5.618,5.8539,6.1168,6.1361,6.1978,6.3078,6.3279,6.3478,6.412,6.4092,6.4278,6.4119,6.4119,6.3915,6.3485,6.3485,6.3733,6.4207,6.4628,6.5282,6.5872,6.6768,6.7792,6.8618,6.8265,6.8686,6.9524,6.9732,6.9941,7.0587,7.1,7.0878,7.0478,7.0478,7.0196,6.982,7.0022,7.0125,7.0502,7.0549,7.0077,6.9406,6.8423,6.7385,6.5865,6.4331,6.2783,6.1241,5.9034,5.6986,5.5164,5.3113,5.1239,4.9699,4.8888,4.7517,4.6814,4.6669,4.5292,4.4377,4.4138,4.3484,4.2677,4.2191,4.2218,4.2218,4.2258,4.2258,4.2405,4.2699,4.2699,4.2846,4.31,4.3127,4.3127,4.31,4.306,4.2913,4.2659,4.1606,4.1197,4.1376,4.0631,4.037,0.0,0.0,0.0,0.0,0.0,0.0,2.9854,3.1009,3.2338,3.4243,3.4711,3.507,3.5971,3.676,3.7283,3.7962,3.9053,4.0522,4.2044,4.3025,4.4462,4.5963,4.7291,4.8629,5.007,5.2023,5.3457,5.4167,5.6615,5.9072,6.143,6.1527,6.233,6.3931,6.3843,6.4207,6.4637,6.475,6.4706,6.4706,6.4322,6.4119,6.3915,6.3915,6.4114,6.4672,6.5193,6.6301,6.7481,6.7662,6.7797,6.8142,6.8946,6.9524,7.0379,7.0794,7.1,7.1,7.1207,7.1136,7.1042,7.1042,7.0972,7.0901,7.1492,7.1358,7.1136,7.1559,7.1308,7.0634,7.0626,6.9246,6.7734,6.6426,6.4422,6.2415,6.0364,5.808,5.5787,5.3448,5.156,5.0076,4.9239,4.8075,4.71,4.599,4.5437,4.4611,4.3453,4.316,4.2895,4.2231,4.2218,4.2325,4.2552,4.2592,4.2699,4.2993,4.302,4.302,4.31,4.3314,4.334,4.31,4.2873,4.2726,4.2659,4.2058,4.1739,4.171,4.0946,4.0552,0.0,0.0,0.0,2.8053,0.0,0.0,0.0,3.1017,3.2165,3.4305,3.4402,3.4197,3.5316,3.5575,3.6029,3.7451,3.9038,4.0647,4.2597,4.3709,4.5174,4.683,4.8386,4.9693,5.0873,5.2797,5.4779,5.6234,5.8067,5.9816,6.1501,6.2133,6.3074,6.4124,6.4572,6.5088,6.5312,6.5513,6.5513,6.5312,6.511,6.4706,6.4503,6.4503,6.484,6.5244,6.547,6.6305,6.7645,6.7873,6.8353,6.8835,6.9317,6.9941,7.0379,7.1,7.1618,7.2005,7.2209,7.2618,7.2821,7.2821,7.2821,7.2821,7.3227,7.3217,7.3278,7.2925,7.2748,7.2592,7.1373,7.0183,6.8889,6.7146,6.516,6.2903,6.0827,5.8556,5.6076,5.3696,5.191,5.0168,4.8685,4.7391,4.6325,4.5495,4.4653,4.3971,4.3229,4.271,4.2218,4.2218,4.2098,4.2244,4.2659,4.2806,4.2993,4.3273,4.3314,4.338,4.3527,4.3674,4.3714,4.3567,4.3247,4.31,4.31,4.2806,4.2432,4.2004,4.1739,4.1395,0.0,0.0,0.0,0.0,0.0,3.032,0.0,0.0,0.0,3.4556,3.4146,3.3641,3.4532,3.4482,3.5075,3.6866,3.883,4.0783,4.2693,4.4244,4.5686,4.7009,4.8926,5.0555,5.153,5.352,5.5797,5.864,5.9518,6.0653,6.2261,6.3057,6.3967,6.479,6.5551,6.6002,6.6093,6.6516,6.6516,6.6093,6.5893,6.5491,6.511,6.511,6.5312,6.5692,6.6006,6.655,6.7457,6.7963,6.8878,6.9799,6.9779,7.0149,7.0794,7.1413,7.2209,7.3024,7.3632,7.4236,7.4662,7.4437,7.4662,7.4662,7.4461,7.4957,7.5125,7.4181,7.4182,7.3992,7.2195,7.1032,7.0046,6.7846,6.5656,6.3619,6.1311,5.8802,5.6348,5.4042,5.1963,5.0005,4.7819,4.6602,4.5714,4.5046,4.4026,4.3256,4.3126,4.2045,4.1497,4.2111,4.1786,4.1687,4.2305,4.253,4.3041,4.3346,4.3346,4.3466,4.3995,4.4008,4.4008,4.4008,4.3674,4.3527,4.3527,4.3233,4.2846,4.2405,4.2405,4.2365,0.0,0.0,0.0,0.0,3.2486,0.0,0.0,0.0,3.306,3.3248,0.0,3.3488,3.3551,0.0,0.0,3.5937,3.807,4.0286,4.1911,4.385,4.5633,4.6689,4.8646,5.0508,5.212,5.4265,5.6788,5.982,5.976,6.0898,6.3811,6.4551,6.5399,6.6914,6.7008,6.7241,6.7906,6.7312,6.7137,6.7114,6.6093,6.5692,6.5692,6.5692,6.5692,6.5715,6.6797,6.748,6.7963,6.8491,6.9433,7.031,7.077,7.1413,7.2029,7.3024,7.343,7.3632,7.4236,7.4637,7.5037,7.4637,7.4862,7.5061,7.4662,7.4911,7.526,7.5125,7.4642,7.432,7.391,7.2674,7.1083,6.9739,6.7241,6.4769,6.2702,5.987,5.7073,5.4491,5.2068,4.9635,4.7674,4.668,4.5534,4.4106,4.3379,4.3153,4.3197,4.2041,4.14,4.1895,4.1237,4.0823,4.1568,4.1645,4.2035,4.286,4.286,4.3163,4.3995,4.4008,4.4008,4.4008,4.3674,4.3527,4.3527,4.3233,4.306,4.2993,4.2993,4.2846,0.0,0.0,0.0,0.0,0.0,0.0,3.2654,0.0,3.262,0.0,0.0,0.0,0.0,0.0,0.0,0.0,3.826,4.0482,4.2026,4.4265,4.6153,4.7513,4.9017,5.1275,5.4538,5.6167,5.8242,6.0844,6.1058,6.1832,6.399,6.5044,6.5797,6.6435,6.7022,6.7445,6.7657,6.7766,6.7511,6.7312,6.6915,6.6516,6.6116,6.6116,6.6116,6.6139,6.7067,6.7549,6.8054,6.8994,6.9915,7.1,7.1413,7.2029,7.2618,7.3024,7.3833,7.4662,7.5236,7.5633,7.6277,7.6605,7.6904,7.7178,7.7282,7.7209,7.7134,7.7054,7.6781,7.6,7.4952,7.3453,7.1635,6.9871,6.7433,6.4705,6.2649,5.9787,5.6925,5.4043,5.1385,4.9004,4.6711,4.5749,4.505,4.3921,4.2955,4.2509,4.2319,4.1237,4.0696,4.103,4.0691,4.067,4.1446,4.1599,4.2003,4.2912,4.319,4.3731,4.4008,4.4155,4.4249,4.4249,4.4289,4.4222,4.4035,4.3928,4.3781,4.3607,4.3273,4.302,3.3149,0.0,0.0,0.0,0.0,0.0,0.0,0.0,0.0,0.0,0.0,0.0,0.0,0.0,3.5319,3.6785,0.0,4.1029,4.2554,4.4533,4.6352,4.7704,4.9954,5.2796,5.6376,5.7652,5.9202,6.1921,6.1988,6.287,6.4639,6.568,6.625,6.6536,6.7247,6.7769,6.7911,6.8237,6.8104,6.7709,6.7511,6.7336,6.6739,6.6739,6.6739,6.6562,6.7406,6.789,6.8259,6.9543,7.0672,7.1413,7.2029,7.2618,7.3227,7.3227,7.4035,7.5485,7.603,7.6722,7.7541,7.8496,7.8873,7.8753,7.9163,7.9092,7.8768,7.8595,7.8076,7.7436,7.5755,7.3907,7.2095,6.9871,6.7412,6.4684,6.2125,5.9551,5.6704,5.3559,5.073,4.8414,4.6146,4.4698,4.399,4.3386,4.2503,4.1806,4.1741,4.0741,4.0233,4.0703,4.0196,4.0407,4.0757,4.1235,4.1613,4.2648,4.3546,4.4115,4.4115,4.4396,4.4543,4.4543,4.477,4.477,4.4543,4.4543,4.4409,4.4115,4.3594,4.3314,0.0,0.0,0.0,3.5179,0.0,0.0,0.0,0.0,3.6117,0.0,0.0,0.0,0.0,0.0,3.8599,3.8922,4.0446,0.0,0.0,4.4622,4.555,4.64,5.0721,5.4615,5.7072,5.7968,5.9552,6.2328,6.2389,6.3424,6.6239,6.6847,6.7543,6.8597,6.8786,6.8943,6.9452,6.9018,6.8914,6.889,6.8301,6.7709,6.7312,6.7312,6.6938,6.6585,6.8179,6.8823,6.8916,7.0555,7.1389,7.2029,7.2618,7.343,7.4461,7.4461,7.4862,7.5485,7.6449,7.7592,7.8719,7.9679,7.9662,7.9265,7.9291,7.9291,7.9092,7.8717,7.8088,7.749,7.6247,7.429,7.2291,7.0999,6.8086,6.4664,6.2125,5.908,5.6004,5.2864,5.0197,4.7937,4.5965,4.3935,4.2589,4.2639,4.1726,4.1217,4.1777,4.0833,4.0184,4.0717,4.0026,3.9448,3.9713,3.9738,4.0271,4.1866,4.3465,4.4436,4.4436,4.4703,4.4877,4.4877,4.4877,4.4877,4.4877,4.4877,4.4703,4.4396,4.4115,4.3821,3.7228,0.0,3.8709,3.7067,0.0,0.0,0.0,0.0,0.0,0.0,0.0,0.0,0.0,0.0,3.9884,4.0303,4.1717,4.2942,0.0,4.5492,4.7906,5.0762,5.3158,5.5335,5.771,5.9117,6.1035,6.389,6.3567,6.4626,6.7541,6.7348,6.7711,6.8767,6.8411,6.8615,6.8974,6.8924,6.8972,6.8755,6.8723,6.8301,6.7906,6.7906,6.7896,6.807,6.8924,6.9617,6.9993,7.1311,7.1824,7.2029,7.3024,7.3833,7.4461,7.4862,7.5658,7.65,7.7864,7.9137,8.0296,8.1263,8.1643,8.1524,8.2286,8.1733,8.093,8.0692,7.9506,7.7803,7.634,7.4313,7.2095,7.0137,6.7412,6.4684,6.166,5.8825,5.5968,5.2101,4.9454,4.7257,4.4964,4.3086,4.2013,4.2456,4.1535,4.0795,4.0795,4.0254,3.9749,3.9749,3.9556,3.9641,3.9738,4.0174,4.1088,4.2146,4.3231,4.4206,4.473,4.5024,4.5171,4.5171,4.5344,4.5344,4.5171,4.5171,4.5024,4.473,4.4436,4.4142,3.9329,4.0006,4.0645,3.9055,3.8923,0.0,3.7056,0.0,0.0,0.0,0.0,0.0,0.0,0.0,4.2172,4.2389,4.354,4.4453,0.0,4.7879,5.0732,5.3683,5.4634,5.6319,5.8911,6.0089,6.1919,6.4893,6.4398,6.5238,6.8081,6.7919,6.8036,6.892,6.8598,6.872,6.9102,6.904,6.919,6.9166,6.9137,6.8914,6.8301,6.8301,6.8489,6.8644,6.9338,6.9857,7.0578,7.1529,7.2151,7.2378,7.3559,7.4113,7.459,7.4987,7.618,7.7617,7.9163,8.0322,8.1682,8.2457,8.3036,8.3115,8.3683,8.3129,8.2099,8.1688,8.0141,7.8491,7.6817,7.4454,7.1854,6.9871,6.7412,6.4435,6.1193,5.837,5.5541,5.1793,4.9127,4.6718,4.5001,4.2965,4.1599,4.185,4.0957,4.0476,4.0279,3.9895,3.9665,3.9508,3.9641,3.9762,3.9858,4.0577,4.1531,4.2413,4.3516,4.4226,4.5024,4.5318,4.5451,4.5451,4.5638,4.5638,4.5451,4.5451,4.5318,4.5024,4.4837,4.4543]}]]